[[{"header":{"parameterUnit":"m.s-1","parameterCategory":1,"la1":30.6,"la2":29.2853,"lo1":-89.7004,"lo2":-87.6739,"dy":0.0162,"dx":0.0183,"nx":112,"ny":82,"refTime":"2023-07-29T12:00:00:Z","depth":0,"parameterNumber":2,"parameterNumberName":"U-component_of_WINDS"},"data":[0.0,0.0,0.0,0.0,0.0,0.0,0.0,0.0,0.0,0.0,0.0,0.0,0.0,0.0,0.0,0.0,0.0,0.0,0.0,0.0,0.0,0.0,0.0,0.0,0.0,0.0,0.0,0.0,0.0,0.0,0.0,0.0,0.0,0.0,0.0,0.0,0.0,0.0,0.0,0.0,0.0,0.0,0.0,0.0,0.0,0.0,0.0,0.0,0.0,0.0,0.0,0.0,0.0,0.0,0.0,0.0,0.0,0.0,0.0,0.0,0.0,0.0,0.0,0.0,0.0,0.0,0.0,0.0,0.0,0.0,0.0,0.0,0.0,0.0,0.0,0.0,0.0,0.0,0.0,0.0,0.0,0.0,0.0,0.0,0.0,0.0,0.0,0.0,0.0,0.0,-2.2994,-2.3919,-2.4314,-2.4125,-2.3222,-2.3135,-2.2783,-2.1934,0.0,0.0,0.0,0.0,0.0,0.0,0.0,0.0,0.0,0.0,0.0,0.0,0.0,0.0,0.0,0.0,0.0,0.0,0.0,0.0,0.0,0.0,0.0,0.0,0.0,0.0,0.0,0.0,0.0,0.0,0.0,0.0,0.0,0.0,0.0,0.0,0.0,0.0,0.0,0.0,0.0,0.0,0.0,0.0,0.0,0.0,0.0,0.0,0.0,0.0,0.0,0.0,0.0,0.0,0.0,0.0,0.0,0.0,0.0,0.0,0.0,0.0,0.0,0.0,0.0,0.0,0.0,0.0,0.0,0.0,0.0,0.0,0.0,0.0,0.0,0.0,0.0,0.0,0.0,0.0,0.0,0.0,0.0,0.0,0.0,0.0,0.0,0.0,0.0,0.0,0.0,0.0,0.0,0.0,0.0,0.0,0.0,0.0,0.0,0.0,0.0,0.0,0.0,0.0,-2.1315,-2.3036,-2.3347,-2.3309,-2.3135,-2.3135,-2.2783,-2.1934,0.0,0.0,0.0,0.0,0.0,0.0,0.0,0.0,0.0,0.0,0.0,0.0,0.0,0.0,0.0,0.0,0.0,0.0,0.0,0.0,0.0,0.0,0.0,0.0,0.0,0.0,0.0,0.0,0.0,0.0,0.0,0.0,0.0,0.0,0.0,0.0,0.0,0.0,0.0,0.0,0.0,0.0,0.0,0.0,0.0,0.0,0.0,0.0,0.0,0.0,0.0,0.0,0.0,0.0,0.0,0.0,0.0,0.0,0.0,0.0,0.0,0.0,0.0,0.0,0.0,0.0,0.0,0.0,0.0,0.0,0.0,0.0,0.0,0.0,0.0,0.0,0.0,0.0,0.0,0.0,0.0,0.0,0.0,0.0,0.0,0.0,0.0,0.0,0.0,0.0,0.0,0.0,0.0,0.0,0.0,0.0,0.0,0.0,0.0,0.0,0.0,0.0,0.0,-2.222,-2.3043,-2.3912,-2.4049,-2.38,-2.3135,-2.3135,-2.2783,-2.1934,-2.1885,0.0,0.0,0.0,0.0,0.0,0.0,0.0,0.0,0.0,0.0,0.0,0.0,0.0,0.0,0.0,0.0,0.0,0.0,0.0,0.0,0.0,0.0,0.0,0.0,0.0,0.0,0.0,0.0,0.0,0.0,0.0,0.0,0.0,0.0,0.0,0.0,0.0,0.0,0.0,0.0,0.0,0.0,0.0,0.0,0.0,0.0,0.0,0.0,0.0,0.0,0.0,0.0,0.0,0.0,0.0,0.0,0.0,0.0,0.0,0.0,0.0,0.0,0.0,0.0,0.0,0.0,0.0,0.0,0.0,0.0,0.0,0.0,0.0,0.0,0.0,0.0,0.0,0.0,0.0,0.0,0.0,0.0,0.0,0.0,0.0,0.0,0.0,0.0,0.0,0.0,0.0,0.0,0.0,0.0,0.0,0.0,0.0,0.0,0.0,0.0,0.0,0.0,-2.3821,-2.4787,-2.4787,-2.4787,-2.4457,-2.3551,-2.3211,-2.2676,-2.1934,-2.1787,0.0,0.0,0.0,0.0,0.0,0.0,0.0,0.0,0.0,0.0,0.0,0.0,0.0,0.0,0.0,0.0,0.0,0.0,0.0,0.0,0.0,0.0,0.0,0.0,0.0,0.0,0.0,0.0,0.0,0.0,0.0,0.0,0.0,0.0,0.0,0.0,0.0,0.0,0.0,0.0,0.0,0.0,0.0,0.0,0.0,0.0,0.0,0.0,0.0,0.0,0.0,0.0,0.0,0.0,0.0,0.0,0.0,0.0,0.0,0.0,0.0,0.0,0.0,0.0,0.0,0.0,0.0,0.0,0.0,0.0,0.0,0.0,0.0,0.0,0.0,0.0,0.0,0.0,0.0,0.0,0.0,0.0,0.0,0.0,0.0,0.0,0.0,0.0,0.0,0.0,0.0,0.0,0.0,0.0,0.0,0.0,0.0,0.0,0.0,0.0,0.0,0.0,-2.3604,-2.4787,-2.4787,-2.4787,-2.4787,-2.4702,-2.3353,-2.2363,-2.1914,-2.1504,0.0,0.0,0.0,0.0,0.0,0.0,0.0,0.0,0.0,0.0,0.0,0.0,0.0,0.0,0.0,0.0,0.0,0.0,0.0,0.0,0.0,0.0,0.0,0.0,0.0,0.0,0.0,0.0,0.0,0.0,0.0,0.0,0.0,0.0,0.0,0.0,0.0,0.0,0.0,0.0,0.0,0.0,0.0,0.0,0.0,0.0,0.0,0.0,0.0,0.0,0.0,0.0,0.0,0.0,0.0,0.0,0.0,0.0,0.0,0.0,0.0,0.0,0.0,0.0,0.0,0.0,0.0,0.0,0.0,0.0,0.0,0.0,0.0,0.0,0.0,0.0,0.0,0.0,0.0,0.0,0.0,0.0,0.0,0.0,0.0,0.0,0.0,0.0,0.0,0.0,0.0,0.0,0.0,0.0,0.0,0.0,0.0,0.0,0.0,0.0,0.0,0.0,-2.2983,-2.4049,0.0,-2.4125,-2.3714,-2.3714,-2.3238,-2.2617,-2.1934,0.0,0.0,0.0,0.0,0.0,0.0,0.0,0.0,0.0,0.0,0.0,0.0,0.0,0.0,0.0,0.0,0.0,0.0,0.0,0.0,0.0,0.0,0.0,0.0,0.0,0.0,0.0,0.0,0.0,0.0,0.0,0.0,0.0,0.0,0.0,0.0,0.0,0.0,0.0,0.0,0.0,0.0,0.0,0.0,0.0,0.0,0.0,0.0,0.0,0.0,0.0,0.0,0.0,0.0,0.0,0.0,0.0,0.0,0.0,0.0,0.0,0.0,0.0,0.0,0.0,0.0,0.0,0.0,0.0,0.0,0.0,0.0,0.0,0.0,0.0,0.0,0.0,0.0,0.0,0.0,0.0,0.0,0.0,0.0,0.0,0.0,0.0,0.0,0.0,0.0,0.0,0.0,0.0,0.0,0.0,0.0,0.0,0.0,0.0,0.0,0.0,0.0,-2.186,-2.2889,-2.3963,0.0,-2.4125,-2.3637,-2.3637,-2.3054,-2.249,-2.1924,0.0,0.0,0.0,0.0,0.0,0.0,0.0,0.0,0.0,0.0,0.0,0.0,0.0,0.0,0.0,0.0,0.0,0.0,0.0,0.0,0.0,0.0,0.0,0.0,0.0,0.0,0.0,0.0,0.0,0.0,0.0,0.0,0.0,0.0,0.0,0.0,0.0,0.0,0.0,0.0,0.0,0.0,0.0,0.0,0.0,0.0,0.0,0.0,0.0,0.0,0.0,0.0,0.0,0.0,0.0,0.0,0.0,0.0,0.0,0.0,0.0,0.0,0.0,0.0,0.0,0.0,0.0,0.0,0.0,0.0,0.0,0.0,0.0,0.0,0.0,0.0,0.0,0.0,0.0,0.0,0.0,0.0,0.0,0.0,0.0,0.0,0.0,0.0,0.0,0.0,0.0,0.0,0.0,0.0,0.0,0.0,0.0,0.0,0.0,0.0,0.0,0.0,-2.1709,-2.3584,-2.4777,-2.4787,-2.4787,-2.4787,-2.4787,-2.3016,-2.1894,0.0,0.0,0.0,0.0,0.0,0.0,0.0,0.0,0.0,0.0,0.0,0.0,0.0,0.0,0.0,0.0,0.0,0.0,0.0,0.0,0.0,0.0,0.0,0.0,0.0,0.0,0.0,0.0,0.0,0.0,0.0,0.0,0.0,0.0,0.0,0.0,0.0,0.0,0.0,0.0,0.0,0.0,0.0,0.0,0.0,0.0,0.0,0.0,0.0,0.0,0.0,0.0,0.0,0.0,0.0,0.0,0.0,0.0,0.0,0.0,0.0,0.0,0.0,0.0,0.0,0.0,0.0,0.0,0.0,0.0,0.0,0.0,0.0,0.0,0.0,0.0,0.0,0.0,0.0,0.0,0.0,0.0,0.0,0.0,0.0,0.0,0.0,0.0,0.0,0.0,0.0,0.0,0.0,0.0,0.0,0.0,0.0,0.0,0.0,0.0,0.0,0.0,0.0,-2.1753,-2.2681,-2.3298,-2.3597,-2.3637,-2.3637,-2.3637,-2.2798,-2.2197,-2.1904,0.0,0.0,0.0,0.0,0.0,0.0,0.0,0.0,0.0,0.0,0.0,0.0,0.0,0.0,0.0,0.0,0.0,0.0,0.0,0.0,0.0,0.0,0.0,0.0,0.0,0.0,0.0,0.0,0.0,0.0,0.0,0.0,0.0,0.0,0.0,0.0,0.0,0.0,0.0,0.0,0.0,0.0,0.0,0.0,0.0,0.0,0.0,0.0,0.0,0.0,0.0,0.0,0.0,0.0,0.0,0.0,0.0,0.0,0.0,0.0,0.0,0.0,0.0,0.0,0.0,0.0,0.0,0.0,0.0,0.0,0.0,0.0,0.0,0.0,0.0,0.0,0.0,0.0,0.0,0.0,0.0,0.0,0.0,0.0,0.0,0.0,0.0,0.0,0.0,0.0,0.0,0.0,0.0,0.0,0.0,0.0,0.0,0.0,0.0,0.0,0.0,0.0,-2.0898,-2.1878,-2.2607,-2.2861,-2.3037,-2.3135,-2.3135,-2.2754,-2.2334,-2.1914,0.0,0.0,0.0,0.0,0.0,0.0,0.0,0.0,0.0,0.0,0.0,0.0,0.0,0.0,0.0,0.0,0.0,0.0,0.0,0.0,0.0,0.0,0.0,0.0,0.0,0.0,0.0,0.0,0.0,0.0,0.0,0.0,0.0,0.0,0.0,0.0,0.0,0.0,0.0,0.0,0.0,0.0,0.0,0.0,0.0,0.0,0.0,0.0,0.0,0.0,0.0,0.0,0.0,0.0,0.0,0.0,0.0,0.0,0.0,0.0,0.0,0.0,0.0,0.0,0.0,0.0,0.0,0.0,0.0,0.0,0.0,0.0,0.0,0.0,0.0,0.0,0.0,0.0,0.0,0.0,0.0,0.0,0.0,0.0,0.0,0.0,0.0,0.0,0.0,0.0,0.0,0.0,0.0,0.0,0.0,0.0,0.0,0.0,0.0,0.0,0.0,0.0,-1.9616,-2.121,-2.2422,-2.251,-2.2852,-2.3096,-2.3135,-2.2754,-2.2334,-2.1914,0.0,0.0,0.0,0.0,0.0,0.0,0.0,0.0,0.0,0.0,0.0,0.0,0.0,0.0,0.0,0.0,0.0,0.0,0.0,0.0,0.0,0.0,0.0,0.0,0.0,0.0,0.0,0.0,0.0,0.0,0.0,0.0,0.0,0.0,0.0,0.0,0.0,0.0,0.0,0.0,0.0,0.0,0.0,0.0,0.0,0.0,0.0,0.0,0.0,0.0,0.0,0.0,0.0,0.0,0.0,0.0,0.0,0.0,0.0,0.0,-4.0088,0.0,0.0,0.0,0.0,0.0,0.0,0.0,0.0,0.0,0.0,0.0,0.0,0.0,0.0,0.0,0.0,0.0,0.0,0.0,0.0,0.0,0.0,0.0,0.0,0.0,0.0,0.0,0.0,0.0,0.0,0.0,0.0,0.0,0.0,0.0,0.0,0.0,0.0,0.0,0.0,0.0,-1.9416,-2.0709,-2.1768,-2.2441,-2.2598,-2.2783,-2.3105,-2.2754,-2.2334,-2.1914,-2.1475,0.0,0.0,0.0,0.0,0.0,0.0,0.0,0.0,0.0,0.0,0.0,0.0,0.0,0.0,0.0,0.0,0.0,0.0,0.0,0.0,0.0,0.0,0.0,0.0,0.0,0.0,0.0,0.0,0.0,0.0,0.0,0.0,0.0,0.0,0.0,0.0,0.0,0.0,0.0,0.0,0.0,0.0,0.0,0.0,0.0,0.0,0.0,0.0,0.0,0.0,0.0,0.0,0.0,0.0,0.0,0.0,0.0,0.0,0.0,0.0,-3.9059,0.0,0.0,0.0,0.0,0.0,0.0,0.0,0.0,0.0,0.0,0.0,0.0,0.0,0.0,0.0,0.0,0.0,0.0,0.0,0.0,0.0,0.0,0.0,0.0,0.0,0.0,0.0,0.0,0.0,0.0,0.0,0.0,0.0,0.0,0.0,0.0,0.0,0.0,0.0,0.0,-1.8408,-2.0102,-2.1406,-2.1855,-2.209,-2.2305,-2.2519,-2.2334,-2.2031,-2.1602,-2.1357,0.0,0.0,0.0,0.0,0.0,0.0,0.0,0.0,0.0,0.0,0.0,0.0,0.0,0.0,0.0,0.0,0.0,0.0,0.0,0.0,0.0,0.0,0.0,0.0,0.0,0.0,0.0,0.0,0.0,0.0,0.0,0.0,0.0,0.0,0.0,0.0,0.0,0.0,0.0,0.0,0.0,0.0,0.0,0.0,0.0,0.0,0.0,0.0,0.0,0.0,0.0,0.0,0.0,0.0,0.0,-4.5629,-4.5254,-4.4111,-4.2393,-4.2008,-4.0109,-3.7211,0.0,0.0,0.0,0.0,0.0,0.0,0.0,0.0,0.0,0.0,0.0,0.0,0.0,0.0,0.0,0.0,0.0,0.0,0.0,0.0,0.0,0.0,0.0,0.0,0.0,-2.0845,-2.13,0.0,0.0,0.0,0.0,0.0,0.0,0.0,0.0,0.0,0.0,0.0,0.0,-1.7577,-1.9657,-2.1143,-2.123,-2.1553,-2.1807,-2.1875,-2.1885,-2.1699,-2.126,-2.123,-2.1035,0.0,0.0,0.0,0.0,0.0,0.0,0.0,0.0,0.0,0.0,0.0,0.0,0.0,0.0,0.0,0.0,0.0,0.0,0.0,0.0,0.0,0.0,0.0,0.0,0.0,0.0,0.0,0.0,0.0,0.0,0.0,0.0,-4.2598,-4.4282,0.0,0.0,0.0,0.0,0.0,0.0,0.0,0.0,0.0,0.0,0.0,0.0,0.0,0.0,-4.7017,-4.7138,-4.7517,-4.8163,-4.8156,-4.7734,-4.695,-4.6771,-4.5315,-4.2878,-4.2181,0.0,-3.7578,-3.5569,0.0,0.0,0.0,0.0,0.0,0.0,0.0,0.0,0.0,0.0,0.0,0.0,0.0,0.0,0.0,0.0,0.0,0.0,0.0,0.0,0.0,0.0,-2.2862,-2.2687,-2.2775,-2.2843,0.0,-2.0392,-1.8308,-1.7869,0.0,0.0,0.0,0.0,0.0,0.0,0.0,0.0,-1.8638,-1.9891,-2.0801,-2.1191,-2.1289,-2.1475,-2.1855,-2.1885,-2.1699,-2.126,-2.123,-2.1035,-2.0586,-2.0566,0.0,0.0,0.0,0.0,0.0,0.0,0.0,0.0,0.0,0.0,0.0,0.0,0.0,0.0,0.0,0.0,0.0,0.0,0.0,0.0,0.0,0.0,0.0,0.0,0.0,0.0,0.0,0.0,0.0,-4.2248,-4.3083,-4.493,-4.3366,-4.2411,0.0,0.0,0.0,0.0,0.0,0.0,0.0,0.0,0.0,-4.7404,-4.7924,-4.861,-4.9432,-4.9511,-4.9407,-4.9125,-4.8884,-4.8183,-4.7068,-4.6438,-4.4986,-4.2987,-4.2323,-4.0425,-3.7658,-3.5736,-3.3436,-3.0821,0.0,0.0,0.0,0.0,0.0,0.0,-2.7197,0.0,0.0,0.0,0.0,0.0,0.0,0.0,0.0,0.0,0.0,0.0,0.0,0.0,0.0,-2.3135,-2.3135,-2.3135,-2.3135,-2.1853,-2.0503,0.0,-1.8532,-1.7482,-1.706,0.0,0.0,0.0,0.0,0.0,-1.8957,-1.9923,-2.0635,-2.084,-2.0859,-2.0937,-2.1123,-2.1143,-2.1064,-2.0869,-2.0859,-2.0771,-2.0576,-2.0566,-2.0566,0.0,0.0,0.0,0.0,0.0,0.0,0.0,0.0,0.0,0.0,0.0,0.0,0.0,0.0,0.0,0.0,0.0,0.0,0.0,0.0,0.0,0.0,0.0,0.0,0.0,0.0,0.0,0.0,-4.2816,-4.3419,-4.5066,-4.4029,-4.3245,0.0,0.0,0.0,0.0,0.0,0.0,-4.655,-4.742,-4.836,-4.9332,-4.9985,-5.0585,-5.1196,-5.1174,-5.0734,-4.9926,-4.9525,-4.8739,-4.7608,-4.6416,-4.4895,-4.327,-4.2258,-4.0268,-3.769,-3.643,-3.4118,-3.1316,-3.0263,-2.8856,0.0,-2.7046,-2.7128,-2.7464,-2.8279,-2.8518,-2.8518,-2.8518,0.0,-2.6459,-2.5033,0.0,0.0,0.0,0.0,-2.3464,-2.3135,0.0,-2.2978,-2.2978,-2.2891,-2.2822,-2.2822,-2.2302,-2.1722,0.0,-1.9853,-1.8602,-1.8343,0.0,0.0,0.0,0.0,-1.9116,-1.9362,-2.0089,-2.0566,-2.0566,-2.0566,-2.0566,-2.0566,-2.0566,-2.0566,-2.0566,-2.0566,-2.0566,-2.0566,-2.0566,-2.0566,-2.0566,0.0,0.0,0.0,0.0,0.0,0.0,0.0,0.0,0.0,0.0,0.0,0.0,0.0,0.0,0.0,0.0,0.0,0.0,0.0,0.0,0.0,0.0,0.0,0.0,0.0,0.0,0.0,0.0,0.0,-4.4289,-4.3788,0.0,0.0,0.0,0.0,-4.4498,-4.5479,-4.6694,-4.8271,-4.9315,-5.025,-5.1132,-5.1146,-5.1162,-5.1201,-5.107,-5.095,-5.0831,-5.0429,-4.9947,-4.9324,-4.7615,-4.5867,-4.4005,-4.1977,-3.9831,-3.7806,-3.769,-3.5652,-3.2437,-3.1316,-3.0366,-2.9534,-2.8426,-2.8688,-2.9624,-2.9714,-2.9702,-2.9702,-2.9702,-2.8684,-2.7203,-2.6052,-2.5652,0.0,0.0,-2.4462,-2.4457,-2.3387,-2.2842,-2.2549,-2.2549,-2.2236,-2.1953,-2.1953,-2.0959,-2.0503,0.0,-2.138,-2.0604,-1.9216,0.0,-1.8877,-1.8877,-1.8957,-1.9362,-2.0401,-2.0566,-2.0566,-2.0566,-2.0566,-2.0566,-2.0566,-2.0566,-2.0566,-2.0566,-2.0566,-2.0566,-2.0566,-2.0566,-2.0566,-2.0566,-2.0566,0.0,0.0,0.0,0.0,0.0,0.0,0.0,0.0,0.0,0.0,0.0,0.0,0.0,0.0,0.0,0.0,0.0,0.0,0.0,0.0,0.0,0.0,0.0,0.0,0.0,0.0,0.0,0.0,-4.4475,-4.4365,0.0,-4.4599,-4.4669,-4.4933,-4.5557,-4.7018,-4.8379,-4.9531,-5.0332,-5.1437,-5.2863,-5.2792,-5.2962,-5.3441,-5.2855,-5.2086,-5.1137,-5.0274,-4.9332,-4.8271,-4.6489,-4.4831,-4.3333,-4.2228,-4.0215,-3.7822,-3.7822,-3.573,-3.2593,-3.2195,-3.1079,-2.9792,-2.9365,-2.9456,-2.9792,-2.9792,-2.9792,-2.9651,-2.8533,-2.7584,-2.6606,-2.5486,-2.5172,-2.4935,-2.3896,-2.4175,-2.4546,-2.3495,-2.3627,-2.3826,-2.3186,-2.291,-2.2646,-2.204,-2.1534,-2.1272,-2.1432,-2.0661,-2.0086,-2.0358,-2.0191,-2.0001,-2.0001,-2.0001,-2.0167,-2.0557,-2.0566,-2.0566,-2.0566,-2.0566,-2.0566,-2.0566,-2.0566,-2.0566,-2.0566,-2.0566,-2.0566,-2.0566,-2.0566,-2.0566,-2.0566,-2.0566,-2.0566,0.0,0.0,0.0,0.0,0.0,0.0,0.0,0.0,0.0,0.0,0.0,0.0,0.0,0.0,0.0,0.0,0.0,0.0,0.0,0.0,0.0,0.0,0.0,0.0,0.0,0.0,-4.3695,-4.4187,-4.4579,-4.5019,-4.5553,-4.5952,-4.641,-4.6995,-4.8475,-4.9707,-5.0566,-5.1265,-5.2308,-5.3757,-5.3633,-5.3644,-5.3809,-5.3207,-5.2088,-5.0479,-4.9576,-4.851,-4.7239,-4.5231,-4.3846,-4.2926,-4.1868,-4.0048,-3.7822,-3.7822,-3.5934,-3.3101,-3.3101,-3.1901,-3.0279,-3.0279,-2.9948,-2.9478,-2.9289,-2.9227,-2.8999,-2.75,-2.7119,-2.704,-2.5747,-2.5727,-2.5896,-2.4714,-2.4826,-2.5149,-2.4108,-2.4235,-2.4349,-2.3329,-2.2977,-2.2635,-2.1668,-2.1435,-2.1357,-2.1064,-2.0453,-2.0258,-2.0866,-2.0762,-2.0566,-2.0566,-2.0566,-2.0566,-2.0566,-2.0566,-2.0566,-2.0566,-2.0566,-2.0566,-2.0566,-2.0566,-2.0566,-2.0566,-2.0566,-2.0566,-2.0566,-2.0566,-2.0566,-2.0566,-2.0566,-2.0566,-2.0566,0.0,0.0,0.0,0.0,0.0,0.0,0.0,0.0,0.0,0.0,0.0,0.0,0.0,0.0,0.0,0.0,0.0,0.0,0.0,0.0,0.0,0.0,0.0,-4.116,-4.2591,-4.3661,-4.3459,-4.4426,-4.5681,-4.7249,-4.6811,-4.7129,-4.8808,-4.9746,-5.0586,-5.1386,-5.2108,-5.2899,-5.3757,-5.3499,-5.2957,-5.2104,-5.1913,-5.0828,-4.8895,-4.8412,-4.7596,-4.635,-4.4047,-4.2995,-4.2873,-4.0951,-3.9279,-3.7806,-3.7822,-3.6353,-3.4081,-3.3998,-3.2862,-3.114,-3.1127,-3.0206,-2.8825,-2.8298,-2.8097,-2.7925,-2.6863,-2.7578,-2.8512,-2.6995,-2.7578,-2.85,-2.6908,-2.6463,-2.6212,-2.5092,-2.4513,-2.4015,-2.3009,-2.2439,-2.1811,-2.0857,-2.0722,-2.0722,-2.0722,-2.0987,-2.1074,-2.0635,-2.0566,-2.0566,-2.0566,-2.0566,0.0,-2.0566,-2.0644,-2.0644,-2.0566,-2.0644,-2.0644,-2.0566,-2.0566,-2.0566,-2.0566,-2.0566,-2.0566,-2.0566,-2.0566,-2.0566,-2.0566,-2.0566,-2.0566,-2.0566,0.0,0.0,0.0,0.0,0.0,0.0,0.0,0.0,0.0,0.0,0.0,0.0,0.0,0.0,0.0,0.0,0.0,0.0,0.0,0.0,0.0,0.0,-4.2304,-4.2048,-4.3535,-4.4628,-4.4579,-4.5936,-4.7051,-4.7497,-4.8496,-4.9336,-4.9805,-5.0517,-5.1304,-5.2144,-5.2221,-5.2608,-5.3475,-5.2727,-5.2203,-5.1971,-5.0721,-4.9535,-4.845,-4.7133,-4.6042,-4.5142,-4.3498,-4.2524,-4.2068,-4.11,-3.9885,-3.858,-3.8035,-3.7068,-3.5728,-3.3988,-3.2263,-3.0533,-3.0098,-2.9215,-2.831,-2.816,-2.7846,-2.7507,-2.7207,-2.7117,-2.7105,-2.6661,-2.6793,-2.6881,-2.5709,-2.596,-2.6245,-2.5203,-2.5385,-2.5575,-2.4618,-2.4296,-2.3891,-2.2936,-2.2713,-2.2713,-2.2713,-2.2218,-2.1527,-2.0731,-2.0566,-2.0566,-2.0566,0.0,0.0,-2.0566,-2.1155,-2.1375,-2.0634,-2.1231,-2.1375,-2.0644,-2.0566,-2.0566,-2.0566,-2.0566,-2.0566,-2.0566,-2.0566,-2.0566,-2.0566,-2.0566,-2.0566,0.0,0.0,0.0,0.0,0.0,0.0,0.0,0.0,0.0,0.0,0.0,0.0,0.0,0.0,0.0,0.0,0.0,0.0,0.0,0.0,0.0,0.0,-4.317,-4.3872,-4.3872,-4.4524,-4.5137,-4.5508,-4.6758,-4.8027,-4.9082,-4.9743,-5.0402,-5.1105,-5.1157,-5.1388,-5.1895,-5.1707,-5.1838,-5.2337,-5.172,-5.1221,-5.0856,-4.9757,-4.8537,-4.7248,-4.6102,-4.509,-4.4141,-4.3157,-4.2382,0.0,-4.1178,-4.015,-3.8854,-3.8414,-3.7441,0.0,0.0,0.0,0.0,0.0,-2.8234,-2.772,-2.7494,-2.7205,-2.6929,-2.6929,-2.6879,-2.6766,-2.6596,-2.6697,-2.6684,-2.5877,-2.6025,-2.6383,-2.5804,-2.6094,-2.6245,-2.5229,-2.5004,-2.4707,-2.3745,-2.3514,-2.3514,-2.3514,0.0,0.0,-2.1897,-2.1451,-2.1298,-2.1745,-2.1821,-2.1821,0.0,-2.2264,-2.2403,-2.1897,-2.2328,-2.2403,-2.1821,-2.1821,0.0,0.0,0.0,-2.1821,-2.1821,-2.1821,0.0,0.0,0.0,-2.1821,0.0,0.0,0.0,0.0,-2.1263,-2.1191,0.0,0.0,0.0,0.0,0.0,0.0,0.0,0.0,0.0,0.0,0.0,0.0,0.0,0.0,0.0,0.0,-4.4422,-4.5978,-4.6173,-4.5742,-4.5702,-4.6462,-4.7399,-4.8864,-5.1149,-5.077,-5.0976,-5.2361,-5.1685,-5.1161,-5.1093,0.0,0.0,0.0,0.0,-5.0183,-4.9413,-4.8881,-4.7642,-4.5768,-4.5375,-4.4573,-4.3479,-4.2939,-4.2382,-4.1768,-4.1178,-4.0217,-3.9016,-3.8826,-3.7408,-3.5301,-3.4452,-3.3093,-3.1267,-2.8412,-2.7321,0.0,0.0,0.0,0.0,-2.6533,-2.6791,-2.7105,-2.6603,-2.6804,-2.708,-2.6603,-2.6533,-2.6533,-2.6533,-2.6533,-2.6314,-2.537,-2.5158,-2.4933,-2.4036,-2.3806,-2.3806,-2.3806,-2.3745,-2.3745,-2.3818,-2.2925,-2.2478,-2.3368,-2.3514,0.0,-2.3514,-2.3588,-2.3599,-2.3514,0.0,0.0,-2.3514,-2.3514,-2.3514,-2.3514,-2.3514,-2.3514,-2.3514,-2.3514,-2.3514,-2.3514,-2.3514,-2.3548,-2.3604,-2.3604,-2.3435,-2.3034,-2.1929,-2.1585,0.0,0.0,0.0,0.0,0.0,0.0,0.0,0.0,0.0,0.0,0.0,0.0,0.0,0.0,0.0,-4.4839,-4.557,-4.6387,-4.7806,-4.7996,-4.8016,-4.8078,-4.9414,-5.0544,-5.1031,-5.2202,-5.2748,-5.2368,-5.2064,-5.1624,-5.0965,-5.0805,0.0,-5.074,-5.0048,-4.9567,-4.9394,-4.7654,-4.6464,-4.5795,0.0,0.0,-4.3479,-4.2939,-4.2382,-4.1768,-4.1178,-4.0511,-3.9783,-3.8526,-3.6393,-3.3763,-3.2389,-3.131,-3.0338,-2.8371,-2.7641,-2.7507,-2.6752,-2.6533,-2.6533,-2.6533,-2.6596,-2.6672,-2.6559,-2.6596,0.0,-2.6559,-2.6533,-2.6533,-2.6533,-2.6533,-2.6465,-2.6245,-2.6233,-2.6164,-2.5943,-2.5943,-2.5943,-2.5943,-2.5288,-2.4992,-2.5791,-2.4397,-2.3294,-2.3441,-2.3514,-2.3514,-2.3514,-2.4192,-2.4409,-2.3588,-2.4264,-2.4409,-2.3588,-2.3514,-2.3514,-2.3514,-2.3514,-2.3514,-2.3514,-2.3514,-2.3514,-2.3514,-2.3514,-2.3716,-2.4108,-2.4108,-2.4491,-2.5192,-2.3615,-2.2565,0.0,0.0,0.0,0.0,0.0,0.0,0.0,0.0,0.0,0.0,0.0,-4.177,0.0,0.0,-4.4618,-4.6673,-4.7356,-4.8247,-4.9969,-4.9899,-4.9559,-4.9177,-5.0294,-5.1412,-5.2212,-5.304,-5.3495,-5.3508,-5.2566,-5.1831,-5.1426,-5.0971,-5.0491,-5.0048,-4.9625,-4.899,-4.8163,-4.6759,-4.5761,-4.5183,-4.4221,-4.3679,-4.3479,-4.3214,-4.2619,-4.1793,-4.149,-4.0891,-3.9935,-3.8083,-3.6064,-3.3944,-3.2467,-3.1235,-3.0133,-2.8812,-2.8051,-2.767,-2.7229,-2.685,-2.6533,-2.6533,-2.6533,-2.6533,-2.6533,-2.6533,-2.6533,-2.6533,-2.6533,-2.6533,-2.6533,-2.6533,-2.6533,-2.6533,-2.6533,-2.6533,-2.6533,-2.6533,-2.6533,-2.6533,-2.6094,-2.5873,-2.6383,-2.5652,-2.4981,-2.4981,-2.4981,-2.4981,-2.4981,-2.5441,-2.5581,-2.5052,-2.5429,-2.5581,-2.5052,-2.4981,-2.4981,-2.4981,-2.4981,-2.4981,-2.4981,-2.4981,-2.5111,-2.5373,-2.5373,-2.5635,-2.6232,-2.6232,-2.6323,-2.6516,-2.569,-2.4927,0.0,0.0,0.0,0.0,0.0,0.0,0.0,0.0,-4.0849,-4.1129,-4.1719,-4.269,-4.4254,-4.5353,-4.6577,-4.8316,-4.9336,-5.0414,-5.1952,-5.1472,-5.0786,-5.0273,-5.1035,-5.2105,-5.3409,-5.3727,-5.4,-5.4384,-5.3147,-5.2202,-5.1702,-5.1202,-5.0452,-4.9433,-4.924,-4.8394,-4.6801,-4.5984,-4.5195,-4.4474,-4.3823,-4.3497,-4.3497,-4.3497,-4.294,-4.1937,-4.1725,-4.0856,-3.9496,-3.7602,-3.5969,-3.4539,-3.3313,-3.1931,-3.0615,-2.9628,-2.8812,-2.8182,-2.7986,-2.755,-2.6973,-2.6782,-2.6714,-2.6714,-2.6521,-2.6533,-2.6533,-2.6533,-2.6533,-2.6533,-2.6533,-2.6533,-2.6533,-2.6533,-2.6533,-2.6533,-2.6533,-2.6533,-2.6533,-2.6533,-2.6533,-2.6533,-2.6533,-2.6533,-2.6533,-2.6533,-2.6533,-2.6533,-2.6533,-2.6533,-2.6533,-2.6533,-2.6533,-2.6533,-2.6533,-2.6634,-2.6684,-2.6684,-2.6716,-2.6779,-2.6779,-2.6779,-2.6942,-2.7268,-2.7394,-2.7657,-2.8109,-2.821,-2.8076,-2.7801,-2.7801,-2.7296,-3.6015,-3.6054,-3.6503,-3.8021,-3.7956,-3.8237,0.0,0.0,-4.1122,-4.2608,-4.2951,-4.3484,-4.5161,-4.618,-4.7566,-5.001,-5.1087,-5.1972,-5.2933,-5.241,-5.186,-5.1683,-5.2435,-5.3051,-5.3225,-5.4572,-5.486,-5.3474,-5.3896,-5.3222,-5.0952,-5.1433,-5.1048,-4.9452,-4.8644,-4.7626,-4.6383,-4.5274,-4.4495,-4.4058,-4.3679,-4.3497,-4.3497,-4.3497,-4.3178,-4.2519,-4.149,-3.9915,-3.8077,-3.7153,-3.5926,-3.4546,-3.3767,-3.3024,-3.2185,-3.0733,-3.0072,-2.9889,-2.9129,-2.8812,-2.862,-2.7802,-2.7537,-2.7417,-2.6714,-2.6533,-2.6533,-2.6533,-2.6533,-2.6533,-2.6533,-2.6533,-2.6533,-2.6533,-2.6533,-2.6533,-2.6533,-2.6533,-2.6533,-2.6533,-2.6533,-2.6533,-2.6533,-2.6533,-2.6533,-2.6533,-2.6533,-2.6533,-2.6533,-2.6533,-2.6533,-2.6533,-2.6533,-2.6533,-2.6533,-2.6917,-2.7193,-2.7193,-2.7657,-2.7921,-2.7921,-2.7921,-2.772,-2.7293,-2.7758,-2.8047,-2.8109,-2.8599,-2.9063,-2.9524,-2.9524,-2.8402,-3.6133,-3.6738,-3.7653,-3.821,-3.9268,-4.0485,-4.1656,-4.2054,-4.2486,-4.3612,-4.3824,-4.447,-4.6644,-4.7355,-4.8606,0.0,-5.201,-5.2395,-5.376,-5.2415,-5.1258,-5.1222,-5.1087,-5.1375,-5.2356,-5.3087,-5.3626,-5.3933,-5.3356,-5.2741,-5.2183,-5.1548,-5.0414,-4.8702,-4.8298,-4.73,-4.5611,-4.4927,-4.4419,-4.4016,-4.3679,-4.3497,-4.3497,-4.3497,-4.3032,-4.2121,-4.0938,-3.9691,-3.8531,-3.8236,-3.7203,-3.5795,-3.5068,-3.419,-3.3113,-3.2027,-3.1087,-3.0269,-2.9889,-2.9442,-2.8939,-2.8556,-2.8427,-2.8363,-2.8051,-2.792,-2.7855,-2.7351,-2.7229,-2.7095,-2.6589,-2.6533,-2.6533,-2.6533,-2.6533,-2.6533,-2.6533,-2.6533,-2.6533,-2.6533,-2.6533,-2.6533,-2.6533,-2.6533,-2.6533,-2.6533,-2.6533,-2.6647,-2.6904,-2.6942,-2.7067,-2.7381,-2.7419,-2.7293,-2.6967,-2.7444,-2.762,-2.7306,-2.7795,-2.8109,-2.8109,-2.8109,-2.8147,-2.8235,-2.8461,-2.875,-2.9089,-2.9315,-2.9553,-2.9792,-2.9792,-2.93,-3.6403,-3.7395,-3.8587,-3.8909,-4.0623,-4.2291,-4.2497,-4.3057,-4.3775,-4.452,-4.4662,-4.5297,-4.7375,-4.8144,-4.9413,-5.2356,-5.2722,-5.3068,-5.4318,-5.2491,-5.0952,-5.0721,-4.951,-4.9279,-5.0721,-5.1491,-5.2433,-5.3683,-5.3068,-5.2587,-5.251,-5.1798,-5.0375,-4.8182,-4.801,-4.7007,-4.4985,-4.4606,-4.4252,-4.3849,-4.3631,-4.3497,-4.3497,-4.3497,-4.2903,-4.175,-4.0955,-3.9958,-3.8988,-3.8988,-3.8253,-3.7004,-3.6289,-3.5277,-3.4184,-3.3451,-3.2084,-3.0644,-3.0644,-3.0208,-2.9628,-2.9442,-2.938,-2.9317,-2.9066,-2.9002,-2.8876,-2.8247,-2.8051,-2.792,-2.7351,-2.704,-2.685,-2.685,-2.6658,-2.6533,-2.6533,-2.6533,-2.6533,-2.6533,-2.6533,-2.6533,-2.6533,-2.6533,-2.6533,-2.6533,-2.6659,-2.6829,-2.7231,-2.7419,-2.7657,-2.8059,-2.8109,-2.7946,-2.7544,-2.8009,-2.816,-2.7758,-2.826,-2.8574,-2.8574,-2.8574,-2.8687,-2.8925,-2.9089,-2.9289,-2.9553,-2.9716,-2.9792,-2.9792,-2.9792,-2.9792,-3.6856,-3.7662,-3.8704,-4.0318,-4.1419,-4.2519,-4.4066,-4.4434,-4.4664,-4.5406,-4.5547,-4.5836,-4.6778,-4.8259,-4.9933,-5.1664,-5.3337,-5.4434,-5.4491,-5.2991,-5.1568,-5.0779,-4.8509,-4.7298,0.0,-5.0452,-5.1933,-5.1972,-5.351,-5.3356,-5.0894,-5.226,-5.1587,-4.8221,-4.7771,-4.6639,-4.4624,-4.4204,-4.3849,-4.3513,-4.3479,-4.3497,-4.3497,-4.3497,-4.2903,-4.181,-4.175,-4.0687,-3.8988,-3.8988,-3.8565,-3.7773,-3.706,-3.6281,-3.5531,-3.4807,-3.3203,-3.1467,-3.1467,-3.1467,-3.1278,-3.0524,-3.0269,-3.0072,-2.9254,-2.9002,-2.9002,-2.9002,-2.8939,-2.8939,-2.8939,-2.8298,-2.767,-2.767,-2.7095,-2.6533,-2.6533,-2.6533,-2.6533,-2.6533,-2.6533,-2.6533,-2.6533,-2.6533,-2.6533,-2.6533,-2.6917,-2.7268,-2.7281,-2.7745,-2.8084,-2.8109,-2.8109,-2.8097,-2.8084,-2.8586,-2.89,-2.8875,-2.9428,-2.9741,-2.9741,-2.9741,-2.9478,-2.8938,-2.9478,-2.9503,-2.895,-2.9515,-2.9792,-2.9792,-2.9792,-2.9792,-3.7676,-3.8921,-4.0352,-4.1992,-4.3055,-4.395,-4.4982,-4.5224,-4.5131,-4.4814,-4.4739,-4.4836,-4.5124,-4.6105,-4.7625,-4.9875,-5.1664,-5.2779,-5.2779,-5.2279,-5.1183,-4.9202,-4.8221,0.0,0.0,0.0,0.0,-5.0971,-5.1645,-5.1837,-5.151,-5.2029,-5.1298,-4.9029,-4.8592,-4.7699,-4.6202,-4.5271,-4.4633,-4.4287,-4.3754,-4.3497,-4.3497,-4.3142,-4.2541,-4.1768,-4.1402,-4.0659,-3.9715,-3.9715,-3.9563,-3.9276,-3.8531,-3.7484,-3.6339,-3.563,-3.429,-3.281,-3.2367,-3.191,-3.1467,-3.1161,-3.1087,-3.1029,-3.0777,-3.0644,-3.0524,-3.0011,-2.9889,-2.9752,-2.9129,-2.8812,-2.8556,-2.8556,-2.8363,-2.8182,-2.8182,-2.8182,-2.8182,-2.8182,-2.8182,-2.8182,-2.8182,-2.8182,-2.8302,-2.8771,-2.8265,-2.7959,-2.8335,-2.8875,-2.9227,-2.9227,-2.9227,-2.9076,-2.8687,-2.9176,-2.934,-2.895,-2.9478,-2.9792,-2.9792,-2.9792,-2.9691,-2.9503,-2.9691,-2.9691,-2.9503,-2.9691,-2.9792,-2.9792,-2.9792,-2.9792,-3.883,-4.0373,-4.1935,-4.3264,-4.424,-4.5017,-4.5486,-4.5355,-4.4893,-4.4047,-4.3624,-4.3412,-4.3412,-4.4124,-4.5528,-4.8086,-4.9663,-5.0875,-5.1779,-5.1395,-5.0625,-4.9586,-4.8933,-4.8682,0.0,0.0,0.0,-5.0548,-5.1241,-5.1568,-5.1491,-5.1741,-5.1144,-4.9452,-4.8881,-4.8105,-4.7013,-4.5979,-4.5189,-4.4709,-4.4176,-4.3773,-4.3497,-4.3142,-4.2675,-4.208,-4.149,-4.092,-4.0368,-4.0154,-4.007,-4.0003,-3.9276,-3.8404,-3.7503,-3.677,-3.5564,-3.4242,-3.3277,-3.2477,-3.1894,-3.1894,-3.1682,-3.1482,-3.1482,-3.1482,-3.1409,-3.0896,-3.0718,-3.0584,-3.0011,-2.969,-2.9442,-2.9442,-2.9254,-2.9002,-2.9002,-2.9002,-2.9002,-2.9002,-2.9002,-2.9002,-2.9002,-2.9002,-2.9279,-3.0159,-2.9615,-2.9262,-2.9894,-3.0407,-3.0771,-3.0771,-3.0495,-3.0126,-2.9742,-2.9796,-2.9628,-2.9264,-2.9591,-2.9792,-2.9792,-2.9792,-2.9792,-2.9792,-2.9792,-2.9792,-2.9792,-2.9792,-2.9792,-2.9792,-2.9792,-2.9792,-4.0358,-4.1977,-4.3355,-4.4162,-4.4989,-4.5586,-4.5528,-4.4893,-4.4047,-4.3143,-4.2335,-4.1777,0.0,0.0,-4.3893,-4.6374,-4.7548,-4.9029,-5.1491,-5.0548,-5.0164,0.0,0.0,0.0,0.0,0.0,0.0,-5.076,0.0,-5.2452,-5.0894,-5.1587,-5.126,-4.9586,-4.8808,-4.8022,-4.7145,-4.6338,-4.5535,-4.4709,-4.4709,-4.4287,-4.3497,-4.3497,-4.3214,-4.2655,-4.208,-4.149,-4.0903,-4.0368,-4.0121,-4.0053,-3.9309,-3.9022,-3.8903,-3.821,-3.7032,-3.563,-3.4277,-3.3298,-3.2586,-3.2586,-3.212,-3.1482,-3.1482,-3.1482,-3.1482,-3.1482,-3.1482,-3.1482,-3.1482,-3.0896,-3.0329,-3.0329,-2.9752,-2.9129,-2.9129,-2.9129,-2.9129,-2.9129,-2.9129,-2.9142,-2.917,-2.917,-2.9586,-3.0793,-3.0973,-3.1195,-3.1737,-3.2318,-3.2593,-3.2593,-3.1815,-3.1254,-3.118,-3.0419,-2.9869,-2.9792,-2.9792,-2.9792,-2.9792,-2.9792,-2.9792,-2.9792,-2.9792,-2.9792,-2.9792,-2.9792,-2.9792,-2.9792,-2.9792,-2.9792,-4.2187,-4.3233,-4.4201,-4.5047,-4.5432,-4.5432,-4.4778,-4.4451,-4.3701,-4.1604,-4.1508,-4.1431,-4.0162,-4.1662,0.0,-4.4759,-4.7278,0.0,-5.0818,-5.1702,0.0,-5.1933,-5.2106,-5.2068,-5.1645,-5.2568,0.0,0.0,-5.2356,-5.2337,-5.2549,-5.3376,-5.3049,-5.1318,-5.0558,-4.9759,-4.8881,-4.7488,-4.6104,-4.4709,-4.4709,-4.4287,-4.3497,-4.3497,-4.3214,-4.2711,-4.2537,-4.2121,-4.1534,-4.092,-4.0703,-4.0638,-4.005,-3.9462,-3.8971,-3.8785,-3.813,-3.7312,-3.6917,-3.4961,-3.2586,-3.2586,-3.212,-3.1482,-3.1482,-3.1482,-3.1482,-3.1482,-3.1482,-3.1482,-3.1482,-3.1351,-3.1219,-3.1219,-3.1029,-3.0837,-3.0837,-3.0837,-3.0837,-3.0837,-3.0837,-3.1043,-3.1527,-3.1615,-3.2056,-3.3348,-3.3539,-3.3274,-3.25,-3.251,-3.2593,-3.2593,-3.2393,-3.196,-3.1241,-3.097,-3.0558,-2.9856,-2.9792,-2.9792,-2.9792,-2.9792,-2.9792,-2.9792,-2.9792,-2.9792,-2.9792,-2.9792,-2.9792,-2.9792,-2.9792,-2.9792,-4.3951,-4.5066,-4.6009,-4.6144,-4.5874,-4.5355,-4.4489,-4.3739,-4.2681,-4.0873,-4.0604,-4.0412,-3.9469,-4.0758,-4.2354,0.0,0.0,0.0,-5.0414,-5.151,-5.2472,0.0,-5.3683,0.0,-5.3587,-5.4126,-5.4434,0.0,-5.353,-5.3087,-5.3203,-5.3664,-5.3217,-5.1686,-5.1106,-5.0202,-4.8982,-4.8071,-4.6838,-4.5241,-4.5241,-4.4617,-4.3497,-4.3497,-4.3339,-4.3014,0.0,-4.2519,-4.2121,-4.1268,-4.0903,-4.0874,-4.0336,-3.9834,-3.9462,-3.9462,-3.9005,-3.8379,-3.8379,-3.6637,-3.4409,-3.4053,-3.3076,-3.1951,-3.1951,-3.1739,-3.1482,-3.1482,-3.1482,-3.1482,-3.1482,-3.1482,-3.1482,-3.1482,-3.1482,-3.1482,-3.1482,-3.1764,-3.2048,-3.2332,-3.2392,-3.2512,-3.2886,-3.2946,-3.329,-3.4322,-3.4472,-3.4362,-3.3901,-3.3905,-3.3905,-3.3905,-3.3463,-3.282,-3.1888,-3.1462,-3.0833,-2.9869,-2.9792,-2.9792,-2.9792,-2.9792,-2.9792,-2.9792,-2.9792,-2.9792,-2.9792,-2.9792,-2.9792,-2.9792,-2.9792,-2.9534,-4.5701,-4.699,-4.7913,-4.7105,-4.624,-4.5336,-4.4355,-4.2931,-4.1527,-4.0527,-3.9873,-3.9431,-3.9315,-4.0142,-4.1335,-4.2854,0.0,-4.6894,-5.0067,-5.0721,-5.201,-5.5164,-5.5011,-5.4934,-5.5626,-5.5068,-5.4953,-5.5645,-5.5049,-5.4337,-5.3568,-5.353,-5.2861,-5.1459,-5.0951,-4.9936,-4.8324,-4.8306,-4.7553,-4.6067,-4.5957,-4.5112,-4.3644,-4.3534,-4.3497,-4.3479,0.0,0.0,-4.2732,-4.1621,-4.1087,-4.0949,-4.0417,-4.0171,-4.007,-4.007,-3.9681,-3.914,-3.914,-3.8237,-3.6919,-3.5993,-3.4446,-3.2858,-3.2765,-3.2318,-3.1902,-3.1712,-3.17,-3.1745,-3.1554,-3.1482,-3.1482,-3.1482,-3.1482,-3.1497,-3.1586,-3.2183,-3.2811,-3.338,-3.3499,-3.3529,-3.3604,-3.3619,-3.3844,-3.4517,-3.4607,-3.4831,-3.5429,-3.5504,-3.5504,-3.5504,-3.4691,-3.3808,-3.289,-3.2033,-3.1119,-3.0075,-3.0011,-2.9934,-2.9792,-2.9792,-2.9792,-2.9792,-2.9792,-2.9792,-2.9792,-2.9792,-2.9792,-2.9792,-2.9792,-2.9197,-4.7451,-4.7875,-4.7913,-4.7105,-4.624,-4.5201,-4.3662,-4.2527,-4.1354,-3.9815,-3.9931,-4.0085,-3.9411,-4.1143,-4.2758,-4.3047,-4.5105,-4.7375,-4.9356,-5.0818,-5.2452,0.0,-5.5164,-5.5549,-5.5684,-5.5568,0.0,0.0,0.0,0.0,-5.5261,-5.5261,-5.423,-5.1945,-5.081,-4.9615,-4.8306,-4.8306,-4.7847,-4.6893,-4.6214,-4.5406,-4.447,-4.3791,-4.3497,-4.3479,0.0,0.0,-4.3321,-4.2675,-4.208,-4.1578,-4.0995,-4.0497,-4.007,-4.007,-4.0003,-3.9884,-3.9884,-3.9344,-3.8286,-3.634,-3.5078,-3.4208,-3.3618,-3.3736,-3.3871,-3.2741,-3.2823,-3.3075,-3.1832,-3.1482,-3.1482,-3.1482,-3.1482,-3.1616,-3.2228,-3.2856,-3.3365,-3.3469,-3.3499,-3.3664,-3.4203,-3.4307,-3.4532,-3.522,-3.5325,-3.537,-3.5489,-3.5504,-3.5504,-3.5504,-3.5359,-3.4839,-3.3808,-3.3602,-3.282,-3.1044,-3.097,-3.062,-2.9869,-2.9792,-2.9792,-2.9792,-2.9792,-2.9792,-2.9792,-2.9792,-2.9792,-2.9792,-2.9792,-2.9197,-4.9221,-4.976,-4.9779,-4.8529,-4.6894,-4.5163,-4.347,-4.2066,-4.0893,-4.0085,-4.0219,-4.0373,-3.9988,-4.1662,-4.3104,-4.3104,-4.524,-4.749,-4.9163,-5.0837,-5.2549,-5.428,-5.5203,-5.5703,-5.5703,-5.5703,0.0,0.0,0.0,0.0,-5.5703,-5.4489,-5.305,-5.1431,-4.9955,-4.8882,-4.8306,-4.8306,-4.77,-4.6471,-4.6085,-4.5259,-4.4066,-4.3663,-4.3497,-4.3497,0.0,0.0,-4.3444,-4.2939,-4.2342,-4.175,-4.1133,-4.0577,-4.007,-4.007,-4.007,-4.007,-4.007,-3.9851,-3.931,-3.7885,-3.6422,-3.5226,-3.5242,-3.502,-3.4654,-3.4365,-3.425,-3.4058,-3.3349,-3.2581,-3.2048,-3.2048,-3.2048,-3.2317,-3.332,-3.3784,-3.4113,-3.4472,-3.4532,-3.4637,-3.4951,-3.5011,-3.513,-3.5459,-3.5504,-3.5504,-3.5504,-3.5504,-3.5504,-3.5504,-3.5504,-3.5067,-3.4095,-3.4027,-3.338,-3.2033,-3.1462,-3.097,-3.0558,-3.0075,-2.9792,-2.9792,-2.9792,-2.9792,-2.9792,-2.9792,-2.9792,-2.9792,-2.9792,-2.887,-5.0354,-5.1355,-5.1741,-4.9875,-4.774,-4.5605,-4.3566,-4.1893,-4.0777,-4.0777,-4.0777,-4.0835,-4.1008,-4.2316,-4.3355,-4.3355,-4.5182,-4.7144,-4.8644,-5.0471,-5.2222,-5.376,-5.4972,0.0,-5.5703,-5.5703,0.0,0.0,0.0,0.0,-5.5434,-5.3518,-5.1887,-5.0835,-4.9427,-4.8567,-4.8306,-4.8306,-4.759,-4.6159,-4.5975,-4.5149,-4.3736,-4.3571,-4.3497,-4.3497,0.0,0.0,0.0,-4.3069,-4.2501,-4.1937,-4.1313,-4.075,-4.0254,-4.0171,-4.007,-4.007,-4.007,-4.007,-3.9986,-3.9411,-3.7936,-3.6489,-3.6904,-3.6368,-3.5675,-3.5942,-3.5586,-3.5091,-3.4794,-3.3737,-3.2721,-3.2721,-3.2826,-3.3215,-3.4247,-3.4592,-3.4861,-3.54,-3.5504,-3.5504,-3.5504,-3.5504,-3.5504,-3.5504,-3.5504,-3.5504,-3.5504,-3.5504,-3.5504,-3.5504,-3.5504,-3.5213,-3.4394,-3.4312,-3.3891,-3.2961,-3.2033,-3.1389,-3.118,-3.0279,-2.9792,-2.9792,-2.9792,-2.9792,-2.9792,-2.9792,-2.9792,-2.9792,-2.9534,-2.8371,-5.0004,-5.1593,-5.2491,-5.001,-4.8625,-4.7028,-4.3835,-4.2354,-4.1681,-4.1681,-4.1681,-4.1931,-4.272,-4.3585,-4.4182,-4.4182,-4.5047,-4.6047,-4.7009,-4.924,-5.1144,-5.2029,0.0,0.0,-5.5703,-5.5703,0.0,0.0,0.0,0.0,0.0,-5.3981,-5.2767,-5.0854,-5.0254,-4.9416,-4.8306,-4.8306,-4.7865,-4.7003,-4.625,-4.5443,-4.4562,-4.3828,-4.3497,-4.3497,0.0,0.0,0.0,-4.3444,-4.3087,-4.2577,-4.1937,-4.1358,-4.078,-4.0286,-4.007,-4.007,-4.007,-4.007,-4.007,-4.0003,-3.9428,-3.8569,-3.7978,-3.8198,-3.8321,-3.7068,-3.6669,-3.6326,-3.5018,-3.4088,-3.341,-3.341,-3.3858,-3.4322,-3.4442,-3.4966,-3.5429,-3.5489,-3.5504,-3.5504,-3.5504,-3.5504,-3.5504,-3.5504,-3.5504,-3.5504,-3.5504,-3.5504,-3.5504,-3.5504,-3.5504,-3.5439,-3.5359,-3.5359,-3.492,-3.3945,-3.2961,-3.2105,-3.1254,-3.0279,-2.9792,-2.9792,-2.9792,-2.9792,-2.9792,-2.9792,-2.9792,-2.9792,-2.8767,-2.7614,-4.9466,-5.0753,-5.1275,-4.9257,-4.7869,-4.6392,-4.4058,-4.304,-4.2585,-4.2585,-4.2585,-4.2701,-4.3047,-4.3758,-4.4297,-4.4297,-4.5028,-4.5893,-4.6778,-4.8182,-4.9817,-5.1683,-5.326,0.0,0.0,0.0,0.0,0.0,0.0,0.0,0.0,-5.2342,-5.1396,-5.0051,-4.9365,-4.879,-4.8306,-4.8306,-4.7664,-4.6379,-4.6049,-4.5223,-4.3975,-4.3644,-4.3497,-4.3497,0.0,0.0,0.0,-4.3497,-4.3178,-4.2655,-4.2038,-4.1446,-4.0827,-4.0286,-4.007,-4.007,-4.007,-4.007,-4.007,-4.007,-3.9884,-3.9597,-3.9292,-3.9106,-3.8973,-3.8807,-3.8424,-3.7855,-3.6826,-3.5367,-3.4083,-3.4083,-3.4292,-3.4592,-3.4996,-3.531,-3.5504,-3.5504,-3.5504,-3.5504,-3.5504,-3.5504,-3.5504,-3.5504,-3.5504,-3.5504,-3.5504,-3.5504,-3.5504,-3.5504,-3.5504,-3.5504,-3.5504,-3.5504,-3.5067,-3.4095,-3.3101,-3.2177,-3.1254,-3.0279,-2.9792,-2.9792,-2.9792,-2.9792,-2.9792,-2.9792,-2.9792,-2.9792,-2.8597,-2.7522,-4.8079,-4.939,-5.0052,-4.8371,-4.7296,-4.6183,-4.4236,-4.3618,-4.3451,-4.3451,-4.3451,-4.3528,-4.3797,-4.4297,-4.4682,-4.4682,-4.5201,-4.5797,-4.6432,-4.7432,-4.8779,-5.0567,0.0,-5.3126,0.0,0.0,0.0,0.0,0.0,0.0,0.0,-5.0957,-5.0126,-4.9522,-4.8847,-4.831,-4.7957,-4.7957,-4.715,-4.5553,-4.5553,-4.4819,-4.3497,-4.3497,-4.3497,0.0,0.0,0.0,0.0,-4.3497,-4.3286,-4.2846,-4.2103,-4.1534,-4.1087,-4.0368,-4.007,-4.007,-4.007,-4.007,-4.007,-4.007,-4.007,-4.007,-4.007,-3.9715,-3.9411,-3.9935,-3.9542,-3.869,-3.7674,-3.6274,-3.5057,-3.4835,-3.4786,-3.4921,-3.54,-3.5504,-3.5504,-3.5504,-3.5504,-3.5504,-3.5504,-3.5504,-3.5504,-3.5504,-3.5504,-3.5504,-3.5504,-3.5504,-3.5504,-3.5504,-3.5504,-3.5504,-3.5504,-3.5504,-3.5067,-3.4095,-3.3101,-3.2177,-3.1254,-3.0279,-2.9792,-2.9792,-2.9792,-2.9792,-2.9792,-2.9792,-2.9624,-2.9275,-2.8187,-2.6871,-4.5612,-4.7465,-4.922,-4.7521,-4.7346,-4.6911,-4.4369,-4.4059,-4.4297,-4.4297,-4.4297,-4.4547,-4.5413,-4.5566,-4.5586,-4.5586,-4.5586,-4.5586,-4.5605,-4.7048,-4.8105,0.0,0.0,-5.1375,0.0,0.0,0.0,0.0,0.0,0.0,0.0,0.0,-4.9522,-4.9504,-4.9108,-4.8303,-4.7131,-4.7131,-4.6324,-4.4727,-4.4727,-4.4287,-4.3497,-4.3497,0.0,0.0,0.0,0.0,0.0,-4.3497,-4.3497,-4.3356,-4.2226,-4.181,-4.1664,-4.0514,-4.007,-4.007,-4.007,-4.007,-4.007,-4.007,-4.007,-4.007,-4.007,-4.007,-4.007,-4.007,-3.9542,-3.8564,-3.7008,-3.6615,-3.6368,-3.5653,-3.5489,-3.5489,-3.5504,-3.5504,-3.5504,-3.5504,-3.5504,-3.5504,-3.5504,-3.5504,-3.5504,-3.5504,-3.5504,-3.5504,-3.5504,-3.5504,-3.5504,-3.5504,-3.5504,-3.5504,-3.5504,-3.5504,-3.5067,-3.4095,-3.3101,-3.2177,-3.1254,-3.0279,-2.9792,-2.9792,-2.9792,-2.9792,-2.9792,-2.9792,-2.9197,-2.8096,-2.7046,-2.5305,-4.3999,-4.5549,-4.6799,-4.5741,-4.5921,-4.6001,-4.4656,-4.4781,-4.5127,-4.4881,-4.5035,-4.5186,-4.5245,-4.5457,-4.5586,-4.5586,-4.5586,-4.5586,0.0,0.0,0.0,-4.8779,-5.101,0.0,0.0,0.0,0.0,0.0,0.0,0.0,0.0,0.0,-4.9202,-4.9475,-4.8308,-4.7482,-4.7113,-4.6562,-4.5755,-4.4709,-4.4709,-4.4287,-4.3497,-4.3497,0.0,0.0,0.0,0.0,0.0,-4.3497,-4.3497,-4.3444,-4.2714,-4.2162,-4.1725,-4.092,-4.04,-4.007,-4.007,-4.007,-4.007,-4.007,-4.007,-4.007,-4.007,-4.007,-4.007,-4.007,-3.9542,-3.8799,-3.827,-3.7774,-3.7338,-3.7115,-3.7055,-3.6951,-3.6337,-3.6275,-3.6117,-3.5619,-3.5504,-3.5504,-3.5504,-3.5504,-3.5504,-3.5504,-3.5504,-3.5504,-3.5504,-3.5504,-3.5504,-3.5504,-3.5504,-3.5504,-3.5504,-3.5504,-3.4773,-3.3171,-3.2749,-3.1901,-3.0279,-2.9934,-2.9792,-2.9792,-2.9792,-2.9792,-2.9792,-2.9792,-2.887,-2.6964,-2.588,-2.4553,-4.2543,-4.3773,-4.4874,-4.4378,-4.4692,-4.4984,-4.4505,-4.4811,-4.5161,-4.4943,-4.518,-4.5342,-4.5159,-4.5263,-4.5438,-4.5586,-4.54,-4.5263,0.0,0.0,0.0,-4.828,0.0,0.0,0.0,0.0,0.0,0.0,0.0,0.0,0.0,0.0,-4.8095,-4.8375,-4.7529,-4.6819,-4.6214,-4.57,-4.5039,-4.425,-4.425,-4.3975,-4.3497,0.0,0.0,0.0,0.0,0.0,0.0,-4.3497,-4.3497,-4.3444,-4.2902,-4.2342,-4.1725,-4.1133,-4.0577,-4.007,-4.007,-4.007,-4.007,-4.007,-4.007,-4.007,-4.007,-4.007,-4.007,-4.007,-3.9731,-3.9262,-3.8962,-3.858,-3.8133,-3.7879,-3.7822,-3.7573,-3.6783,-3.6615,-3.6384,-3.5604,-3.5504,-3.5504,-3.5504,-3.5504,-3.5504,-3.5504,-3.5504,-3.5504,-3.5504,-3.5504,-3.5504,-3.5504,-3.5504,-3.5504,-3.5504,-3.5504,-3.4706,-3.2749,-3.2593,-3.1756,-2.9869,-2.9792,-2.9792,-2.9792,-2.9792,-2.9792,-2.9792,-2.9365,-2.8199,-2.6483,-2.5294,-2.4211,0.0,-4.2323,-4.3497,-4.3497,-4.374,-4.4016,-4.4016,-4.4318,0.0,-4.4553,-4.4825,-4.5052,-4.503,-4.5052,-4.518,-4.5495,-4.5011,-4.4726,0.0,-4.5533,0.0,0.0,0.0,0.0,0.0,0.0,0.0,0.0,0.0,0.0,0.0,0.0,0.0,-4.6382,-4.6742,-4.6232,-4.4727,-4.4654,-4.425,-4.3497,-4.3497,-4.3497,-4.3497,0.0,0.0,0.0,0.0,0.0,0.0,-4.3497,-4.3497,-4.3444,-4.2939,-4.2382,-4.1707,-4.1178,-4.0577,-4.007,-4.007,-4.007,-4.007,-4.007,-4.007,-4.007,-4.007,-4.007,-4.007,-4.007,-4.007,-3.9952,-3.9193,-3.8978,-3.8799,-3.8149,-3.7978,-3.7748,-3.6843,-3.6676,-3.6446,-3.5668,-3.5504,-3.5504,-3.5504,-3.5504,-3.5504,-3.5504,-3.5504,-3.5504,-3.5504,-3.5504,-3.5504,-3.5504,-3.5504,-3.5504,-3.5504,-3.5504,-3.4706,-3.2749,-3.2593,-3.1756,-2.9869,-2.9792,-2.9792,-2.9792,-2.9792,-2.9792,-2.9792,-2.8688,-2.7522,-2.6483,-2.5294,-2.4211,-4.2066,0.0,-4.3497,-4.3497,-4.374,-4.4016,0.0,-4.4318,-4.4501,-4.4204,-4.4428,-4.4631,-4.4318,-4.4508,-4.4732,-4.4806,-4.4707,-4.465,-4.4726,0.0,0.0,-4.6127,0.0,0.0,0.0,0.0,0.0,0.0,0.0,0.0,0.0,0.0,0.0,-4.5142,-4.5185,-4.5094,-4.4709,-4.4085,-4.3681,-4.3497,-4.3497,-4.3497,-4.3497,0.0,0.0,0.0,0.0,0.0,0.0,-4.3497,-4.3497,-4.3497,-4.3375,-4.2696,-4.1793,-4.1621,-4.0938,-4.007,-4.007,-4.007,-4.007,-4.007,-4.007,-4.007,-4.007,-4.007,-4.007,-4.007,-4.007,-4.007,-3.985,-3.9833,-3.9782,-3.9627,-3.9558,-3.9172,-3.779,-3.7515,-3.7115,-3.5733,-3.5504,-3.5504,-3.5504,-3.5504,-3.5504,-3.5504,-3.5504,-3.5504,-3.5504,-3.5504,-3.5504,-3.5504,-3.5504,-3.5504,-3.5504,-3.5504,-3.4706,-3.2749,-3.2593,-3.1756,-2.9869,-2.9792,-2.9792,-2.9792,-2.9792,-2.9792,-2.9792,-2.8688,-2.7522,-2.6483,-2.5294,-2.4211,-4.2837,-4.3167,-4.3497,-4.3497,-4.3646,-4.3772,-4.3772,-4.3943,-4.4035,-4.3804,-4.4076,-4.4261,-4.4028,-4.4175,-4.4392,-4.4553,-4.4308,0.0,0.0,0.0,-4.5923,0.0,0.0,0.0,0.0,0.0,0.0,0.0,0.0,0.0,0.0,0.0,0.0,0.0,-4.4158,-4.4158,-4.4158,-4.3718,-4.3497,-4.3497,-4.3497,-4.3497,-4.3497,0.0,0.0,0.0,0.0,0.0,-4.3497,-4.3497,-4.3497,-4.3497,-4.3497,-4.281,-4.181,-4.181,-4.1076,-4.007,-4.007,-4.007,-4.007,-4.007,-4.007,-4.007,-4.007,-4.007,-4.007,-4.007,-4.007,-4.007,-4.007,-4.007,-4.007,-4.007,-4.007,-3.9782,-3.858,-3.8302,-3.7847,-3.629,-3.6006,-3.5894,-3.5554,-3.5504,-3.5504,-3.5504,-3.5504,-3.5504,-3.5504,-3.5504,-3.5504,-3.5504,-3.5504,-3.5504,-3.5504,-3.5504,-3.4706,-3.2749,-3.2593,-3.1756,-2.9869,-2.9792,-2.9792,-2.9792,-2.9792,-2.9792,-2.9792,-2.9197,-2.8279,-2.7209,-2.613,-2.4967,-4.3497,-4.3497,-4.3497,-4.3497,-4.3497,-4.3497,-4.3497,-4.3497,-4.3497,-4.3497,-4.3726,-4.3924,-4.3924,-4.3924,-4.4046,0.0,0.0,0.0,-4.4415,-4.4635,-4.4911,0.0,0.0,0.0,0.0,0.0,0.0,0.0,0.0,0.0,0.0,0.0,0.0,0.0,-4.3497,-4.3497,-4.3497,-4.3497,-4.3497,-4.3497,-4.3497,-4.3497,-4.3497,-4.3497,0.0,0.0,0.0,0.0,-4.3497,-4.3497,-4.3497,-4.3497,-4.3497,-4.2865,-4.1937,-4.1835,-4.1105,-4.0204,-4.0121,-4.007,-4.007,-4.007,-4.007,-4.007,-4.007,-4.007,-4.007,-4.007,-4.007,-4.007,-4.007,-4.007,-4.007,-4.007,-4.007,-3.9901,-3.9086,-3.8908,-3.8437,-3.6888,-3.6615,-3.6399,-3.5619,-3.5504,-3.5504,-3.5504,-3.5504,-3.5504,-3.5504,-3.5504,-3.5504,-3.5504,-3.5504,-3.5504,-3.5504,-3.5504,-3.4706,-3.2749,-3.2593,-3.1756,-2.9869,-2.9792,-2.9792,-2.9792,-2.9792,-2.9792,-2.9792,-2.9792,-2.9197,-2.8084,-2.6964,-2.5891,-4.3497,-4.3497,-4.3497,-4.3497,-4.3497,-4.3497,-4.3497,-4.3497,-4.3497,-4.3497,-4.3548,-4.3563,-4.3563,-4.3563,-4.3597,0.0,0.0,-4.3534,0.0,0.0,0.0,0.0,0.0,0.0,0.0,0.0,0.0,0.0,0.0,0.0,0.0,0.0,0.0,0.0,0.0,-4.3497,-4.3497,-4.3497,-4.3497,-4.3497,-4.3497,-4.3497,-4.3497,-4.3497,-4.3497,0.0,0.0,0.0,-4.3497,-4.3497,-4.3497,-4.3497,-4.3497,-4.3124,-4.248,-4.1979,-4.1358,-4.0685,-4.0254,-4.007,-4.007,-4.007,-4.007,-4.007,-4.007,-4.007,-4.007,-4.007,-4.007,-4.007,-4.007,-4.007,-4.007,-4.007,-4.007,-3.9901,-3.9086,-3.8908,-3.8437,-3.6888,-3.6615,-3.6399,-3.5619,-3.5504,-3.5504,-3.5504,-3.5504,-3.5504,-3.5504,-3.5504,-3.5504,-3.5504,-3.5504,-3.5504,-3.5504,-3.5504,-3.4706,-3.2749,-3.2593,-3.1756,-2.9869,-2.9792,-2.9792,-2.9792,-2.9792,-2.9792,-2.9792,-2.9792,-2.9197,-2.8084,-2.6964,-2.5891,-4.3497,-4.3497,-4.3497,-4.3497,-4.3497,-4.3497,-4.3497,-4.3497,-4.3497,-4.3497,-4.3497,-4.3497,-4.3497,0.0,-4.3497,-4.3497,0.0,0.0,0.0,0.0,0.0,0.0,0.0,0.0,0.0,0.0,0.0,0.0,0.0,0.0,0.0,0.0,0.0,0.0,0.0,0.0,-4.3497,-4.3497,-4.3497,-4.3497,-4.3497,-4.3497,-4.3497,-4.3497,-4.3497,0.0,0.0,-4.3497,-4.3497,-4.3497,-4.3497,-4.3497,-4.3497,-4.3178,-4.2577,-4.1664,-4.1133,-4.081,-4.0286,-4.007,-4.007,-4.007,-4.007,-4.007,-4.007,-4.007,-4.007,-4.007,-4.007,-4.007,-4.007,-4.007,-4.007,-4.007,-4.007,-4.002,-3.961,-3.9542,-3.9086,-3.7557,-3.7279,-3.6874,-3.5668,-3.5504,-3.5504,-3.5504,-3.5504,-3.5504,-3.5504,-3.5504,-3.5504,-3.5504,-3.5504,-3.5504,-3.5504,-3.5504,-3.4706,-3.2749,-3.1623,-3.0709,-2.9869,-2.9792,-2.9792,-2.9792,-2.9792,-2.9792,-2.9792,-2.9792,-2.9534,-2.8937,-2.7302,-2.6224,-4.3497,-4.3497,-4.3497,-4.3497,-4.3497,-4.3497,-4.3497,-4.3497,-4.3497,-4.3497,-4.3497,-4.3497,-4.3497,-4.3497,0.0,-4.3497,-4.3497,0.0,0.0,0.0,0.0,0.0,0.0,0.0,0.0,0.0,0.0,0.0,0.0,0.0,0.0,0.0,0.0,0.0,0.0,0.0,-4.3497,-4.3497,-4.3497,-4.3497,-4.3497,-4.3497,-4.3497,-4.3497,-4.3497,-4.3497,-4.3497,-4.3497,-4.3497,-4.3497,-4.3497,-4.3497,-4.3497,-4.3178,-4.2577,-4.1664,-4.1133,-4.0856,-4.0417,-4.0204,-4.007,-4.007,-4.007,-4.007,-4.007,-4.007,-4.007,-4.007,-4.007,-4.007,-4.007,-4.007,-4.007,-4.007,-4.007,-4.007,-4.007,-4.007,-3.961,-3.8092,-3.7822,-3.7294,-3.5797,-3.5504,-3.5504,-3.5504,-3.5504,-3.5504,-3.5504,-3.5504,-3.5504,-3.5504,-3.5504,-3.5504,-3.5504,-3.5067,-3.4192,-3.2678,-3.0846,-2.9792,-2.9792,-2.9792,-2.9792,-2.9792,-2.9792,-2.9792,-2.9792,-2.9792,-2.9792,-2.9714,-2.7557,-2.6483,-4.3497,-4.3497,-4.3497,-4.3497,-4.3497,-4.3497,-4.3497,-4.3497,-4.3497,-4.3497,-4.3497,-4.3497,-4.3497,-4.3497,-4.3497,-4.3497,0.0,0.0,0.0,0.0,0.0,0.0,0.0,0.0,0.0,0.0,0.0,0.0,0.0,0.0,0.0,0.0,0.0,0.0,0.0,0.0,-4.3497,-4.3497,-4.3497,-4.3497,-4.3497,-4.3497,-4.3497,-4.3497,-4.3497,-4.3497,-4.3497,-4.3497,-4.3497,-4.3497,-4.3497,-4.3497,-4.3497,-4.3178,-4.2711,-4.2616,-4.1853,-4.0903,-4.0874,-4.0546,-4.007,-4.007,-4.007,-4.007,-4.007,-4.007,-4.007,-4.007,-4.007,-4.007,-4.007,-4.007,-4.007,-4.007,-4.007,-4.007,-4.007,-4.007,-3.961,-3.8092,-3.7822,-3.7294,-3.5797,-3.5504,-3.5504,-3.5504,-3.5504,-3.5504,-3.5504,-3.5504,-3.5504,-3.5504,-3.5504,-3.5504,-3.5504,-3.3837,-3.2749,-3.2593,-3.0846,-2.9792,-2.9792,-2.9792,-2.9792,-2.9792,-2.9792,-2.9792,-2.9792,-2.9792,-2.9792,-2.9714,-2.7557,-2.6483,-4.3497,-4.3497,-4.3497,-4.3497,-4.3497,-4.3497,-4.3497,-4.3883,-4.4103,-4.3589,-4.3901,-4.4085,-4.3589,0.0,-4.3497,0.0,0.0,0.0,0.0,0.0,0.0,0.0,0.0,0.0,0.0,0.0,0.0,0.0,0.0,0.0,0.0,0.0,0.0,0.0,0.0,0.0,0.0,-4.3497,-4.3497,-4.3497,-4.3497,-4.3497,-4.3497,-4.3497,-4.3497,-4.3497,-4.3497,-4.3497,-4.3497,-4.3497,-4.3497,-4.3497,-4.3497,-4.3375,-4.3178,-4.2826,-4.2162,-4.1402,-4.1041,-4.0528,-4.007,-4.007,-4.007,-4.007,-4.007,-4.007,-4.007,-4.007,-4.007,-4.007,-4.007,-4.007,-4.007,-4.007,-4.007,-4.007,-4.007,-4.007,-3.961,-3.8092,-3.7822,-3.7294,-3.5797,-3.5504,-3.5504,-3.5504,-3.5504,-3.5504,-3.5504,-3.5504,-3.5504,-3.5504,-3.5504,-3.5504,-3.5504,-3.3685,-3.2593,-3.2593,-3.0846,-2.9792,-2.9792,-2.9792,-2.9792,-2.9792,-2.9792,-2.9792,-2.9792,-2.9792,-2.9792,-2.9714,-2.7557,-2.6483,-4.3497,-4.3497,-4.3497,-4.3497,-4.3497,-4.3497,-4.3497,-4.392,-4.425,-4.3938,-4.4323,-4.4452,-4.3644,-4.3497,0.0,0.0,0.0,0.0,0.0,0.0,0.0,0.0,0.0,0.0,0.0,0.0,0.0,0.0,0.0,0.0,0.0,0.0,0.0,0.0,0.0,0.0,0.0,-4.3112,-4.2983,-4.2745,-4.3002,-4.324,-4.3497,-4.3497,-4.3497,-4.3497,-4.3497,-4.3497,-4.3497,-4.3497,-4.3497,-4.3497,-4.3497,-4.3497,-4.3463,-4.3105,-4.2462,-4.175,-4.1313,-4.072,-4.007,-4.007,-4.007,-4.007,-4.007,-4.007,-4.007,-4.007,-4.007,-4.007,-4.007,-4.007,-4.007,-4.007,-4.007,-4.007,-4.007,-3.9901,-3.9332,-3.8035,-3.7573,-3.6995,-3.5733,-3.5504,-3.5504,-3.5504,-3.5504,-3.5504,-3.5504,-3.5504,-3.5504,-3.5504,-3.5504,-3.5504,-3.5504,-3.3685,-3.2593,-3.2593,-3.0846,-2.9792,-2.9792,-2.9792,-2.9792,-2.9792,-2.9792,-2.9792,-2.9792,-2.9792,-2.9624,-2.9197,-2.7383,-2.6307,-4.3497,-4.3497,-4.3497,-4.3497,-4.3497,-4.3497,-4.3497,-4.3497,-4.3736,-4.4544,-4.4709,-4.4452,-4.3644,-4.3497,0.0,0.0,0.0,0.0,0.0,0.0,0.0,0.0,0.0,0.0,0.0,0.0,0.0,0.0,0.0,0.0,0.0,0.0,0.0,0.0,0.0,0.0,0.0,-4.2286,-4.1901,-4.113,-4.1919,-4.2708,-4.3479,-4.3497,-4.3497,-4.3497,-4.3497,-4.3497,-4.3497,-4.3479,-4.3479,-4.3479,-4.3479,-4.3479,-4.3497,-4.3497,-4.2772,-4.181,-4.181,-4.1076,-4.007,-4.007,-4.007,-4.007,-4.007,-4.007,-4.007,-4.007,-4.007,-4.007,-4.007,-4.007,-4.007,-4.007,-4.007,-4.007,-4.007,-3.9489,-3.869,-3.7921,-3.716,-3.6399,-3.5619,-3.5504,-3.5504,-3.5504,-3.5504,-3.5504,-3.5504,-3.5504,-3.5504,-3.5504,-3.5504,-3.5504,-3.5504,-3.3685,-3.2593,-3.2593,-3.0846,-2.9792,-2.9792,-2.9792,-2.9792,-2.9792,-2.9792,-2.9792,-2.9792,-2.9792,-2.9197,-2.8096,-2.6964,-2.5891,-4.3497,-4.3497,-4.3497,-4.3497,-4.3497,-4.3497,-4.3497,-4.3938,-4.4415,-4.4654,-4.425,-4.3773,-4.3534,-4.3497,0.0,0.0,0.0,0.0,0.0,0.0,0.0,0.0,0.0,0.0,0.0,0.0,0.0,0.0,0.0,0.0,0.0,0.0,0.0,0.0,0.0,0.0,0.0,0.0,-4.135,-4.1111,-4.135,-4.1882,-4.2671,-4.3222,-4.3497,-4.3497,-4.3497,-4.3497,-4.3442,-4.2892,-4.2653,-4.2653,-4.2653,-4.3002,-4.3497,-4.3497,-4.2772,-4.181,-4.181,-4.1076,-4.007,-4.007,-4.007,-4.007,-4.007,-4.007,-4.007,-4.007,-4.007,-4.007,-4.007,-4.007,-4.007,-4.007,-4.007,-4.007,-4.007,-3.9489,-3.869,-3.7921,-3.716,-3.6399,-3.5619,-3.5504,-3.5504,-3.5504,-3.5504,-3.5504,-3.5504,-3.5504,-3.5504,-3.5504,-3.5504,-3.5504,-3.5504,-3.3685,-3.2593,-3.2593,-3.0846,-2.9792,-2.9792,-2.9792,-2.9792,-2.9792,-2.9792,-2.9792,-2.9792,-2.9792,-2.9624,-2.9275,-2.7383,-2.6307,-4.3444,-4.3497,-4.3497,-4.3497,-4.3497,-4.3497,-4.3497,-4.4121,-4.4617,-4.4287,-4.4085,-4.3883,-4.3552,-4.3497,0.0,0.0,0.0,0.0,0.0,0.0,0.0,0.0,0.0,0.0,0.0,0.0,0.0,0.0,0.0,0.0,0.0,0.0,0.0,0.0,0.0,0.0,0.0,0.0,0.0,-4.0157,-4.0469,-4.0891,-4.1368,-4.2176,-4.2543,-4.2543,-4.2543,-4.2543,-4.2506,-4.2029,-4.2011,-4.2268,-4.1956,-4.2304,-4.2983,-4.2653,-4.2048,-4.1308,-4.1308,-4.0787,-4.007,-4.007,-4.007,-4.007,-4.007,-4.007,-4.007,-4.007,-4.007,-4.007,-4.007,-4.007,-4.007,-4.007,-4.007,-4.007,-4.007,-3.9489,-3.869,-3.7921,-3.716,-3.6399,-3.5619,-3.5504,-3.5504,-3.5504,-3.5504,-3.5504,-3.5504,-3.5504,-3.5504,-3.5504,-3.5504,-3.5359,-3.492,-3.3463,-3.2464,-3.2105,-3.0633,-2.9792,-2.9792,-2.9792,-2.9792,-2.9792,-2.9792,-2.9792,-2.9792,-2.9792,-2.9534,-2.9106,-2.7787,-2.6625,-4.3286,-4.341,-4.341,-4.341,-4.341,-4.3356,-4.3356,-4.3942,-4.4307,-4.3644,0.0,-4.4378,-4.3626,0.0,0.0,0.0,0.0,0.0,0.0,0.0,0.0,0.0,0.0,0.0,0.0,0.0,0.0,0.0,0.0,0.0,0.0,0.0,0.0,0.0,0.0,0.0,0.0,0.0,0.0,0.0,-3.9441,-3.979,-3.9808,-4.0708,-4.1111,-4.1111,-4.1111,-4.1075,-4.1001,-4.1001,-4.1423,-4.2011,-4.1295,-4.1479,-4.2103,-4.1387,-4.089,-4.0571,-4.0601,-4.0353,-4.0069,-4.0104,-4.007,-4.007,-4.007,-4.007,-4.007,-4.007,-4.007,-4.007,-4.007,-4.007,-4.007,-4.007,-4.007,-4.007,-4.007,-3.9437,-3.858,-3.7921,-3.71,-3.6275,-3.5619,-3.5504,-3.5504,-3.5504,-3.5504,-3.5504,-3.5504,-3.5444,-3.5415,-3.5415,-3.5415,-3.4978,-3.4008,-3.3143,-3.2177,-3.1241,-3.0355,-2.9792,-2.9792,-2.9792,-2.9792,-2.9792,-2.9792,-2.9792,-2.9792,-2.9792,-2.9275,-2.8255,-2.8016,-2.686,-4.2732,-4.2864,-4.2864,-4.2864,-4.2501,-4.2185,-4.2185,-4.2685,-4.3194,-4.3446,-4.3626,-4.3699,0.0,0.0,0.0,0.0,0.0,0.0,0.0,0.0,0.0,0.0,0.0,0.0,0.0,0.0,0.0,0.0,0.0,0.0,0.0,0.0,0.0,0.0,0.0,0.0,-3.8964,-3.8964,-3.8872,0.0,-3.8891,-3.8964,-3.9019,-4.0451,-4.1111,-4.1111,-4.1111,-4.0744,-4.0157,-4.0157,-4.0249,-4.0396,-4.023,-4.0653,-4.135,-4.1167,-4.0759,-4.0339,-4.0529,-4.0254,-3.9834,-4.0017,-4.007,-4.007,-4.007,-4.007,-4.007,-4.007,-4.007,-4.007,-4.007,-4.007,-4.007,-4.007,-4.007,-4.007,-4.007,-3.8995,-3.7978,-3.7806,-3.6646,-3.5668,-3.5504,-3.5504,-3.5504,-3.5504,-3.5504,-3.5504,-3.5504,-3.504,-3.4696,-3.4696,-3.4696,-3.4347,-3.3388,-3.2835,-3.2177,-3.1241,-3.0355,-2.9792,-2.9792,-2.9792,-2.9792,-2.9792,-2.9792,-2.9792,-2.9792,-2.9792,-2.9702,-2.9365,-2.7626,-2.6554,-4.2121,-4.2262,-4.2262,-4.2262,-4.181,-4.1446,-4.1707,-4.181,-4.2021,-4.2562,-4.3105,-4.3497,0.0,0.0,0.0,0.0,0.0,0.0,0.0,0.0,0.0,0.0,0.0,0.0,0.0,0.0,0.0,0.0,0.0,0.0,0.0,0.0,0.0,0.0,0.0,0.0,-3.8707,-3.8707,-3.8707,-3.8707,-3.8707,-3.8707,-3.8726,-3.957,-3.9955,-3.9955,-3.9955,-3.9717,-3.9331,-3.9331,-3.9551,-3.9845,-3.9478,-3.9827,-4.0487,-4.0102,-3.9826,-3.9679,-3.9949,-3.9878,-3.975,-3.9999,-4.007,-4.007,-4.007,-4.007,-4.007,-4.007,-4.007,-4.007,-4.007,-4.007,-4.007,-4.007,-4.007,-4.0003,-3.961,-3.887,-3.8133,-3.7381,-3.6585,-3.5879,-3.5554,-3.5504,-3.5504,-3.5504,-3.522,-3.5011,-3.5011,-3.4427,-3.4008,-3.4008,-3.4292,-3.3932,-3.2489,-3.2542,-3.2046,-3.0633,-3.0075,-2.9792,-2.9792,-2.9792,-2.9792,-2.9792,-2.9792,-2.9792,-2.9792,-2.9792,-2.9792,-2.9792,-2.8039,-2.6964,-4.149,-4.1621,-4.1621,-4.1621,-4.1178,-4.0874,-4.1402,-4.1178,-4.1041,-4.1534,-4.2465,0.0,0.0,0.0,0.0,0.0,0.0,0.0,0.0,0.0,0.0,0.0,0.0,0.0,0.0,0.0,0.0,0.0,0.0,0.0,0.0,0.0,0.0,0.0,0.0,-3.8707,-3.8707,-3.8707,-3.8707,-3.8707,-3.8707,-3.8707,-3.8707,-3.8707,-3.8707,-3.8707,-3.8707,-3.8707,-3.8707,-3.8707,-3.9093,-3.9625,-3.8964,-3.9111,-3.9606,-3.8946,-3.8802,-3.8976,-3.9132,-3.9378,-3.9662,-3.9708,-3.9783,-3.9884,-3.9884,-3.9884,-3.9918,-4.0037,-4.007,-4.007,-4.007,-4.007,-4.007,-4.007,-4.007,-3.9901,-3.9262,-3.8924,-3.8342,-3.7068,-3.6615,-3.6228,-3.5619,-3.5504,-3.5459,-3.534,-3.4846,-3.4442,-3.4322,-3.3724,-3.332,-3.332,-3.3918,-3.3548,-3.1612,-3.2122,-3.1829,-2.9934,-2.9792,-2.9792,-2.9792,-2.9792,-2.9792,-2.9792,-2.9792,-2.9792,-2.9792,-2.9792,-2.9792,-2.9792,-2.8438,-2.736,-4.0874,-4.1041,-4.1041,-4.1041,-4.0625,-4.0204,-4.0303,0.0,-4.0903,0.0,0.0,0.0,0.0,0.0,0.0,0.0,0.0,0.0,0.0,0.0,0.0,0.0,0.0,0.0,0.0,0.0,0.0,0.0,0.0,0.0,0.0,0.0,-3.8817,-3.8707,-3.8707,0.0,-3.8707,-3.8707,-3.8707,-3.8707,-3.8707,-3.8707,-3.8707,-3.8707,-3.8707,-3.8707,-3.8707,-3.8707,-3.8707,-3.8707,-3.8762,-3.8854,-3.8744,-3.8781,-3.8854,-3.8744,-3.8731,-3.8707,-3.8503,-3.8876,-3.9298,-3.8487,-3.8633,-3.914,-3.914,-3.914,-3.9276,-3.9901,-4.007,-4.007,-4.007,-4.007,-4.007,-4.007,-4.007,-4.007,-3.9952,-3.8887,-3.7863,-3.769,-3.6538,-3.5619,-3.5504,-3.5504,-3.5295,-3.4696,-3.4532,-3.4262,-3.3709,-3.3051,-3.2647,-3.2647,-3.323,-3.2874,-3.0922,-3.1874,-3.1829,-2.9934,-2.9792,-2.9792,-2.9792,-2.9792,-2.9792,-2.9792,-2.9792,-2.9792,-2.9792,-2.9792,-2.9792,-2.9792,-2.7718,-2.6648,-4.0368,-4.0158,-3.9935,-4.0346,-4.0286,-4.007,-4.007,-4.0286,-4.0449,0.0,0.0,0.0,0.0,0.0,0.0,0.0,0.0,0.0,0.0,0.0,0.0,0.0,0.0,0.0,0.0,0.0,0.0,0.0,0.0,0.0,0.0,-3.8707,-3.8707,-3.8707,-3.8707,0.0,-3.8707,-3.8707,-3.8707,-3.8707,-3.8707,-3.8707,-3.8707,-3.8707,-3.8707,-3.8707,-3.8707,-3.8707,-3.8707,-3.8707,-3.8707,-3.8707,-3.8707,-3.8707,-3.8707,-3.8707,-3.8496,-3.8259,-3.8267,-3.8332,-3.8338,-3.8495,-3.8464,-3.8531,-3.936,-3.9326,-3.914,-3.9868,-4.007,-4.007,-4.007,-4.007,-4.007,-4.007,-4.007,-4.007,-4.007,-3.8887,-3.7531,-3.6662,-3.5958,-3.5385,-3.4996,-3.4936,-3.4696,-3.4023,-3.3619,-3.3275,-3.2976,-3.2362,-3.1958,-3.1958,-3.2077,-3.1656,-3.0301,-3.0623,-3.0289,-2.8912,-2.9139,-2.9315,-2.9315,-2.9616,-2.9792,-2.9792,-2.9792,-2.9792,-2.9792,-2.9792,-2.9792,-2.9792,-2.8119,-2.7046,-3.98,-3.9276,-3.8886,-3.9631,-3.9665,-3.9631,0.0,0.0,0.0,0.0,0.0,0.0,0.0,0.0,0.0,0.0,0.0,0.0,0.0,0.0,0.0,0.0,0.0,0.0,0.0,0.0,0.0,0.0,0.0,0.0,-3.8707,-3.8707,-3.8707,-3.8707,-3.8707,-3.8707,-3.8707,-3.8707,-3.8707,-3.8707,-3.8707,-3.8707,-3.8707,-3.8707,-3.8707,-3.8707,-3.8707,-3.8707,-3.8707,-3.8707,-3.8707,-3.8707,-3.8707,-3.8707,-3.8707,-3.8707,-3.8465,-3.8088,-3.8036,-3.7905,-3.7741,-3.804,-3.8024,-3.8108,-3.9191,-3.9276,-3.914,-3.9868,-4.007,-4.007,-4.007,-3.9935,-3.9851,-4.0037,-3.9935,-3.9733,-3.9577,-3.8596,-3.7354,-3.5797,-3.5504,-3.5295,-3.4592,-3.4472,-3.4188,-3.3365,-3.2826,-3.2452,-3.2287,-3.1839,-3.1482,-3.1482,-3.1319,-3.0848,-2.99,-2.959,-2.9125,-2.817,-2.8624,-2.8925,-2.8925,-2.9478,-2.9729,-2.9578,-2.9716,-2.9792,-2.9792,-2.9792,-2.9792,-2.9792,-2.8359,-2.729,-3.9056,-3.8514,-3.8142,-3.887,-3.8531,-3.8379,0.0,0.0,0.0,0.0,0.0,0.0,0.0,0.0,0.0,0.0,0.0,0.0,0.0,0.0,0.0,0.0,0.0,0.0,0.0,0.0,0.0,0.0,0.0,0.0,-3.8707,-3.8707,-3.8707,-3.8707,-3.8707,-3.8707,-3.8707,-3.8707,-3.8707,-3.8707,-3.8707,-3.8707,-3.8707,-3.8707,-3.8707,-3.8707,-3.8707,-3.8707,-3.8707,-3.8707,-3.8707,-3.8707,-3.8707,-3.8707,-3.8707,-3.8707,-3.8676,-3.8515,-3.7559,-3.7701,-3.7998,-3.6317,-3.6755,-3.7922,-3.799,-3.8481,-3.914,-3.9868,-4.007,-4.007,-4.007,-3.9563,-3.9225,-3.9918,-3.9546,-3.8858,-3.806,-3.7879,-3.7354,-3.5797,-3.5504,-3.5295,-3.4592,-3.4472,-3.4038,-3.2766,-3.2542,-3.2287,-3.1601,-3.1497,-3.1482,-3.1482,-3.1319,-3.0848,-2.99,-2.959,-2.9125,-2.817,-2.8624,-2.8925,-2.8925,-2.9478,-2.9528,-2.8988,-2.9515,-2.9792,-2.9792,-2.9792,-2.9792,-2.9714,-2.7557,-2.6554,-3.8159,-3.7753,-3.7364,-3.8108,-3.8108,-3.8041,-3.8565,-3.8481,0.0,0.0,0.0,0.0,0.0,0.0,0.0,0.0,0.0,0.0,0.0,0.0,0.0,0.0,0.0,0.0,0.0,0.0,0.0,0.0,0.0,0.0,-3.8183,-3.8183,-3.8332,-3.8707,-3.8707,-3.8707,-3.8707,-3.8707,-3.8707,-3.8707,-3.8707,-3.8707,-3.8707,-3.8707,-3.8707,-3.8707,-3.8707,-3.8707,-3.8707,-3.8707,-3.8707,-3.8707,-3.8707,-3.8707,-3.8707,-3.8707,-3.8465,-3.8099,-3.7433,-3.7136,-3.7015,-3.6536,-3.64,-3.662,-3.7601,-3.7753,-3.7821,-3.9039,-3.9377,-3.9478,-3.9952,-3.9529,-3.894,-3.8687,-3.8783,-3.8611,-3.7318,-3.7024,-3.6753,-3.5668,-3.5145,-3.4637,-3.3963,-3.3499,-3.2916,-3.2018,-3.1884,-3.1735,-3.1497,-3.1482,-3.1482,-3.1482,-3.0967,-3.0264,-2.9384,-2.8678,-2.7962,-2.7112,-2.7896,-2.8398,-2.8398,-2.9302,-2.9691,-2.949,-2.9691,-2.9616,-2.9239,-2.9616,-2.9792,-2.9792,-2.8279,-2.7128,-3.777,-3.7161,-3.6569,-3.733,-3.733,-3.728,-3.7787,0.0,0.0,0.0,0.0,0.0,0.0,0.0,0.0,0.0,0.0,0.0,0.0,0.0,0.0,0.0,0.0,0.0,0.0,0.0,0.0,0.0,0.0,0.0,-3.7649,-3.7825,-3.815,-3.8658,-3.8546,-3.8515,-3.8707,-3.8707,-3.8707,-3.8707,-3.8707,-3.8707,-3.8707,-3.8707,-3.8707,-3.8707,-3.8707,-3.8707,-3.8707,-3.8707,-3.8707,-3.8707,-3.8707,-3.8707,-3.8707,-3.8707,-3.8465,-3.8083,-3.7451,-3.696,-3.665,-3.6468,-3.6214,-3.6197,-3.7212,-3.7347,-3.7364,-3.8362,-3.8633,-3.8802,-3.9529,-3.936,-3.8756,-3.7661,-3.7806,-3.7882,-3.6857,-3.6615,-3.6322,-3.5368,-3.4786,-3.4203,-3.332,-3.2796,-3.2287,-3.1571,-3.1482,-3.1482,-3.1482,-3.1482,-3.1409,-3.1146,-3.0329,-2.9504,-2.862,-2.7802,-2.7095,-2.6521,-2.7494,-2.8109,-2.8109,-2.9189,-2.9691,-2.9503,-2.9691,-2.9503,-2.8925,-2.9515,-2.9792,-2.9792,-2.8597,-2.7348,0.0,0.0,0.0,-3.6552,0.0,0.0,-3.7499,0.0,0.0,0.0,0.0,0.0,0.0,0.0,0.0,0.0,0.0,0.0,0.0,0.0,0.0,0.0,0.0,0.0,0.0,0.0,0.0,0.0,0.0,-3.719,-3.719,-3.7614,-3.8117,-3.8627,-3.8183,-3.815,-3.8658,-3.8707,-3.8707,-3.8707,-3.8707,-3.8707,-3.8707,-3.8707,-3.8707,-3.8707,-3.8707,-3.8707,-3.8707,-3.8707,-3.8707,-3.8707,-3.8707,-3.8707,-3.8707,-3.8676,-3.8676,-3.8546,-3.7524,-3.719,-3.6981,-3.5924,-3.6129,-3.6738,-3.6738,-3.7263,-3.7838,-3.7872,-3.7872,-3.8041,-3.8768,-3.8971,-3.8571,-3.7067,-3.6691,-3.6673,-3.6582,-3.6538,-3.6153,-3.4781,-3.4442,-3.4008,-3.2736,-3.2497,-3.2273,-3.1571,-3.1482,-3.1482,-3.1482,-3.1467,-3.1161,-3.0389,-2.9504,-2.862,-2.7802,-2.6973,-2.6521,-2.6533,-2.7494,-2.8109,-2.8109,-2.9189,-2.9528,-2.8963,-2.9503,-2.9515,-2.895,-2.9515,-2.9792,-2.9792,-2.8597,-2.6849,-3.7094,0.0,0.0,0.0,0.0,0.0,0.0,0.0,0.0,0.0,0.0,0.0,0.0,0.0,0.0,0.0,0.0,0.0,0.0,0.0,0.0,0.0,0.0,0.0,0.0,0.0,0.0,0.0,0.0,-3.6603,-3.6603,-3.7097,-3.747,-3.7596,-3.7808,-3.798,-3.8099,-3.8515,-3.8707,-3.8707,-3.8707,-3.8707,-3.8707,-3.8707,-3.8707,-3.8707,-3.8707,-3.8707,-3.8707,-3.8707,-3.8707,-3.8707,-3.8707,-3.8707,-3.8658,-3.8267,-3.8099,-3.7998,-3.6981,-3.6603,-3.6498,-3.581,-3.5774,-3.5943,-3.5943,-3.6079,-3.6366,-3.6924,-3.7094,-3.7263,-3.8007,-3.8154,-3.7873,-3.695,-3.6632,-3.6459,-3.5913,-3.5437,-3.4982,-3.4565,-3.3709,-3.2946,-3.2572,-3.2123,-3.1676,-3.1497,-3.1482,-3.1482,-3.1482,-3.097,-3.0524,-3.0329,-2.9504,-2.862,-2.7802,-2.7484,-2.7095,-2.6521,-2.7494,-2.8109,-2.8109,-2.9189,-2.9716,-2.9553,-2.9716,-2.9716,-2.9553,-2.9716,-2.9792,-2.9792,-2.7879,-2.5714,-3.6772,-3.6451,-3.6028,-3.569,0.0,0.0,-3.569,-3.5622,0.0,0.0,0.0,0.0,0.0,0.0,0.0,0.0,0.0,0.0,0.0,0.0,0.0,0.0,0.0,0.0,0.0,0.0,0.0,0.0,-3.5898,-3.6182,-3.6374,-3.6481,-3.6746,-3.719,-3.7248,-3.7488,-3.7911,-3.8216,-3.8465,-3.8707,-3.8707,-3.8707,-3.8707,-3.8707,-3.8707,-3.8707,-3.8707,-3.8707,-3.8707,-3.8707,-3.8707,-3.8707,-3.8707,-3.8546,-3.8332,-3.8032,-3.779,-3.7506,-3.6684,-3.6374,-3.6291,-3.5783,-3.5622,-3.5622,-3.5622,-3.5622,-3.5723,-3.6163,-3.6535,-3.6743,-3.6592,-3.6904,-3.6996,-3.5697,-3.5544,-3.5537,-3.4841,-3.4143,-3.3739,-3.4008,-3.323,-3.2422,-3.2153,-3.1735,-3.1482,-3.1482,-3.1482,-3.1482,-3.1482,-3.1087,-3.0524,-2.9827,-2.9317,-2.8492,-2.7284,-2.7229,-2.6973,-2.6521,-2.7281,-2.7758,-2.7758,-2.8837,-2.9428,-2.9428,-2.9666,-2.9534,-2.9106,-2.9106,-2.887,-2.8383,-2.6637,-2.5052,-3.6764,-3.6726,-3.6502,-3.5893,0.0,0.0,-3.5893,-3.5673,-3.5622,0.0,0.0,0.0,0.0,0.0,0.0,0.0,0.0,0.0,0.0,0.0,0.0,0.0,0.0,0.0,0.0,0.0,0.0,-3.5622,-3.5622,-3.5827,-3.6308,-3.5854,-3.6054,-3.6981,-3.6603,-3.6825,-3.772,-3.7825,-3.815,-3.8627,-3.8658,-3.8707,-3.8707,-3.8707,-3.8707,-3.8707,-3.8707,-3.8707,-3.8707,-3.8707,-3.8707,-3.8707,-3.8707,-3.8382,-3.7893,-3.7825,-3.7506,-3.702,-3.6498,-3.6291,-3.6207,-3.5739,-3.5622,-3.5622,-3.5622,-3.5622,-3.5622,-3.5622,-3.6129,-3.6346,-3.5065,-3.5613,-3.6007,-3.406,-3.4021,-3.4235,-3.3607,-3.2976,-3.2691,-3.3275,-3.2856,-3.2213,-3.1571,-3.1482,-3.1482,-3.1482,-3.1482,-3.1467,-3.1409,-3.1278,-3.0584,-2.9002,-2.8812,-2.8117,-2.6658,-2.6533,-2.6533,-2.6533,-2.703,-2.7344,-2.7281,-2.8348,-2.8925,-2.8925,-2.9503,-2.9275,-2.8096,-2.8096,-2.7498,-2.6229,-2.5219,-2.4598,-3.6555,-3.6281,-3.596,0.0,0.0,0.0,-3.6451,-3.6062,-3.5622,0.0,0.0,0.0,0.0,0.0,0.0,0.0,0.0,0.0,0.0,0.0,0.0,0.0,0.0,0.0,0.0,0.0,-3.5622,-3.5622,-3.5622,-3.5667,-3.5739,-3.5667,-3.5694,-3.5898,-3.6207,-3.6481,-3.6684,-3.7488,-3.7946,-3.8065,-3.8496,-3.8707,-3.8707,-3.8707,-3.8707,-3.8707,-3.8707,-3.8707,-3.8707,-3.8707,-3.8707,-3.8707,-3.8707,-3.8382,-3.7859,-3.747,-3.702,-3.6498,-3.5941,-3.5739,-3.5739,-3.5605,-3.5622,-3.5622,-3.5622,-3.5622,-3.5622,-3.5622,-3.5723,-3.579,-3.5562,-3.5261,-3.4904,-3.4535,-3.4071,-3.3653,-3.3561,-3.2976,-3.2557,-3.2677,-3.2168,-3.1616,-3.1497,-3.1482,-3.1482,-3.1482,-3.1482,-3.1278,-3.0644,-2.995,-2.9066,-2.8051,-2.7351,-2.685,-2.6521,-2.6533,-2.6533,-2.6533,-2.7394,-2.7745,-2.7306,-2.8348,-2.8925,-2.8925,-2.9503,-2.9275,-2.8096,-2.8096,-2.6898,-2.4655,-2.4418,-2.365,0.0,0.0,0.0,-3.6764,0.0,0.0,0.0,-3.5893,-3.5622,0.0,0.0,0.0,0.0,0.0,0.0,0.0,0.0,0.0,0.0,0.0,0.0,0.0,0.0,0.0,0.0,0.0,-3.5622,-3.5622,-3.5622,-3.5622,-3.5622,-3.5622,-3.5622,-3.5622,-3.5854,-3.6139,-3.6392,-3.6904,-3.7415,-3.7893,-3.8183,-3.8433,-3.8707,-3.8707,-3.8707,-3.8707,-3.8707,-3.8707,-3.8707,-3.8707,-3.8546,-3.83,-3.83,-3.7998,-3.7506,-3.6981,-3.644,-3.5985,-3.5694,-3.5622,-3.5622,-3.5622,-3.5622,-3.5622,-3.5622,-3.5622,-3.5622,-3.5622,-3.5362,-3.5041,-3.4742,-3.4366,-3.3881,-3.3284,-3.3049,-3.2916,-3.2587,-3.2258,-3.2018,-3.2018,-3.1764,-3.1482,-3.1482,-3.1482,-3.1482,-3.1482,-3.1161,-3.0777,-3.0329,-2.9566,-2.8684,-2.7802,-2.7351,-2.6905,-2.6521,-2.6533,-2.6533,-2.6533,-2.6979,-2.7155,-2.6879,-2.767,-2.8002,-2.7789,-2.8252,-2.7794,-2.6161,-2.6161,-2.5469,-2.4198,-2.3638,-2.2842,0.0,0.0,0.0,0.0,0.0,-3.6999,0.0,0.0,0.0,0.0,0.0,0.0,0.0,0.0,0.0,0.0,0.0,0.0,0.0,0.0,0.0,0.0,0.0,0.0,0.0,0.0,-3.525,-3.5402,-3.5402,-3.547,-3.556,-3.5622,-3.5622,-3.5622,-3.5622,-3.5827,-3.6224,-3.6333,-3.6825,-3.7596,-3.772,-3.7998,-3.8401,-3.8401,-3.8401,-3.8401,-3.8401,-3.8465,-3.8546,-3.8433,-3.8201,-3.7893,-3.7893,-3.7542,-3.6981,-3.658,-3.6054,-3.5622,-3.5622,-3.5622,-3.5622,-3.5622,-3.5622,-3.5622,-3.5622,-3.5622,-3.5577,-3.5453,-3.5005,-3.4431,-3.3649,-3.3379,-3.3013,-3.1802,-3.1943,-3.2183,-3.1644,-3.1482,-3.1482,-3.1482,-3.1482,-3.1482,-3.1482,-3.1351,-3.1278,-3.1278,-3.0584,-3.0011,-2.9827,-2.9192,-2.8427,-2.7537,-2.7484,-2.7229,-2.6589,-2.6533,-2.6533,-2.6533,-2.6653,-2.6747,-2.6533,-2.6992,-2.7098,-2.6745,-2.7048,-2.6366,-2.4622,-2.4225,-2.399,-2.3743,-2.2705,-2.2031,0.0,0.0,0.0,0.0,-3.5379,0.0,0.0,0.0,0.0,0.0,0.0,0.0,0.0,0.0,0.0,0.0,0.0,0.0,0.0,0.0,0.0,0.0,0.0,0.0,0.0,0.0,0.0,-3.4573,-3.4624,-3.4912,-3.5588,-3.5622,-3.5622,-3.5622,-3.5622,-3.5622,-3.5694,-3.6182,-3.6457,-3.6563,-3.7058,-3.7323,-3.7377,-3.7377,-3.7377,-3.7377,-3.7377,-3.7632,-3.7946,-3.7542,-3.7578,-3.7893,-3.7893,-3.7305,-3.6498,-3.6416,-3.6054,-3.5622,-3.5622,-3.5622,-3.5622,-3.5622,-3.5622,-3.5622,-3.5622,-3.5622,-3.547,-3.4894,-3.4688,-3.4333,-3.3039,-3.2703,-3.253,-3.1712,-3.1541,-3.1556,-3.1497,-3.1482,-3.1482,-3.1482,-3.1482,-3.1482,-3.1482,-3.0896,-3.045,-3.045,-2.969,-2.8876,-2.8117,-2.792,-2.7537,-2.6714,-2.6658,-2.6589,-2.6533,-2.6533,-2.6533,-2.6533,-2.7381,-2.7482,-2.6571,-2.6992,-2.7306,-2.7214,-2.6893,-2.6534,-2.6294,-2.4511,-2.3113,-2.2192,-2.1634,-2.1143,0.0,0.0,0.0,0.0,0.0,0.0,-3.5975,0.0,-3.4691,0.0,0.0,0.0,0.0,0.0,0.0,0.0,0.0,0.0,0.0,0.0,0.0,0.0,0.0,0.0,0.0,0.0,0.0,0.0,0.0,-3.4184,-3.4928,-3.4962,-3.5165,-3.5605,-3.5622,-3.5622,-3.5622,-3.581,-3.6097,-3.6416,-3.662,-3.6921,-3.719,-3.719,-3.719,-3.719,-3.719,-3.7323,-3.747,-3.7285,-3.7135,-3.7041,-3.7041,-3.6786,-3.6333,-3.6054,-3.5766,-3.5622,-3.5622,-3.5622,-3.5622,-3.5622,-3.5622,-3.5515,-3.5161,-3.5005,-3.4894,-3.4186,-3.3735,-3.3287,-3.2749,-3.2272,-3.191,-3.1582,-3.1482,-3.1482,-3.1482,-3.1482,-3.1482,-3.1482,-3.1482,-3.1351,-3.0896,-3.0524,-3.0199,-2.981,-2.8879,-2.7996,-2.7339,-2.7089,-2.6837,-2.6521,-2.6533,-2.6533,-2.6533,-2.6533,-2.6533,-2.6533,-2.6892,-2.6942,-2.6546,-2.6747,-2.6582,-2.5993,-2.5444,-2.4937,-2.4315,-2.2877,-2.196,-2.1504,-2.1318,-2.0996,-3.3073,0.0,0.0,0.0,0.0,0.0,0.0,0.0,0.0,0.0,0.0,0.0,0.0,0.0,-3.4478,-3.494,0.0,0.0,0.0,0.0,0.0,0.0,0.0,0.0,0.0,0.0,0.0,0.0,-3.322,0.0,-3.415,-3.4387,-3.4742,-3.5301,-3.5504,-3.5622,-3.5622,-3.5622,-3.5783,-3.6182,-3.6182,-3.6374,-3.6746,-3.6746,-3.6746,-3.6746,-3.6746,-3.6825,-3.696,-3.6825,-3.6603,-3.6392,-3.6224,-3.6182,-3.6139,-3.5739,-3.5622,-3.5622,-3.5622,-3.5622,-3.5622,-3.5622,-3.547,-3.5253,-3.4736,-3.4479,-3.4186,-3.3479,-3.3002,-3.2532,-3.2327,-3.1894,-3.1482,-3.1482,-3.1482,-3.1482,-3.1482,-3.1482,-3.1482,-3.1482,-3.1351,-3.097,-3.0389,-3.0072,-2.9718,-2.9054,-2.8015,-2.7194,-2.6857,-2.6595,-2.6533,-2.6533,-2.6533,-2.6533,-2.6533,-2.6533,-2.6596,-2.6747,-2.6609,-2.6446,-2.6293,-2.6169,-2.5581,-2.4636,-2.3958,-2.3221,-2.2541,-2.15,-2.1055,-2.1055,-2.1055,-2.0879,0.0,0.0,0.0,-3.3231,0.0,0.0,0.0,0.0,-3.3547,0.0,0.0,0.0,0.0,-3.3633,-3.3627,-3.3576,-3.4162,0.0,0.0,0.0,0.0,0.0,0.0,0.0,0.0,0.0,0.0,0.0,-3.273,0.0,-3.3406,-3.4117,-3.4506,-3.4523,-3.5233,-3.5622,-3.5622,-3.5622,-3.5622,-3.5622,-3.5622,-3.5605,-3.565,-3.565,-3.565,-3.565,-3.565,-3.5941,-3.6392,-3.5854,-3.5941,-3.6333,-3.581,-3.5622,-3.5605,-3.5622,-3.5622,-3.5622,-3.5622,-3.5622,-3.5622,-3.5622,-3.5144,-3.4624,-3.4624,-3.4137,-3.3479,-3.2841,-3.2602,-3.2437,-3.1739,-3.1539,-3.1482,-3.1482,-3.1482,-3.1482,-3.1482,-3.1482,-3.1482,-3.1482,-3.0896,-3.0329,-3.0329,-2.9566,-2.8748,-2.7894,-2.7082,-2.6521,-2.6508,-2.6521,-2.6533,-2.6533,-2.6533,-2.6533,-2.6533,-2.6533,-2.6691,-2.7218,-2.6753,-2.6317,-2.584,-2.5338,-2.4564,-2.3588,-2.2563,-2.2048,-2.2059,-2.1108,-2.0586,-2.0586,-2.0586,-2.0576,0.0,0.0,-3.1749,-3.2617,0.0,0.0,0.0,0.0,0.0,0.0,0.0,0.0,0.0,-3.2949,-3.3066,-3.348,-3.3775,-3.3956,0.0,0.0,0.0,0.0,0.0,0.0,0.0,0.0,0.0,-3.1952,-3.1698,-3.1884,0.0,-3.3372,-3.3998,-3.4472,-3.5233,-3.5622,-3.5622,-3.5622,-3.5622,-3.5622,-3.5622,-3.5622,-3.5622,-3.5622,-3.5622,-3.5622,-3.5622,-3.5694,-3.5871,-3.565,-3.5694,-3.5854,-3.565,-3.5622,-3.5622,-3.5622,-3.5622,-3.5622,-3.5622,-3.5622,-3.5515,-3.5098,-3.4783,-3.4431,-3.3547,-3.3145,-3.2788,-3.2048,-3.1853,-3.1796,-3.1582,-3.1482,-3.1482,-3.1482,-3.1482,-3.1482,-3.1482,-3.1482,-3.1351,-3.0837,-3.0524,-2.995,-2.8812,-2.8298,-2.7918,-2.7286,-2.6796,-2.6395,-2.5937,-2.6226,-2.6533,-2.6533,-2.6533,-2.6533,-2.6533,-2.6533,-2.632,-2.5849,-2.562,-2.5147,-2.4338,-2.4127,-2.3818,-2.3526,-2.2478,-2.2027,-2.2027,-2.1078,-2.0566,-2.0566,-2.0566,-2.0566,-3.0584,-3.0584,0.0,0.0,-3.185,0.0,-3.2914,0.0,0.0,0.0,0.0,0.0,0.0,0.0,-3.2422,-3.3145,-3.3235,-3.3165,0.0,-3.2319,0.0,0.0,0.0,0.0,0.0,0.0,-3.1909,-3.163,-3.1167,-3.1177,0.0,0.0,-3.3626,-3.4083,-3.5098,-3.5622,-3.5622,-3.5622,-3.5622,-3.5622,-3.5622,-3.5622,-3.5622,-3.5622,-3.5622,-3.5622,-3.5622,-3.5622,-3.5622,-3.5622,-3.5622,-3.5622,-3.5622,-3.5622,-3.5622,-3.5622,-3.5622,-3.5622,-3.5622,-3.5453,-3.5161,-3.4736,-3.4284,-3.3735,-3.2841,-3.2437,-3.212,-3.164,-3.1482,-3.1482,-3.1482,-3.1482,-3.1482,-3.1482,-3.1482,-3.1482,-3.1482,-3.1482,-3.1278,-3.045,-3.0072,-2.938,-2.792,-2.7484,-2.7167,-2.6804,-2.6608,-2.6395,-2.595,-2.6226,-2.6533,-2.6533,-2.6533,-2.6533,-2.6533,-2.6533,-2.6233,-2.5581,-2.5229,-2.4564,-2.3514,-2.3147,-2.2863,-2.267,-2.1904,-2.1599,-2.1686,-2.0936,-2.0566,-2.0566,-2.0566,-2.0566]},{"header":{"parameterUnit":"m.s-1","parameterCategory":1,"la1":30.6,"la2":29.2853,"lo1":-89.7004,"lo2":-87.6739,"dy":0.0162,"dx":0.0183,"nx":112,"ny":82,"refTime":"2023-07-29T12:00:00:Z","depth":0,"parameterNumber":3,"parameterNumberName":"V-component_of_WINDS"},"data":[0.0,0.0,0.0,0.0,0.0,0.0,0.0,0.0,0.0,0.0,0.0,0.0,0.0,0.0,0.0,0.0,0.0,0.0,0.0,0.0,0.0,0.0,0.0,0.0,0.0,0.0,0.0,0.0,0.0,0.0,0.0,0.0,0.0,0.0,0.0,0.0,0.0,0.0,0.0,0.0,0.0,0.0,0.0,0.0,0.0,0.0,0.0,0.0,0.0,0.0,0.0,0.0,0.0,0.0,0.0,0.0,0.0,0.0,0.0,0.0,0.0,0.0,0.0,0.0,0.0,0.0,0.0,0.0,0.0,0.0,0.0,0.0,0.0,0.0,0.0,0.0,0.0,0.0,0.0,0.0,0.0,0.0,0.0,0.0,0.0,0.0,0.0,0.0,0.0,0.0,-3.9429,-3.8278,-3.8722,-3.9368,-4.002,-4.007,-3.9462,-3.799,0.0,0.0,0.0,0.0,0.0,0.0,0.0,0.0,0.0,0.0,0.0,0.0,0.0,0.0,0.0,0.0,0.0,0.0,0.0,0.0,0.0,0.0,0.0,0.0,0.0,0.0,0.0,0.0,0.0,0.0,0.0,0.0,0.0,0.0,0.0,0.0,0.0,0.0,0.0,0.0,0.0,0.0,0.0,0.0,0.0,0.0,0.0,0.0,0.0,0.0,0.0,0.0,0.0,0.0,0.0,0.0,0.0,0.0,0.0,0.0,0.0,0.0,0.0,0.0,0.0,0.0,0.0,0.0,0.0,0.0,0.0,0.0,0.0,0.0,0.0,0.0,0.0,0.0,0.0,0.0,0.0,0.0,0.0,0.0,0.0,0.0,0.0,0.0,0.0,0.0,0.0,0.0,0.0,0.0,0.0,0.0,0.0,0.0,0.0,0.0,0.0,0.0,0.0,0.0,-3.9054,-3.9699,-3.9834,-3.9969,-4.007,-4.007,-3.9462,-3.799,0.0,0.0,0.0,0.0,0.0,0.0,0.0,0.0,0.0,0.0,0.0,0.0,0.0,0.0,0.0,0.0,0.0,0.0,0.0,0.0,0.0,0.0,0.0,0.0,0.0,0.0,0.0,0.0,0.0,0.0,0.0,0.0,0.0,0.0,0.0,0.0,0.0,0.0,0.0,0.0,0.0,0.0,0.0,0.0,0.0,0.0,0.0,0.0,0.0,0.0,0.0,0.0,0.0,0.0,0.0,0.0,0.0,0.0,0.0,0.0,0.0,0.0,0.0,0.0,0.0,0.0,0.0,0.0,0.0,0.0,0.0,0.0,0.0,0.0,0.0,0.0,0.0,0.0,0.0,0.0,0.0,0.0,0.0,0.0,0.0,0.0,0.0,0.0,0.0,0.0,0.0,0.0,0.0,0.0,0.0,0.0,0.0,0.0,0.0,0.0,0.0,0.0,0.0,-3.8681,-3.8925,-3.9406,-3.9437,-3.961,-4.007,-4.007,-3.9462,-3.799,-3.7905,0.0,0.0,0.0,0.0,0.0,0.0,0.0,0.0,0.0,0.0,0.0,0.0,0.0,0.0,0.0,0.0,0.0,0.0,0.0,0.0,0.0,0.0,0.0,0.0,0.0,0.0,0.0,0.0,0.0,0.0,0.0,0.0,0.0,0.0,0.0,0.0,0.0,0.0,0.0,0.0,0.0,0.0,0.0,0.0,0.0,0.0,0.0,0.0,0.0,0.0,0.0,0.0,0.0,0.0,0.0,0.0,0.0,0.0,0.0,0.0,0.0,0.0,0.0,0.0,0.0,0.0,0.0,0.0,0.0,0.0,0.0,0.0,0.0,0.0,0.0,0.0,0.0,0.0,0.0,0.0,0.0,0.0,0.0,0.0,0.0,0.0,0.0,0.0,0.0,0.0,0.0,0.0,0.0,0.0,0.0,0.0,0.0,0.0,0.0,0.0,0.0,0.0,-3.8683,-3.8908,-3.8908,-3.8908,-3.9139,-3.9782,-3.98,-3.9276,-3.799,-3.7736,0.0,0.0,0.0,0.0,0.0,0.0,0.0,0.0,0.0,0.0,0.0,0.0,0.0,0.0,0.0,0.0,0.0,0.0,0.0,0.0,0.0,0.0,0.0,0.0,0.0,0.0,0.0,0.0,0.0,0.0,0.0,0.0,0.0,0.0,0.0,0.0,0.0,0.0,0.0,0.0,0.0,0.0,0.0,0.0,0.0,0.0,0.0,0.0,0.0,0.0,0.0,0.0,0.0,0.0,0.0,0.0,0.0,0.0,0.0,0.0,0.0,0.0,0.0,0.0,0.0,0.0,0.0,0.0,0.0,0.0,0.0,0.0,0.0,0.0,0.0,0.0,0.0,0.0,0.0,0.0,0.0,0.0,0.0,0.0,0.0,0.0,0.0,0.0,0.0,0.0,0.0,0.0,0.0,0.0,0.0,0.0,0.0,0.0,0.0,0.0,0.0,0.0,-3.8519,-3.8908,-3.8908,-3.8908,-3.8908,-3.8962,-3.9059,-3.8734,-3.7956,-3.7246,0.0,0.0,0.0,0.0,0.0,0.0,0.0,0.0,0.0,0.0,0.0,0.0,0.0,0.0,0.0,0.0,0.0,0.0,0.0,0.0,0.0,0.0,0.0,0.0,0.0,0.0,0.0,0.0,0.0,0.0,0.0,0.0,0.0,0.0,0.0,0.0,0.0,0.0,0.0,0.0,0.0,0.0,0.0,0.0,0.0,0.0,0.0,0.0,0.0,0.0,0.0,0.0,0.0,0.0,0.0,0.0,0.0,0.0,0.0,0.0,0.0,0.0,0.0,0.0,0.0,0.0,0.0,0.0,0.0,0.0,0.0,0.0,0.0,0.0,0.0,0.0,0.0,0.0,0.0,0.0,0.0,0.0,0.0,0.0,0.0,0.0,0.0,0.0,0.0,0.0,0.0,0.0,0.0,0.0,0.0,0.0,0.0,0.0,0.0,0.0,0.0,0.0,-3.8824,-3.9437,0.0,-3.9368,-3.9662,-3.9662,-3.9649,-3.9174,-3.799,0.0,0.0,0.0,0.0,0.0,0.0,0.0,0.0,0.0,0.0,0.0,0.0,0.0,0.0,0.0,0.0,0.0,0.0,0.0,0.0,0.0,0.0,0.0,0.0,0.0,0.0,0.0,0.0,0.0,0.0,0.0,0.0,0.0,0.0,0.0,0.0,0.0,0.0,0.0,0.0,0.0,0.0,0.0,0.0,0.0,0.0,0.0,0.0,0.0,0.0,0.0,0.0,0.0,0.0,0.0,0.0,0.0,0.0,0.0,0.0,0.0,0.0,0.0,0.0,0.0,0.0,0.0,0.0,0.0,0.0,0.0,0.0,0.0,0.0,0.0,0.0,0.0,0.0,0.0,0.0,0.0,0.0,0.0,0.0,0.0,0.0,0.0,0.0,0.0,0.0,0.0,0.0,0.0,0.0,0.0,0.0,0.0,0.0,0.0,0.0,0.0,0.0,-3.7672,-3.8857,-3.9489,0.0,-3.9368,-3.9731,-3.9731,-3.9531,-3.8954,-3.7973,0.0,0.0,0.0,0.0,0.0,0.0,0.0,0.0,0.0,0.0,0.0,0.0,0.0,0.0,0.0,0.0,0.0,0.0,0.0,0.0,0.0,0.0,0.0,0.0,0.0,0.0,0.0,0.0,0.0,0.0,0.0,0.0,0.0,0.0,0.0,0.0,0.0,0.0,0.0,0.0,0.0,0.0,0.0,0.0,0.0,0.0,0.0,0.0,0.0,0.0,0.0,0.0,0.0,0.0,0.0,0.0,0.0,0.0,0.0,0.0,0.0,0.0,0.0,0.0,0.0,0.0,0.0,0.0,0.0,0.0,0.0,0.0,0.0,0.0,0.0,0.0,0.0,0.0,0.0,0.0,0.0,0.0,0.0,0.0,0.0,0.0,0.0,0.0,0.0,0.0,0.0,0.0,0.0,0.0,0.0,0.0,0.0,0.0,0.0,0.0,0.0,0.0,-3.7984,-3.8485,-3.8891,-3.8908,-3.8908,-3.8908,-3.8908,-3.8305,-3.7922,0.0,0.0,0.0,0.0,0.0,0.0,0.0,0.0,0.0,0.0,0.0,0.0,0.0,0.0,0.0,0.0,0.0,0.0,0.0,0.0,0.0,0.0,0.0,0.0,0.0,0.0,0.0,0.0,0.0,0.0,0.0,0.0,0.0,0.0,0.0,0.0,0.0,0.0,0.0,0.0,0.0,0.0,0.0,0.0,0.0,0.0,0.0,0.0,0.0,0.0,0.0,0.0,0.0,0.0,0.0,0.0,0.0,0.0,0.0,0.0,0.0,0.0,0.0,0.0,0.0,0.0,0.0,0.0,0.0,0.0,0.0,0.0,0.0,0.0,0.0,0.0,0.0,0.0,0.0,0.0,0.0,0.0,0.0,0.0,0.0,0.0,0.0,0.0,0.0,0.0,0.0,0.0,0.0,0.0,0.0,0.0,0.0,0.0,0.0,0.0,0.0,0.0,0.0,-3.7868,-3.8504,-3.916,-3.9664,-3.9731,-3.9731,-3.9731,-3.9092,-3.8447,-3.7939,0.0,0.0,0.0,0.0,0.0,0.0,0.0,0.0,0.0,0.0,0.0,0.0,0.0,0.0,0.0,0.0,0.0,0.0,0.0,0.0,0.0,0.0,0.0,0.0,0.0,0.0,0.0,0.0,0.0,0.0,0.0,0.0,0.0,0.0,0.0,0.0,0.0,0.0,0.0,0.0,0.0,0.0,0.0,0.0,0.0,0.0,0.0,0.0,0.0,0.0,0.0,0.0,0.0,0.0,0.0,0.0,0.0,0.0,0.0,0.0,0.0,0.0,0.0,0.0,0.0,0.0,0.0,0.0,0.0,0.0,0.0,0.0,0.0,0.0,0.0,0.0,0.0,0.0,0.0,0.0,0.0,0.0,0.0,0.0,0.0,0.0,0.0,0.0,0.0,0.0,0.0,0.0,0.0,0.0,0.0,0.0,0.0,0.0,0.0,0.0,0.0,0.0,-3.7701,-3.8472,-3.9157,-3.9597,-3.9901,-4.007,-4.007,-3.9411,-3.8684,-3.7956,0.0,0.0,0.0,0.0,0.0,0.0,0.0,0.0,0.0,0.0,0.0,0.0,0.0,0.0,0.0,0.0,0.0,0.0,0.0,0.0,0.0,0.0,0.0,0.0,0.0,0.0,0.0,0.0,0.0,0.0,0.0,0.0,0.0,0.0,0.0,0.0,0.0,0.0,0.0,0.0,0.0,0.0,0.0,0.0,0.0,0.0,0.0,0.0,0.0,0.0,0.0,0.0,0.0,0.0,0.0,0.0,0.0,0.0,0.0,0.0,0.0,0.0,0.0,0.0,0.0,0.0,0.0,0.0,0.0,0.0,0.0,0.0,0.0,0.0,0.0,0.0,0.0,0.0,0.0,0.0,0.0,0.0,0.0,0.0,0.0,0.0,0.0,0.0,0.0,0.0,0.0,0.0,0.0,0.0,0.0,0.0,0.0,0.0,0.0,0.0,0.0,0.0,-3.7482,-3.8265,-3.8836,-3.8988,-3.958,-4.0003,-4.007,-3.9411,-3.8684,-3.7956,0.0,0.0,0.0,0.0,0.0,0.0,0.0,0.0,0.0,0.0,0.0,0.0,0.0,0.0,0.0,0.0,0.0,0.0,0.0,0.0,0.0,0.0,0.0,0.0,0.0,0.0,0.0,0.0,0.0,0.0,0.0,0.0,0.0,0.0,0.0,0.0,0.0,0.0,0.0,0.0,0.0,0.0,0.0,0.0,0.0,0.0,0.0,0.0,0.0,0.0,0.0,0.0,0.0,0.0,0.0,0.0,0.0,0.0,0.0,0.0,-2.0097,0.0,0.0,0.0,0.0,0.0,0.0,0.0,0.0,0.0,0.0,0.0,0.0,0.0,0.0,0.0,0.0,0.0,0.0,0.0,0.0,0.0,0.0,0.0,0.0,0.0,0.0,0.0,0.0,0.0,0.0,0.0,0.0,0.0,0.0,0.0,0.0,0.0,0.0,0.0,0.0,0.0,-3.7498,-3.7359,-3.7702,-3.887,-3.914,-3.9462,-4.002,-3.9411,-3.8684,-3.7956,-3.7195,0.0,0.0,0.0,0.0,0.0,0.0,0.0,0.0,0.0,0.0,0.0,0.0,0.0,0.0,0.0,0.0,0.0,0.0,0.0,0.0,0.0,0.0,0.0,0.0,0.0,0.0,0.0,0.0,0.0,0.0,0.0,0.0,0.0,0.0,0.0,0.0,0.0,0.0,0.0,0.0,0.0,0.0,0.0,0.0,0.0,0.0,0.0,0.0,0.0,0.0,0.0,0.0,0.0,0.0,0.0,0.0,0.0,0.0,0.0,0.0,-2.3353,0.0,0.0,0.0,0.0,0.0,0.0,0.0,0.0,0.0,0.0,0.0,0.0,0.0,0.0,0.0,0.0,0.0,0.0,0.0,0.0,0.0,0.0,0.0,0.0,0.0,0.0,0.0,0.0,0.0,0.0,0.0,0.0,0.0,0.0,0.0,0.0,0.0,0.0,0.0,0.0,-3.7329,-3.7024,-3.7077,-3.7855,-3.8261,-3.8633,-3.9005,-3.8684,-3.8159,-3.7415,-3.6992,0.0,0.0,0.0,0.0,0.0,0.0,0.0,0.0,0.0,0.0,0.0,0.0,0.0,0.0,0.0,0.0,0.0,0.0,0.0,0.0,0.0,0.0,0.0,0.0,0.0,0.0,0.0,0.0,0.0,0.0,0.0,0.0,0.0,0.0,0.0,0.0,0.0,0.0,0.0,0.0,0.0,0.0,0.0,0.0,0.0,0.0,0.0,0.0,0.0,0.0,0.0,0.0,0.0,0.0,0.0,-0.8457,-0.9826,-1.3171,-1.7995,-1.9255,-2.2233,-2.6298,0.0,0.0,0.0,0.0,0.0,0.0,0.0,0.0,0.0,0.0,0.0,0.0,0.0,0.0,0.0,0.0,0.0,0.0,0.0,0.0,0.0,0.0,0.0,0.0,0.0,-4.1133,-4.0701,0.0,0.0,0.0,0.0,0.0,0.0,0.0,0.0,0.0,0.0,0.0,0.0,-3.7058,-3.6775,-3.662,-3.6772,-3.733,-3.777,-3.7889,-3.7905,-3.7584,-3.6823,-3.6772,-3.6434,0.0,0.0,0.0,0.0,0.0,0.0,0.0,0.0,0.0,0.0,0.0,0.0,0.0,0.0,0.0,0.0,0.0,0.0,0.0,0.0,0.0,0.0,0.0,0.0,0.0,0.0,0.0,0.0,0.0,0.0,0.0,0.0,1.1714,1.2073,0.0,0.0,0.0,0.0,0.0,0.0,0.0,0.0,0.0,0.0,0.0,0.0,0.0,0.0,0.401,0.2883,0.1452,-0.021,-0.2524,-0.5967,-1.0301,-1.1661,-1.4943,-1.9654,-2.0801,0.0,-2.6558,-2.8293,0.0,0.0,0.0,0.0,0.0,0.0,0.0,0.0,0.0,0.0,0.0,0.0,0.0,0.0,0.0,0.0,0.0,0.0,0.0,0.0,0.0,0.0,-4.0204,-4.0303,-4.0254,-4.017,0.0,-3.9807,-3.9261,-3.8539,0.0,0.0,0.0,0.0,0.0,0.0,0.0,0.0,-3.658,-3.607,-3.6028,-3.6705,-3.6874,-3.7195,-3.7855,-3.7905,-3.7584,-3.6823,-3.6772,-3.6434,-3.5656,-3.5622,0.0,0.0,0.0,0.0,0.0,0.0,0.0,0.0,0.0,0.0,0.0,0.0,0.0,0.0,0.0,0.0,0.0,0.0,0.0,0.0,0.0,0.0,0.0,0.0,0.0,0.0,0.0,0.0,0.0,0.9754,1.0045,0.9755,0.9317,0.9112,0.0,0.0,0.0,0.0,0.0,0.0,0.0,0.0,0.0,0.3835,0.3141,0.2016,0.0324,-0.0216,-0.1617,-0.3866,-0.5894,-0.8604,-1.1844,-1.3976,-1.6819,-1.9931,-2.1217,-2.3575,-2.6614,-2.8553,-3.1043,-3.3931,0.0,0.0,0.0,0.0,0.0,0.0,-3.7263,0.0,0.0,0.0,0.0,0.0,0.0,0.0,0.0,0.0,0.0,0.0,0.0,0.0,0.0,-4.007,-4.007,-4.007,-4.007,-3.9628,-3.9178,0.0,-3.842,-3.7922,-3.8093,0.0,0.0,0.0,0.0,0.0,-3.6416,-3.5941,-3.574,-3.6096,-3.6129,-3.6265,-3.6586,-3.662,-3.6485,-3.6146,-3.6129,-3.5977,-3.5639,-3.5622,-3.5622,0.0,0.0,0.0,0.0,0.0,0.0,0.0,0.0,0.0,0.0,0.0,0.0,0.0,0.0,0.0,0.0,0.0,0.0,0.0,0.0,0.0,0.0,0.0,0.0,0.0,0.0,0.0,0.0,0.755,0.7949,0.7946,0.7171,0.6753,0.0,0.0,0.0,0.0,0.0,0.0,0.397,0.3628,0.3064,0.2046,0.12,-0.0221,-0.2347,-0.2794,-0.4327,-0.6684,-0.8177,-1.0249,-1.2868,-1.5531,-1.8025,-2.0063,-2.1648,-2.3957,-2.6637,-2.808,-3.0585,-3.3582,-3.4508,-3.5793,0.0,-3.7397,-3.7338,-3.7115,-3.6523,-3.6337,-3.6337,-3.6337,0.0,-3.7265,-3.7465,0.0,0.0,0.0,0.0,-3.9833,-4.007,0.0,-3.98,-3.98,-3.9648,-3.9529,-3.9529,-3.9219,-3.8986,0.0,-3.8547,-3.793,-3.7817,0.0,0.0,0.0,0.0,-3.6333,-3.6224,-3.5871,-3.5622,-3.5622,-3.5622,-3.5622,-3.5622,-3.5622,-3.5622,-3.5622,-3.5622,-3.5622,-3.5622,-3.5622,-3.5622,-3.5622,0.0,0.0,0.0,0.0,0.0,0.0,0.0,0.0,0.0,0.0,0.0,0.0,0.0,0.0,0.0,0.0,0.0,0.0,0.0,0.0,0.0,0.0,0.0,0.0,0.0,0.0,0.0,0.0,0.0,0.7511,0.557,0.0,0.0,0.0,0.0,0.3893,0.3879,0.388,0.4011,0.28,0.2084,0.2009,-0.0781,-0.2234,-0.2235,-0.3795,-0.5355,-0.6692,-0.8213,-1.0389,-1.3332,-1.5701,-1.8067,-2.052,-2.2437,-2.4528,-2.6472,-2.6637,-2.8999,-3.2721,-3.3582,-3.4626,-3.5668,-3.6384,-3.6228,-3.5619,-3.5569,-3.5554,-3.5554,-3.5554,-3.5581,-3.5773,-3.6524,-3.6806,0.0,0.0,-3.8397,-3.9139,-3.9901,-3.9563,-3.9056,-3.9056,-3.8514,-3.8024,-3.8024,-3.8403,-3.856,0.0,-3.7407,-3.6791,-3.6523,0.0,-3.6457,-3.6457,-3.6416,-3.6224,-3.5694,-3.5622,-3.5622,-3.5622,-3.5622,-3.5622,-3.5622,-3.5622,-3.5622,-3.5622,-3.5622,-3.5622,-3.5622,-3.5622,-3.5622,-3.5622,-3.5622,0.0,0.0,0.0,0.0,0.0,0.0,0.0,0.0,0.0,0.0,0.0,0.0,0.0,0.0,0.0,0.0,0.0,0.0,0.0,0.0,0.0,0.0,0.0,0.0,0.0,0.0,0.0,0.0,0.5264,0.4467,0.0,0.4491,0.3222,0.2453,0.2487,0.1745,0.1372,0.1405,0.0,-0.0898,-0.0923,-0.2882,-0.4401,-0.5381,-0.5905,-0.732,-0.9709,-1.0916,-1.2529,-1.4528,-1.6921,-1.8799,-2.0206,-2.1749,-2.4045,-2.6483,-2.6483,-2.8934,-3.2593,-3.2905,-3.4066,-3.5504,-3.5782,-3.5733,-3.5504,-3.5504,-3.5504,-3.5494,-3.5552,-3.5306,-3.5147,-3.5896,-3.6117,-3.6281,-3.6973,-3.7049,-3.7085,-3.7783,-3.7446,-3.7042,-3.7469,-3.7386,-3.7319,-3.7793,-3.8061,-3.7984,-3.731,-3.7274,-3.7188,-3.6727,-3.6239,-3.5898,-3.5898,-3.5898,-3.5827,-3.5605,-3.5622,-3.5622,-3.5622,-3.5622,-3.5622,-3.5622,-3.5622,-3.5622,-3.5622,-3.5622,-3.5622,-3.5622,-3.5622,-3.5622,-3.5622,-3.5622,-3.5622,0.0,0.0,0.0,0.0,0.0,0.0,0.0,0.0,0.0,0.0,0.0,0.0,0.0,0.0,0.0,0.0,0.0,0.0,0.0,0.0,0.0,0.0,0.0,0.0,0.0,0.0,0.2864,0.3866,0.3117,0.2655,0.3185,0.2006,0.1215,0.1231,0.0423,0.0,0.0,-0.1566,-0.2398,-0.2347,-0.4339,-0.5875,-0.6965,-0.7478,-0.8833,-1.1075,-1.2361,-1.3567,-1.4894,-1.7817,-1.9407,-2.0017,-2.1679,-2.3944,-2.6483,-2.6483,-2.8712,-3.2105,-3.2105,-3.3325,-3.4986,-3.4986,-3.5065,-3.513,-3.4906,-3.4831,-3.4868,-3.5199,-3.5025,-3.4765,-3.5275,-3.541,-3.548,-3.5959,-3.5786,-3.5584,-3.6251,-3.593,-3.5594,-3.627,-3.624,-3.6224,-3.6969,-3.7127,-3.6992,-3.6485,-3.6898,-3.7117,-3.6508,-3.596,-3.5622,-3.5622,-3.5622,-3.5622,-3.5622,-3.5622,-3.5622,-3.5622,-3.5622,-3.5622,-3.5622,-3.5622,-3.5622,-3.5622,-3.5622,-3.5622,-3.5622,-3.5622,-3.5622,-3.5622,-3.5622,-3.5622,-3.5622,0.0,0.0,0.0,0.0,0.0,0.0,0.0,0.0,0.0,0.0,0.0,0.0,0.0,0.0,0.0,0.0,0.0,0.0,0.0,0.0,0.0,0.0,0.0,0.1617,0.0743,0.0953,0.342,0.1551,0.0498,0.1856,0.0715,0.0,0.0,0.0,-0.011,-0.0112,-0.1478,-0.231,-0.2347,-0.5387,-0.6854,-0.6744,-0.8338,-0.9765,-1.0728,-1.2183,-1.3424,-1.4725,-1.8245,-1.9821,-1.9992,-2.2119,-2.4307,-2.6472,-2.6483,-2.8275,-3.1093,-3.1154,-3.2294,-3.3984,-3.3969,-3.4142,-3.4352,-3.3724,-3.3484,-3.3577,-3.4383,-3.4515,-3.4435,-3.4552,-3.4515,-3.442,-3.4596,-3.4643,-3.4784,-3.5505,-3.5171,-3.478,-3.543,-3.5054,-3.4736,-3.5407,-3.5532,-3.5532,-3.5532,-3.6168,-3.6502,-3.574,-3.5622,-3.5622,-3.5622,-3.5622,0.0,-3.5622,-3.5577,-3.5577,-3.5622,-3.5577,-3.5577,-3.5622,-3.5622,-3.5622,-3.5622,-3.5622,-3.5622,-3.5622,-3.5622,-3.5622,-3.5622,-3.5622,-3.5622,-3.5622,0.0,0.0,0.0,0.0,0.0,0.0,0.0,0.0,0.0,0.0,0.0,0.0,0.0,0.0,0.0,0.0,0.0,0.0,0.0,0.0,0.0,0.0,0.0092,0.0459,0.019,0.0292,0.0973,0.0401,0.0103,0.0518,0.0212,0.0,0.0,-0.0992,-0.1567,-0.1593,-0.411,-0.5645,-0.562,-0.7528,-0.8502,-0.8464,-0.8716,-0.9965,-1.2192,-1.2299,-1.3529,-1.5875,-1.7574,-1.8822,-1.9729,-2.1168,-2.3144,-2.5294,-2.6141,-2.7429,-2.9061,-3.0203,-3.1705,-3.3321,-3.2846,-3.3167,-3.3739,-3.3559,-3.3185,-3.2781,-3.3005,-3.275,-3.2302,-3.2342,-3.2359,-3.2464,-3.3054,-3.2782,-3.2555,-3.3294,-3.2934,-3.2588,-3.3269,-3.3287,-3.3339,-3.4003,-3.4153,-3.4153,-3.4153,-3.4708,-3.5302,-3.5549,-3.5622,-3.5622,-3.5622,0.0,0.0,-3.5622,-3.5207,-3.5052,-3.556,-3.5161,-3.5052,-3.5577,-3.5622,-3.5622,-3.5622,-3.5622,-3.5622,-3.5622,-3.5622,-3.5622,-3.5622,-3.5622,-3.5622,0.0,0.0,0.0,0.0,0.0,0.0,0.0,0.0,0.0,0.0,0.0,0.0,0.0,0.0,0.0,0.0,0.0,0.0,0.0,0.0,0.0,0.0,-0.1696,-0.1724,-0.1724,-0.0777,0.0,0.0,0.0,0.0,0.0,-0.0543,-0.088,-0.0892,-0.2345,-0.3143,-0.3174,-0.5435,-0.6825,-0.6774,-0.8307,-0.9032,-0.8967,-0.9334,-1.0538,-1.255,-1.2894,-1.4109,-1.6175,-1.7218,-1.8319,0.0,-2.0755,-2.26,-2.4872,-2.5546,-2.6583,0.0,0.0,0.0,0.0,0.0,-3.2623,-3.3036,-3.2766,-3.2422,-3.2093,-3.2093,-3.2033,-3.1898,-3.1556,-3.1676,-3.1942,-3.2099,-3.1853,-3.1582,-3.2007,-3.1796,-3.1697,-3.2437,-3.2586,-3.2788,-3.3443,-3.3582,-3.3582,-3.3582,0.0,0.0,-3.4704,-3.5005,-3.5098,-3.48,-3.4752,-3.4752,0.0,-3.4447,-3.4333,-3.4704,-3.4382,-3.4333,-3.4752,-3.4752,0.0,0.0,0.0,-3.4752,-3.4752,-3.4752,0.0,0.0,0.0,-3.4752,0.0,0.0,0.0,0.0,-3.646,-3.6705,0.0,0.0,0.0,0.0,0.0,0.0,0.0,0.0,0.0,0.0,0.0,0.0,0.0,0.0,0.0,0.0,-0.4082,-0.4225,-0.4243,-0.1897,-0.0299,-0.0507,-0.0517,-0.0533,-0.0558,-0.1773,-0.2449,-0.2515,-0.3954,-0.4814,-0.4695,0.0,0.0,0.0,0.0,-0.8849,-0.8713,-0.9945,-1.1218,-1.2264,-1.3441,-1.4698,-1.5825,-1.7131,-1.8319,-1.9588,-2.0755,-2.2522,-2.4617,-2.4735,-2.5709,-2.721,-2.84,-2.9797,-3.1267,-3.1973,-3.2273,0.0,0.0,0.0,0.0,-3.1482,-3.1928,-3.2302,-3.1704,-3.1943,-3.2273,-3.1704,-3.1482,-3.1482,-3.1482,-3.1482,-3.164,-3.2327,-3.2492,-3.2641,-3.3235,-3.3375,-3.3375,-3.3375,-3.3443,-3.3443,-3.3391,-3.3987,-3.4284,-3.3684,-3.3582,0.0,-3.3582,-3.3531,-3.3547,-3.3582,0.0,0.0,-3.3582,-3.3582,-3.3582,-3.3582,-3.3582,-3.3582,-3.3582,-3.3582,-3.3582,-3.3582,-3.3582,-3.363,-3.371,-3.371,-3.442,-3.581,-3.6496,-3.7199,0.0,0.0,0.0,0.0,0.0,0.0,0.0,0.0,0.0,0.0,0.0,0.0,0.0,0.0,0.0,-0.4022,-0.4187,-0.4262,-0.4393,-0.2936,-0.2201,-0.3467,-0.3672,-0.3756,-0.3792,-0.4108,-0.4383,-0.4236,-0.5587,-0.6339,-0.6258,-0.7706,0.0,-0.8491,-0.86,-0.874,-0.871,-0.9804,-1.0941,-1.2164,0.0,0.0,-1.5825,-1.7131,-1.8319,-1.9588,-2.0755,-2.211,-2.3434,-2.4074,-2.5013,-2.626,-2.7908,-2.8565,-2.8665,-3.0159,-3.0698,-3.0819,-3.1322,-3.1482,-3.1482,-3.1482,-3.1556,-3.1646,-3.1511,-3.1556,0.0,-3.1511,-3.1482,-3.1482,-3.1482,-3.1482,-3.1539,-3.1697,-3.1682,-3.1739,-3.1894,-3.1894,-3.1894,-3.1894,-3.2367,-3.2571,-3.1992,-3.2971,-3.3735,-3.3633,-3.3582,-3.3582,-3.3582,-3.3145,-3.2986,-3.3531,-3.3093,-3.2986,-3.3531,-3.3582,-3.3582,-3.3582,-3.3582,-3.3582,-3.3582,-3.3582,-3.3582,-3.3582,-3.3582,-3.387,-3.443,-3.443,-3.5139,-3.6483,-3.6713,-3.7185,0.0,0.0,0.0,0.0,0.0,0.0,0.0,0.0,0.0,0.0,0.0,-0.4851,0.0,0.0,-0.538,-0.6248,-0.6445,-0.6566,-0.68,-0.6127,-0.5318,-0.4627,-0.3958,-0.3933,-0.4683,-0.5458,-0.5977,-0.586,-0.7271,-0.7978,-0.7915,-0.853,-0.8903,-0.8825,-0.875,-0.8638,-0.8492,-1.0259,-1.1516,-1.2107,-1.3943,-1.5146,-1.5825,-1.648,-1.7762,-1.9488,-2.0124,-2.14,-2.3173,-2.3567,-2.4211,-2.5117,-2.6291,-2.7152,-2.7855,-2.9192,-2.995,-3.0329,-3.0777,-3.1161,-3.1482,-3.1482,-3.1482,-3.1482,-3.1482,-3.1482,-3.1482,-3.1482,-3.1482,-3.1482,-3.1482,-3.1482,-3.1482,-3.1482,-3.1482,-3.1482,-3.1482,-3.1482,-3.1482,-3.1482,-3.1796,-3.1951,-3.1582,-3.2104,-3.2555,-3.2555,-3.2555,-3.2555,-3.2555,-3.2272,-3.216,-3.2501,-3.2256,-3.216,-3.2501,-3.2555,-3.2555,-3.2555,-3.2555,-3.2555,-3.2555,-3.2555,-3.2726,-3.3067,-3.3067,-3.3408,-3.4032,-3.4032,-3.4774,-3.6164,-3.6182,-3.6783,0.0,0.0,0.0,0.0,0.0,0.0,0.0,0.0,-0.4293,-0.5415,-0.5863,-0.638,-0.7604,-0.7183,-0.7065,-0.8411,-0.8699,-0.8889,-0.9161,-0.8845,-0.7703,-0.5617,-0.4465,-0.433,-0.5496,-0.6835,-0.7589,-0.7522,-0.8656,-0.9205,-0.9117,-0.9028,-0.8896,-0.8716,-0.8682,-0.8642,-0.8674,-1.0934,-1.2216,-1.2334,-1.4663,-1.5832,-1.5832,-1.5832,-1.7023,-1.9222,-1.9679,-2.1042,-2.2918,-2.3156,-2.347,-2.3849,-2.4426,-2.5742,-2.7324,-2.8363,-2.9192,-2.9827,-3.0011,-3.0464,-3.1029,-3.1219,-3.1278,-3.1278,-3.1467,-3.1482,-3.1482,-3.1482,-3.1482,-3.1482,-3.1482,-3.1482,-3.1482,-3.1482,-3.1482,-3.1482,-3.1482,-3.1482,-3.1482,-3.1482,-3.1482,-3.1482,-3.1482,-3.1482,-3.1482,-3.1482,-3.1482,-3.1482,-3.1482,-3.1482,-3.1482,-3.1482,-3.1482,-3.1482,-3.1482,-3.1601,-3.1661,-3.1661,-3.1839,-3.1913,-3.1913,-3.1913,-3.2108,-3.2497,-3.2647,-3.2961,-3.3499,-3.3619,-3.4364,-3.5584,-3.5584,-3.6388,0.0236,0.0157,-0.0159,-0.1411,-0.1574,-0.1837,0.0,0.0,-0.5323,-0.5704,-0.6611,-0.7472,-0.7861,-0.8039,-0.828,-0.8818,-0.9008,-0.9164,-0.9334,-0.8067,-0.7519,-0.8533,-0.8657,-0.864,-0.8907,-0.9255,-0.9427,-0.9189,-0.9382,-0.9384,-0.8984,-0.9069,-0.9001,-0.872,-0.8577,-0.9042,-0.9965,-1.1288,-1.2549,-1.368,-1.5146,-1.5832,-1.5832,-1.5832,-1.6574,-1.8048,-2.0124,-2.1447,-2.2095,-2.2991,-2.2888,-2.2327,-2.3316,-2.4325,-2.5487,-2.7191,-2.792,-2.8117,-2.8876,-2.9192,-2.938,-3.0208,-3.045,-3.0584,-3.1278,-3.1482,-3.1482,-3.1482,-3.1482,-3.1482,-3.1482,-3.1482,-3.1482,-3.1482,-3.1482,-3.1482,-3.1482,-3.1482,-3.1482,-3.1482,-3.1482,-3.1482,-3.1482,-3.1482,-3.1482,-3.1482,-3.1482,-3.1482,-3.1482,-3.1482,-3.1482,-3.1482,-3.1482,-3.1482,-3.1482,-3.2078,-3.2407,-3.2407,-3.2961,-3.3275,-3.3275,-3.3275,-3.3036,-3.2527,-3.308,-3.3425,-3.3499,-3.4083,-3.479,-3.5499,-3.5499,-3.6353,0.0,0.0,-0.0493,-0.2337,-0.2316,-0.2565,-0.5299,-0.5723,-0.5877,-0.681,-0.7334,-0.7841,-0.8225,-0.835,-0.857,0.0,-0.9171,-0.9239,-0.9479,-0.8654,-0.8348,-0.8917,-0.9008,-0.9059,-0.9232,-0.9361,-0.9456,-0.951,-0.9408,-0.93,-0.9201,-0.9089,-0.8889,-0.8587,-0.8516,-0.898,-1.0112,-1.1306,-1.2528,-1.3878,-1.5146,-1.5832,-1.5832,-1.5832,-1.6842,-1.8864,-2.1311,-2.2342,-2.2246,-2.2635,-2.2798,-2.2804,-2.2992,-2.394,-2.5409,-2.5935,-2.6786,-2.7736,-2.8117,-2.8556,-2.9066,-2.9442,-2.9566,-2.9628,-2.995,-3.0072,-3.0133,-3.0644,-3.0777,-3.0896,-3.1409,-3.1482,-3.1482,-3.1482,-3.1482,-3.1482,-3.1482,-3.1482,-3.1482,-3.1482,-3.1482,-3.1482,-3.1482,-3.1482,-3.1482,-3.1482,-3.1482,-3.1616,-3.2063,-3.2108,-3.2258,-3.2632,-3.2677,-3.2527,-3.2138,-3.2706,-3.2916,-3.2542,-3.3125,-3.3499,-3.3499,-3.3499,-3.3544,-3.3649,-3.3918,-3.4262,-3.4666,-3.4936,-3.522,-3.5504,-3.5504,-3.5861,-0.0477,-0.0734,-0.1432,-0.3233,-0.3108,-0.3328,-0.6351,-0.6435,-0.625,-0.755,-0.7875,-0.7987,-0.8353,-0.8489,-0.8713,-0.9232,-0.9296,-0.9357,-0.9578,-0.9256,-0.8984,-0.8944,-0.873,-0.8689,-0.8944,-0.9079,-0.9245,-0.9466,-0.9357,-0.9273,-0.9259,-0.9133,-0.8882,-0.8496,-0.879,-0.9457,-1.0489,-1.1848,-1.3108,-1.4459,-1.5343,-1.5832,-1.5832,-1.5832,-1.7117,-1.9579,-2.132,-2.2263,-2.251,-2.251,-2.2645,-2.2898,-2.2457,-2.3349,-2.4723,-2.4303,-2.5521,-2.7351,-2.7351,-2.7802,-2.8363,-2.8556,-2.862,-2.8684,-2.8939,-2.9002,-2.9129,-2.9766,-2.995,-3.0072,-3.0644,-3.097,-3.1161,-3.1161,-3.1351,-3.1482,-3.1482,-3.1482,-3.1482,-3.1482,-3.1482,-3.1482,-3.1482,-3.1482,-3.1482,-3.1482,-3.1631,-3.1973,-3.2452,-3.2677,-3.2961,-3.344,-3.3499,-3.3305,-3.2826,-3.338,-3.3559,-3.308,-3.3679,-3.4053,-3.4053,-3.4053,-3.4188,-3.4472,-3.4666,-3.4906,-3.522,-3.5415,-3.5504,-3.5504,-3.5504,-3.5504,-0.169,-0.2634,-0.3556,-0.3705,-0.3897,-0.4281,-0.5704,-0.6047,-0.6377,-0.77,-0.8031,-0.8082,-0.8248,-0.8509,-0.8804,-0.911,-0.9405,-0.9598,-0.9608,-0.9344,-0.9093,-0.8954,-0.8554,-0.834,0.0,-0.8896,-0.9157,-0.9164,-0.9435,-0.9408,-0.8974,-0.9215,-0.9096,-0.8503,-0.9719,-1.0875,-1.1853,-1.3199,-1.4459,-1.573,-1.5825,-1.5832,-1.5832,-1.5832,-1.7117,-1.9497,-1.9579,-2.0731,-2.251,-2.251,-2.2266,-2.1918,-2.1396,-2.1908,-2.2745,-2.2282,-2.4013,-2.6521,-2.6521,-2.6521,-2.6714,-2.7484,-2.7736,-2.792,-2.8748,-2.9002,-2.9002,-2.9002,-2.9066,-2.9066,-2.9066,-2.969,-3.0329,-3.0329,-3.0896,-3.1482,-3.1482,-3.1482,-3.1482,-3.1482,-3.1482,-3.1482,-3.1482,-3.1482,-3.1482,-3.1482,-3.2078,-3.2497,-3.2512,-3.3066,-3.3469,-3.3499,-3.3499,-3.3484,-3.3469,-3.4068,-3.4442,-3.4412,-3.507,-3.5444,-3.5444,-3.5444,-3.513,-3.4487,-3.513,-3.516,-3.4502,-3.5175,-3.5504,-3.5504,-3.5504,-3.5504,-0.2965,-0.332,-0.3974,-0.497,-0.5287,-0.5689,-0.7024,-0.7365,-0.7451,-0.7801,-0.7889,-0.7906,-0.7957,-0.813,-0.8397,-0.8794,-0.911,-0.9306,-0.9306,-0.9218,-0.9025,-0.8676,-0.8503,0.0,0.0,0.0,0.0,-0.8988,-0.9106,-0.914,-0.9083,-0.9174,-0.9045,-0.8645,-0.9997,-1.1232,-1.238,-1.3517,-1.4826,-1.6119,-1.5925,-1.5832,-1.5832,-1.6669,-1.7948,-1.9588,-2.0305,-2.1505,-2.293,-2.293,-2.2842,-2.2676,-2.2246,-2.2523,-2.3039,-2.259,-2.3348,-2.4612,-2.5288,-2.5955,-2.6521,-2.685,-2.6905,-2.6973,-2.7229,-2.7351,-2.7484,-2.7986,-2.8117,-2.8233,-2.8876,-2.9192,-2.9442,-2.9442,-2.9628,-2.9827,-2.9827,-2.9827,-2.9827,-2.9827,-2.9827,-2.9827,-2.9827,-2.9827,-2.9955,-3.0318,-3.1948,-3.332,-3.3769,-3.4412,-3.4831,-3.4831,-3.4831,-3.4651,-3.4188,-3.4771,-3.4966,-3.4502,-3.513,-3.5504,-3.5504,-3.5504,-3.5385,-3.516,-3.5385,-3.5385,-3.516,-3.5385,-3.5504,-3.5504,-3.5504,-3.5504,-0.4253,-0.4689,-0.5428,-0.6369,-0.671,-0.6929,-0.7816,-0.7997,-0.7916,-0.7767,-0.7692,-0.7655,-0.7655,-0.778,-0.8028,-0.8479,-0.8757,-0.8971,-0.913,-0.9062,-0.8927,-0.8743,-0.8628,-0.8584,0.0,0.0,0.0,-0.8913,-0.9035,-0.9093,-0.9079,-0.9123,-0.9018,-0.872,-1.0613,-1.1882,-1.2597,-1.4277,-1.556,-1.6273,-1.6079,-1.5932,-1.5832,-1.6669,-1.7677,-1.8956,-2.0124,-2.1302,-2.2492,-2.295,-2.3135,-2.3096,-2.2676,-2.2735,-2.2982,-2.2533,-2.2766,-2.3315,-2.4177,-2.5146,-2.5943,-2.5943,-2.6233,-2.6533,-2.6533,-2.6533,-2.6589,-2.7095,-2.7297,-2.7417,-2.7986,-2.8298,-2.8556,-2.8556,-2.8748,-2.9002,-2.9002,-2.9002,-2.9002,-2.9002,-2.9002,-2.9002,-2.9002,-2.9002,-2.9279,-3.0028,-3.1482,-3.2786,-3.3347,-3.4068,-3.4476,-3.4476,-3.4773,-3.4809,-3.4366,-3.5041,-3.531,-3.4876,-3.5265,-3.5504,-3.5504,-3.5504,-3.5504,-3.5504,-3.5504,-3.5504,-3.5504,-3.5504,-3.5504,-3.5504,-3.5504,-3.5504,-0.5582,-0.6648,-0.7645,-0.7787,-0.7933,-0.8038,-0.8028,-0.7916,-0.7767,-0.7607,-0.7465,-0.7366,0.0,0.0,-0.774,-0.8177,-0.8384,-0.8645,-0.9079,-0.8913,-0.8845,0.0,0.0,0.0,0.0,0.0,0.0,-0.895,0.0,-0.9249,-0.8974,-0.9096,-0.9039,-0.8743,-1.138,-1.2755,-1.2633,-1.5392,-1.6573,-1.6273,-1.6273,-1.6119,-1.5832,-1.5832,-1.648,-1.7777,-1.8956,-2.0124,-2.1293,-2.2492,-2.3047,-2.3008,-2.2695,-2.2529,-2.2461,-2.206,-2.2251,-2.2699,-2.3229,-2.4082,-2.5004,-2.5004,-2.5664,-2.6533,-2.6533,-2.6533,-2.6533,-2.6533,-2.6533,-2.6533,-2.6533,-2.7095,-2.767,-2.767,-2.8233,-2.8876,-2.8876,-2.8876,-2.8876,-2.8876,-2.8876,-2.8889,-2.8917,-2.8917,-2.9329,-3.0526,-3.0704,-3.0924,-3.1599,-3.2177,-3.2593,-3.2593,-3.338,-3.3959,-3.4027,-3.4839,-3.5439,-3.5504,-3.5504,-3.5504,-3.5504,-3.5504,-3.5504,-3.5504,-3.5504,-3.5504,-3.5504,-3.5504,-3.5504,-3.5504,-3.5504,-3.5504,-0.706,-0.7429,-0.7794,-0.7943,-0.8011,-0.8011,-0.7896,-0.7838,-0.7706,-0.7336,-0.7319,-0.7305,-0.7082,-0.7346,0.0,-0.7892,-0.8336,0.0,-0.896,-0.9117,0.0,-0.9157,-0.9188,-0.9181,-0.9106,-0.9269,0.0,0.0,-0.9232,-0.9228,-0.9266,-0.9412,-0.9354,-0.9049,-1.1788,-1.3217,-1.3098,-1.5774,-1.678,-1.6273,-1.6273,-1.6119,-1.5832,-1.5832,-1.648,-1.7692,-1.8056,-1.8864,-2.0034,-2.1302,-2.1756,-2.1836,-2.2659,-2.2783,-2.25,-2.2393,-2.2237,-2.2088,-2.2292,-2.3471,-2.5004,-2.5004,-2.5664,-2.6533,-2.6533,-2.6533,-2.6533,-2.6533,-2.6533,-2.6533,-2.6533,-2.6658,-2.6782,-2.6782,-2.6973,-2.7162,-2.7162,-2.7162,-2.7162,-2.7162,-2.7162,-2.7224,-2.7649,-2.7726,-2.8112,-2.9246,-2.9413,-3.0092,-3.2077,-3.251,-3.2593,-3.2593,-3.282,-3.3241,-3.3945,-3.4245,-3.4691,-3.5424,-3.5504,-3.5504,-3.5504,-3.5504,-3.5504,-3.5504,-3.5504,-3.5504,-3.5504,-3.5504,-3.5504,-3.5504,-3.5504,-3.5504,-0.775,-0.7946,-0.8113,-0.8136,-0.8089,-0.7997,-0.7845,-0.7712,-0.7526,-0.7207,-0.716,-0.7126,-0.6959,-0.7187,-0.7468,0.0,0.0,0.0,-0.8889,-0.9083,-0.9252,0.0,-0.9466,0.0,-0.9449,-0.9544,-0.9598,0.0,-0.9439,-0.9361,-0.9381,-0.9462,-0.9743,-1.0164,-1.227,-1.404,-1.5209,-1.6669,-1.7048,-1.6466,-1.6466,-1.6239,-1.5832,-1.5832,-1.6204,-1.6943,0.0,-1.8048,-1.8864,-2.0576,-2.1293,-2.1391,-2.2589,-2.2998,-2.2783,-2.2783,-2.2519,-2.2158,-2.2158,-2.3116,-2.4206,-2.4066,-2.4811,-2.5873,-2.5873,-2.6164,-2.6533,-2.6533,-2.6533,-2.6533,-2.6533,-2.6533,-2.6533,-2.6533,-2.6533,-2.6533,-2.6533,-2.6653,-2.6892,-2.713,-2.718,-2.7281,-2.7595,-2.7645,-2.7934,-2.88,-2.8925,-2.9478,-3.1201,-3.1341,-3.1341,-3.1341,-3.1756,-3.2393,-3.331,-3.3739,-3.4394,-3.5439,-3.5504,-3.5504,-3.5504,-3.5504,-3.5504,-3.5504,-3.5504,-3.5504,-3.5504,-3.5504,-3.5504,-3.5504,-3.5504,-3.5668,-0.8058,-0.8286,-0.8448,-0.8306,-0.8153,-0.7994,-0.7821,-0.757,-0.7322,-0.7146,-0.7031,-0.6953,-0.6932,-0.7078,-0.7288,-0.7556,0.0,-0.8269,-0.8828,-0.8944,-0.9171,-0.9727,-0.97,-0.9686,-0.9808,-0.971,-0.969,-0.9812,-0.9707,-0.9581,-0.9445,-0.9439,-1.0156,-1.1526,-1.3058,-1.5029,-1.7589,-1.7582,-1.7308,-1.6767,-1.6727,-1.642,-1.5885,-1.5845,-1.5832,-1.5825,0.0,0.0,-1.7591,-1.9852,-2.0935,-2.1203,-2.2403,-2.296,-2.3135,-2.3135,-2.291,-2.2598,-2.2598,-2.2862,-2.3182,-2.282,-2.3674,-2.4873,-2.4802,-2.5477,-2.6181,-2.6258,-2.6364,-2.6402,-2.6477,-2.6533,-2.6533,-2.6533,-2.6533,-2.6546,-2.6622,-2.7005,-2.7532,-2.8009,-2.8109,-2.8134,-2.8197,-2.821,-2.8398,-2.8963,-2.9038,-2.9227,-2.9729,-2.9792,-2.9792,-2.9792,-3.0558,-3.1389,-3.2321,-3.3171,-3.4109,-3.5213,-3.5294,-3.5359,-3.5504,-3.5504,-3.5504,-3.5504,-3.5504,-3.5504,-3.5504,-3.5504,-3.5504,-3.5504,-3.5504,-3.5894,-0.8367,-0.8442,-0.8448,-0.8306,-0.8153,-0.797,-0.7699,-0.7499,-0.7292,-0.7021,-0.7041,-0.7068,-0.6949,-0.7255,-0.7539,-0.759,-0.7953,-0.8353,-0.8703,-0.896,-0.9249,0.0,-0.9727,-0.9795,-0.9819,-0.9798,0.0,0.0,0.0,0.0,-0.9744,-0.9744,-1.0787,-1.3192,-1.4689,-1.6121,-1.7582,-1.7582,-1.7415,-1.7068,-1.682,-1.6526,-1.6186,-1.5939,-1.5832,-1.5825,0.0,0.0,-1.6197,-1.7677,-1.8956,-1.9943,-2.1114,-2.2217,-2.3135,-2.3135,-2.3096,-2.3027,-2.3027,-2.283,-2.2665,-2.2708,-2.3438,-2.4288,-2.3869,-2.4175,-2.4722,-2.5123,-2.5529,-2.5841,-2.6357,-2.6533,-2.6533,-2.6533,-2.6533,-2.6647,-2.7042,-2.757,-2.7996,-2.8084,-2.8109,-2.8247,-2.8699,-2.8787,-2.8976,-2.9553,-2.9641,-2.9679,-2.9779,-2.9792,-2.9792,-2.9792,-2.9934,-3.0419,-3.1389,-3.1609,-3.2393,-3.4177,-3.4245,-3.461,-3.5439,-3.5504,-3.5504,-3.5504,-3.5504,-3.5504,-3.5504,-3.5504,-3.5504,-3.5504,-3.5504,-3.5894,-0.8679,-0.8774,-0.8777,-0.8557,-0.8269,-0.7963,-0.7665,-0.7417,-0.721,-0.7068,-0.7092,-0.7119,-0.7051,-0.7346,-0.76,-0.76,-0.7977,-0.8374,-0.8669,-0.8964,-0.9266,-0.9571,-0.9734,-0.9822,-0.9822,-0.9822,0.0,0.0,0.0,0.0,-0.9822,-1.1086,-1.2369,-1.3541,-1.5631,-1.707,-1.7582,-1.7582,-1.7361,-1.6914,-1.6774,-1.6473,-1.6039,-1.5892,-1.5832,-1.5832,0.0,0.0,-1.592,-1.7131,-1.8411,-1.9579,-2.0845,-2.2031,-2.3135,-2.3135,-2.3135,-2.3135,-2.3135,-2.3008,-2.281,-2.2651,-2.2981,-2.3426,-2.3437,-2.3733,-2.4265,-2.4739,-2.5459,-2.6134,-2.6408,-2.6739,-2.6892,-2.6892,-2.6892,-2.7118,-2.7959,-2.8348,-2.8624,-2.8925,-2.8976,-2.9063,-2.9327,-2.9377,-2.9478,-2.9754,-2.9792,-2.9792,-2.9792,-2.9792,-2.9792,-2.9792,-2.9792,-3.0216,-3.1106,-3.118,-3.1815,-3.3171,-3.3739,-3.4245,-3.4691,-3.5213,-3.5504,-3.5504,-3.5504,-3.5504,-3.5504,-3.5504,-3.5504,-3.5504,-3.5504,-3.6133,-0.9219,-0.9286,-0.9123,-0.8794,-0.8418,-0.8041,-0.7682,-0.7387,-0.719,-0.719,-0.719,-0.72,-0.7231,-0.7461,-0.7645,-0.7645,-0.7967,-0.8313,-0.8577,-0.8899,-0.9208,-0.9479,-0.9693,0.0,-0.9822,-0.9822,0.0,0.0,0.0,0.0,-0.9774,-1.1987,-1.3419,-1.3502,-1.5941,-1.7318,-1.7582,-1.7582,-1.7321,-1.68,-1.6734,-1.6433,-1.5919,-1.5858,-1.5832,-1.5832,0.0,0.0,0.0,-1.6857,-1.8041,-1.9222,-2.0486,-2.1667,-2.2775,-2.296,-2.3135,-2.3135,-2.3135,-2.3135,-2.3086,-2.2754,-2.2682,-2.269,-2.2948,-2.3393,-2.395,-2.4357,-2.5383,-2.6323,-2.6458,-2.6956,-2.7457,-2.7457,-2.7544,-2.7871,-2.8737,-2.9026,-2.9252,-2.9704,-2.9792,-2.9792,-2.9792,-2.9792,-2.9792,-2.9792,-2.9792,-2.9792,-2.9792,-2.9792,-2.9792,-2.9792,-2.9792,-3.0075,-3.0833,-3.0895,-3.1328,-3.2249,-3.3171,-3.3808,-3.4027,-3.4986,-3.5504,-3.5504,-3.5504,-3.5504,-3.5504,-3.5504,-3.5504,-3.5504,-3.5668,-3.6477,-1.0401,-1.0029,-0.9256,-0.8818,-0.8574,-0.8292,-0.7729,-0.7468,-0.735,-0.735,-0.735,-0.7394,-0.7533,-0.7685,-0.779,-0.779,-0.7943,-0.8119,-0.8289,-0.8682,-0.9018,-0.9174,0.0,0.0,-0.9822,-0.9822,0.0,0.0,0.0,0.0,0.0,-1.1228,-1.2547,-1.3507,-1.5125,-1.6535,-1.7582,-1.7582,-1.7422,-1.7108,-1.6834,-1.654,-1.6219,-1.5952,-1.5832,-1.5832,0.0,0.0,0.0,-1.592,-1.6756,-1.7963,-1.9222,-2.0395,-2.1569,-2.2677,-2.3135,-2.3135,-2.3135,-2.3135,-2.3135,-2.3096,-2.2764,-2.2493,-2.2148,-2.2276,-2.2798,-2.3275,-2.4501,-2.5792,-2.6388,-2.7236,-2.8034,-2.8034,-2.8411,-2.88,-2.89,-2.934,-2.9729,-2.9779,-2.9792,-2.9792,-2.9792,-2.9792,-2.9792,-2.9792,-2.9792,-2.9792,-2.9792,-2.9792,-2.9792,-2.9792,-2.9792,-2.9869,-2.9934,-2.9934,-3.0355,-3.1241,-3.2249,-3.3101,-3.3959,-3.4986,-3.5504,-3.5504,-3.5504,-3.5504,-3.5504,-3.5504,-3.5504,-3.5504,-3.6165,-3.698,-1.199,-1.2068,-1.172,-1.1259,-1.0393,-0.9544,-0.9064,-0.8171,-0.7509,-0.7509,-0.7509,-0.7529,-0.759,-0.7716,-0.7811,-0.7811,-0.794,-0.8092,-0.8248,-0.8496,-0.8784,-0.9113,-0.9391,0.0,0.0,0.0,0.0,0.0,0.0,0.0,0.0,-1.1604,-1.3053,-1.3411,-1.5683,-1.7158,-1.7582,-1.7582,-1.7348,-1.6881,-1.676,-1.646,-1.6005,-1.5885,-1.5832,-1.5832,0.0,0.0,0.0,-1.5832,-1.6574,-1.7777,-1.9047,-2.0215,-2.148,-2.2677,-2.3135,-2.3135,-2.3135,-2.3135,-2.3135,-2.3135,-2.3027,-2.2861,-2.2685,-2.2578,-2.2614,-2.3088,-2.4127,-2.5294,-2.6268,-2.7507,-2.8599,-2.8599,-2.8775,-2.9026,-2.9365,-2.9628,-2.9792,-2.9792,-2.9792,-2.9792,-2.9792,-2.9792,-2.9792,-2.9792,-2.9792,-2.9792,-2.9792,-2.9792,-2.9792,-2.9792,-2.9792,-2.9792,-2.9792,-2.9792,-3.0216,-3.1106,-3.2105,-3.3031,-3.3959,-3.4986,-3.5504,-3.5504,-3.5504,-3.5504,-3.5504,-3.5504,-3.5504,-3.5504,-3.6275,-3.7024,-1.2995,-1.3234,-1.3178,-1.2735,-1.1573,-1.0239,-0.9908,-0.8676,-0.7662,-0.7662,-0.7662,-0.7675,-0.7723,-0.7811,-0.7879,-0.7879,-0.797,-0.8075,-0.8187,-0.8364,-0.8601,-0.8916,0.0,-0.9367,0.0,0.0,0.0,0.0,0.0,0.0,0.0,-1.1882,-1.3431,-1.327,-1.5636,-1.7108,-1.7455,-1.7455,-1.7161,-1.658,-1.658,-1.6313,-1.5832,-1.5832,-1.5832,0.0,0.0,0.0,0.0,-1.5832,-1.6292,-1.7311,-1.8856,-2.0034,-2.0935,-2.2492,-2.3135,-2.3135,-2.3135,-2.3135,-2.3135,-2.3135,-2.3135,-2.3135,-2.3135,-2.293,-2.2754,-2.3057,-2.3877,-2.5126,-2.6625,-2.7834,-2.8771,-2.9101,-2.9189,-2.9302,-2.9704,-2.9792,-2.9792,-2.9792,-2.9792,-2.9792,-2.9792,-2.9792,-2.9792,-2.9792,-2.9792,-2.9792,-2.9792,-2.9792,-2.9792,-2.9792,-2.9792,-2.9792,-2.9792,-2.9792,-3.0216,-3.1106,-3.2105,-3.3031,-3.3959,-3.4986,-3.5504,-3.5504,-3.5504,-3.5504,-3.5504,-3.5504,-3.5619,-3.5831,-3.6569,-3.7499,-1.3187,-1.3386,-1.2729,-1.2511,-1.1367,-1.0293,-0.9938,-0.8764,-0.7811,-0.7811,-0.7811,-0.7855,-0.8007,-0.8035,-0.8038,-0.8038,-0.8038,-0.8038,-0.8041,-0.8296,-0.8482,0.0,0.0,-0.9059,0.0,0.0,0.0,0.0,0.0,0.0,0.0,0.0,-1.327,-1.3264,-1.4663,-1.6045,-1.7154,-1.7154,-1.686,-1.6279,-1.6279,-1.6119,-1.5832,-1.5832,0.0,0.0,0.0,0.0,0.0,-1.5832,-1.5832,-1.6103,-1.858,-1.9497,-1.9761,-2.2227,-2.3135,-2.3135,-2.3135,-2.3135,-2.3135,-2.3135,-2.3135,-2.3135,-2.3135,-2.3135,-2.3135,-2.3135,-2.3877,-2.5284,-2.751,-2.8096,-2.8414,-2.9521,-2.9779,-2.9779,-2.9792,-2.9792,-2.9792,-2.9792,-2.9792,-2.9792,-2.9792,-2.9792,-2.9792,-2.9792,-2.9792,-2.9792,-2.9792,-2.9792,-2.9792,-2.9792,-2.9792,-2.9792,-2.9792,-2.9792,-3.0216,-3.1106,-3.2105,-3.3031,-3.3959,-3.4986,-3.5504,-3.5504,-3.5504,-3.5504,-3.5504,-3.5504,-3.5894,-3.6615,-3.7397,-3.8596,-1.4936,-1.5351,-1.5432,-1.5083,-1.3385,-1.1683,-1.1341,-0.9518,-0.816,-0.9131,-0.855,-0.8273,-0.9205,-0.863,-0.8038,-0.8038,-0.8038,-0.8038,0.0,0.0,0.0,-0.8601,-0.8994,0.0,0.0,0.0,0.0,0.0,0.0,0.0,0.0,0.0,-1.4341,-1.3372,-1.5463,-1.6814,-1.7148,-1.6947,-1.6653,-1.6273,-1.6273,-1.6119,-1.5832,-1.5832,0.0,0.0,0.0,0.0,0.0,-1.5832,-1.5832,-1.592,-1.7584,-1.8772,-1.9679,-2.1302,-2.2394,-2.3135,-2.3135,-2.3135,-2.3135,-2.3135,-2.3135,-2.3135,-2.3135,-2.3135,-2.3135,-2.3135,-2.3877,-2.4957,-2.5692,-2.6449,-2.7128,-2.7464,-2.7545,-2.7718,-2.8518,-2.8597,-2.8858,-2.9624,-2.9792,-2.9792,-2.9792,-2.9792,-2.9792,-2.9792,-2.9792,-2.9792,-2.9792,-2.9792,-2.9792,-2.9792,-2.9792,-2.9792,-2.9792,-2.9792,-3.0495,-3.2033,-3.2464,-3.3325,-3.4986,-3.5359,-3.5504,-3.5504,-3.5504,-3.5504,-3.5504,-3.5504,-3.6133,-3.7456,-3.8189,-3.9102,-1.5484,-1.5932,-1.6333,-1.6152,-1.4521,-1.2899,-1.2657,-1.0965,-0.9702,-1.0583,-0.9706,-0.9019,-0.9805,-0.9312,-0.8627,-0.8038,-0.8825,-0.9312,0.0,0.0,0.0,-1.0152,0.0,0.0,0.0,0.0,0.0,0.0,0.0,0.0,0.0,0.0,-1.4704,-1.3757,-1.6019,-1.7041,-1.682,-1.6633,-1.6393,-1.6106,-1.6106,-1.6005,-1.5832,0.0,0.0,0.0,0.0,0.0,0.0,-1.5832,-1.5832,-1.592,-1.7225,-1.8411,-1.9679,-2.0845,-2.2031,-2.3135,-2.3135,-2.3135,-2.3135,-2.3135,-2.3135,-2.3135,-2.3135,-2.3135,-2.3135,-2.3135,-2.3637,-2.4296,-2.4702,-2.5294,-2.5964,-2.64,-2.6483,-2.6801,-2.7844,-2.8096,-2.8426,-2.9611,-2.9792,-2.9792,-2.9792,-2.9792,-2.9792,-2.9792,-2.9792,-2.9792,-2.9792,-2.9792,-2.9792,-2.9792,-2.9792,-2.9792,-2.9792,-2.9792,-3.057,-3.2464,-3.2593,-3.3463,-3.5439,-3.5504,-3.5504,-3.5504,-3.5504,-3.5504,-3.5504,-3.5782,-3.6585,-3.7822,-3.858,-3.9315,0.0,-1.5404,-1.5832,-1.5832,-1.4848,-1.3878,-1.3878,-1.2813,0.0,-1.2042,-1.1072,-1.0194,-1.0293,-1.0194,-0.9706,-0.8432,-1.0288,-1.1463,0.0,-1.1458,0.0,0.0,0.0,0.0,0.0,0.0,0.0,0.0,0.0,0.0,0.0,0.0,0.0,-1.4624,-1.6209,-1.6827,-1.6279,-1.6253,-1.6106,-1.5832,-1.5832,-1.5832,-1.5832,0.0,0.0,0.0,0.0,0.0,0.0,-1.5832,-1.5832,-1.592,-1.7131,-1.8319,-1.967,-2.0755,-2.2031,-2.3135,-2.3135,-2.3135,-2.3135,-2.3135,-2.3135,-2.3135,-2.3135,-2.3135,-2.3135,-2.3135,-2.3135,-2.3299,-2.4372,-2.4713,-2.4957,-2.5975,-2.6224,-2.6554,-2.7763,-2.8016,-2.8347,-2.9534,-2.9792,-2.9792,-2.9792,-2.9792,-2.9792,-2.9792,-2.9792,-2.9792,-2.9792,-2.9792,-2.9792,-2.9792,-2.9792,-2.9792,-2.9792,-2.9792,-3.057,-3.2464,-3.2593,-3.3463,-3.5439,-3.5504,-3.5504,-3.5504,-3.5504,-3.5504,-3.5504,-3.6228,-3.7024,-3.7822,-3.858,-3.9315,-1.5311,0.0,-1.5832,-1.5832,-1.4848,-1.3878,0.0,-1.2813,-1.2237,-1.3199,-1.2425,-1.175,-1.2813,-1.2134,-1.1361,-1.1068,-1.1458,-1.1755,-1.1463,0.0,0.0,-1.236,0.0,0.0,0.0,0.0,0.0,0.0,0.0,0.0,0.0,0.0,0.0,-1.5875,-1.6334,-1.6413,-1.6273,-1.6046,-1.5899,-1.5832,-1.5832,-1.5832,-1.5832,0.0,0.0,0.0,0.0,0.0,0.0,-1.5832,-1.5832,-1.5832,-1.6109,-1.7576,-1.9488,-1.9852,-2.1311,-2.3135,-2.3135,-2.3135,-2.3135,-2.3135,-2.3135,-2.3135,-2.3135,-2.3135,-2.3135,-2.3135,-2.3135,-2.3135,-2.3474,-2.3464,-2.3551,-2.381,-2.3887,-2.4478,-2.6461,-2.6883,-2.7464,-2.9456,-2.9792,-2.9792,-2.9792,-2.9792,-2.9792,-2.9792,-2.9792,-2.9792,-2.9792,-2.9792,-2.9792,-2.9792,-2.9792,-2.9792,-2.9792,-2.9792,-3.057,-3.2464,-3.2593,-3.3463,-3.5439,-3.5504,-3.5504,-3.5504,-3.5504,-3.5504,-3.5504,-3.6228,-3.7024,-3.7822,-3.858,-3.9315,-1.5591,-1.5712,-1.5832,-1.5832,-1.5242,-1.4752,-1.4752,-1.4172,-1.3884,-1.4657,-1.3686,-1.3006,-1.3776,-1.3295,-1.2624,-1.2042,-1.2915,0.0,0.0,0.0,-1.4259,0.0,0.0,0.0,0.0,0.0,0.0,0.0,0.0,0.0,0.0,0.0,0.0,0.0,-1.6072,-1.6072,-1.6072,-1.5912,-1.5832,-1.5832,-1.5832,-1.5832,-1.5832,0.0,0.0,0.0,0.0,0.0,-1.5832,-1.5832,-1.5832,-1.5832,-1.5832,-1.7296,-1.9497,-1.9497,-2.1042,-2.3135,-2.3135,-2.3135,-2.3135,-2.3135,-2.3135,-2.3135,-2.3135,-2.3135,-2.3135,-2.3135,-2.3135,-2.3135,-2.3135,-2.3135,-2.3135,-2.3135,-2.3135,-2.3551,-2.5294,-2.5714,-2.6378,-2.8609,-2.9028,-2.9197,-2.9702,-2.9792,-2.9792,-2.9792,-2.9792,-2.9792,-2.9792,-2.9792,-2.9792,-2.9792,-2.9792,-2.9792,-2.9792,-2.9792,-3.057,-3.2464,-3.2593,-3.3463,-3.5439,-3.5504,-3.5504,-3.5504,-3.5504,-3.5504,-3.5504,-3.5894,-3.6523,-3.7279,-3.8019,-3.8816,-1.5832,-1.5832,-1.5832,-1.5832,-1.5832,-1.5832,-1.5832,-1.5832,-1.5832,-1.5832,-1.4949,-1.4166,-1.4166,-1.4166,-1.3782,0.0,0.0,0.0,-1.6166,-1.6246,-1.6346,0.0,0.0,0.0,0.0,0.0,0.0,0.0,0.0,0.0,0.0,0.0,0.0,0.0,-1.5832,-1.5832,-1.5832,-1.5832,-1.5832,-1.5832,-1.5832,-1.5832,-1.5832,-1.5832,0.0,0.0,0.0,0.0,-1.5832,-1.5832,-1.5832,-1.5832,-1.5832,-1.721,-1.9222,-1.9397,-2.0944,-2.2862,-2.3047,-2.3135,-2.3135,-2.3135,-2.3135,-2.3135,-2.3135,-2.3135,-2.3135,-2.3135,-2.3135,-2.3135,-2.3135,-2.3135,-2.3135,-2.3135,-2.3135,-2.3387,-2.4542,-2.4787,-2.5441,-2.7671,-2.8096,-2.8438,-2.9624,-2.9792,-2.9792,-2.9792,-2.9792,-2.9792,-2.9792,-2.9792,-2.9792,-2.9792,-2.9792,-2.9792,-2.9792,-2.9792,-3.057,-3.2464,-3.2593,-3.3463,-3.5439,-3.5504,-3.5504,-3.5504,-3.5504,-3.5504,-3.5504,-3.5504,-3.5894,-3.66,-3.7456,-3.8206,-1.5832,-1.5832,-1.5832,-1.5832,-1.5832,-1.5832,-1.5832,-1.5832,-1.5832,-1.5832,-1.5635,-1.5534,-1.5534,-1.5534,-1.5439,0.0,0.0,-1.5845,0.0,0.0,0.0,0.0,0.0,0.0,0.0,0.0,0.0,0.0,0.0,0.0,0.0,0.0,0.0,0.0,0.0,-1.5832,-1.5832,-1.5832,-1.5832,-1.5832,-1.5832,-1.5832,-1.5832,-1.5832,-1.5832,0.0,0.0,0.0,-1.5832,-1.5832,-1.5832,-1.5832,-1.5832,-1.6662,-1.8141,-1.9131,-2.0395,-2.1747,-2.2775,-2.3135,-2.3135,-2.3135,-2.3135,-2.3135,-2.3135,-2.3135,-2.3135,-2.3135,-2.3135,-2.3135,-2.3135,-2.3135,-2.3135,-2.3135,-2.3135,-2.3387,-2.4542,-2.4787,-2.5441,-2.7671,-2.8096,-2.8438,-2.9624,-2.9792,-2.9792,-2.9792,-2.9792,-2.9792,-2.9792,-2.9792,-2.9792,-2.9792,-2.9792,-2.9792,-2.9792,-2.9792,-3.057,-3.2464,-3.2593,-3.3463,-3.5439,-3.5504,-3.5504,-3.5504,-3.5504,-3.5504,-3.5504,-3.5504,-3.5894,-3.66,-3.7456,-3.8206,-1.5832,-1.5832,-1.5832,-1.5832,-1.5832,-1.5832,-1.5832,-1.5832,-1.5832,-1.5832,-1.5832,-1.5832,-1.5832,0.0,-1.5832,-1.5832,0.0,0.0,0.0,0.0,0.0,0.0,0.0,0.0,0.0,0.0,0.0,0.0,0.0,0.0,0.0,0.0,0.0,0.0,0.0,0.0,-1.5832,-1.5832,-1.5832,-1.5832,-1.5832,-1.5832,-1.5832,-1.5832,-1.5832,0.0,0.0,-1.5832,-1.5832,-1.5832,-1.5832,-1.5832,-1.5832,-1.6574,-1.7963,-1.9761,-2.0845,-2.1471,-2.2677,-2.3135,-2.3135,-2.3135,-2.3135,-2.3135,-2.3135,-2.3135,-2.3135,-2.3135,-2.3135,-2.3135,-2.3135,-2.3135,-2.3135,-2.3135,-2.3135,-2.3222,-2.38,-2.3877,-2.4542,-2.6789,-2.7209,-2.7787,-2.9534,-2.9792,-2.9792,-2.9792,-2.9792,-2.9792,-2.9792,-2.9792,-2.9792,-2.9792,-2.9792,-2.9792,-2.9792,-2.9792,-3.057,-3.2464,-3.3616,-3.4558,-3.5439,-3.5504,-3.5504,-3.5504,-3.5504,-3.5504,-3.5504,-3.5504,-3.5668,-3.6054,-3.7235,-3.7978,-1.5832,-1.5832,-1.5832,-1.5832,-1.5832,-1.5832,-1.5832,-1.5832,-1.5832,-1.5832,-1.5832,-1.5832,-1.5832,-1.5832,0.0,-1.5832,-1.5832,0.0,0.0,0.0,0.0,0.0,0.0,0.0,0.0,0.0,0.0,0.0,0.0,0.0,0.0,0.0,0.0,0.0,0.0,0.0,-1.5832,-1.5832,-1.5832,-1.5832,-1.5832,-1.5832,-1.5832,-1.5832,-1.5832,-1.5832,-1.5832,-1.5832,-1.5832,-1.5832,-1.5832,-1.5832,-1.5832,-1.6574,-1.7963,-1.9761,-2.0845,-2.1382,-2.2403,-2.2862,-2.3135,-2.3135,-2.3135,-2.3135,-2.3135,-2.3135,-2.3135,-2.3135,-2.3135,-2.3135,-2.3135,-2.3135,-2.3135,-2.3135,-2.3135,-2.3135,-2.3135,-2.3135,-2.38,-2.6058,-2.6483,-2.7221,-2.9378,-2.9792,-2.9792,-2.9792,-2.9792,-2.9792,-2.9792,-2.9792,-2.9792,-2.9792,-2.9792,-2.9792,-2.9792,-3.0216,-3.1057,-3.2536,-3.4409,-3.5504,-3.5504,-3.5504,-3.5504,-3.5504,-3.5504,-3.5504,-3.5504,-3.5504,-3.5504,-3.5569,-3.7071,-3.7822,-1.5832,-1.5832,-1.5832,-1.5832,-1.5832,-1.5832,-1.5832,-1.5832,-1.5832,-1.5832,-1.5832,-1.5832,-1.5832,-1.5832,-1.5832,-1.5832,0.0,0.0,0.0,0.0,0.0,0.0,0.0,0.0,0.0,0.0,0.0,0.0,0.0,0.0,0.0,0.0,0.0,0.0,0.0,0.0,-1.5832,-1.5832,-1.5832,-1.5832,-1.5832,-1.5832,-1.5832,-1.5832,-1.5832,-1.5832,-1.5832,-1.5832,-1.5832,-1.5832,-1.5832,-1.5832,-1.5832,-1.6574,-1.7692,-1.787,-1.9405,-2.1293,-2.1391,-2.2129,-2.3135,-2.3135,-2.3135,-2.3135,-2.3135,-2.3135,-2.3135,-2.3135,-2.3135,-2.3135,-2.3135,-2.3135,-2.3135,-2.3135,-2.3135,-2.3135,-2.3135,-2.3135,-2.38,-2.6058,-2.6483,-2.7221,-2.9378,-2.9792,-2.9792,-2.9792,-2.9792,-2.9792,-2.9792,-2.9792,-2.9792,-2.9792,-2.9792,-2.9792,-2.9792,-3.1415,-3.2464,-3.2593,-3.4409,-3.5504,-3.5504,-3.5504,-3.5504,-3.5504,-3.5504,-3.5504,-3.5504,-3.5504,-3.5504,-3.5569,-3.7071,-3.7822,-1.5832,-1.5832,-1.5832,-1.5832,-1.5832,-1.5832,-1.5832,-1.5972,-1.6052,-1.5865,-1.5979,-1.6046,-1.5865,0.0,-1.5832,0.0,0.0,0.0,0.0,0.0,0.0,0.0,0.0,0.0,0.0,0.0,0.0,0.0,0.0,0.0,0.0,0.0,0.0,0.0,0.0,0.0,0.0,-1.5832,-1.5832,-1.5832,-1.5832,-1.5832,-1.5832,-1.5832,-1.5832,-1.5832,-1.5832,-1.5832,-1.5832,-1.5832,-1.5832,-1.5832,-1.5832,-1.6109,-1.6574,-1.7412,-1.8772,-2.0305,-2.1025,-2.212,-2.3135,-2.3135,-2.3135,-2.3135,-2.3135,-2.3135,-2.3135,-2.3135,-2.3135,-2.3135,-2.3135,-2.3135,-2.3135,-2.3135,-2.3135,-2.3135,-2.3135,-2.3135,-2.38,-2.6058,-2.6483,-2.7221,-2.9378,-2.9792,-2.9792,-2.9792,-2.9792,-2.9792,-2.9792,-2.9792,-2.9792,-2.9792,-2.9792,-2.9792,-2.9792,-3.1549,-3.2593,-3.2593,-3.4409,-3.5504,-3.5504,-3.5504,-3.5504,-3.5504,-3.5504,-3.5504,-3.5504,-3.5504,-3.5504,-3.5569,-3.7071,-3.7822,-1.5832,-1.5832,-1.5832,-1.5832,-1.5832,-1.5832,-1.5832,-1.5985,-1.6106,-1.5992,-1.6132,-1.6179,-1.5885,-1.5832,0.0,0.0,0.0,0.0,0.0,0.0,0.0,0.0,0.0,0.0,0.0,0.0,0.0,0.0,0.0,0.0,0.0,0.0,0.0,0.0,0.0,0.0,0.0,-1.5691,-1.5645,-1.5558,-1.5651,-1.5738,-1.5832,-1.5832,-1.5832,-1.5832,-1.5832,-1.5832,-1.5832,-1.5832,-1.5832,-1.5832,-1.5832,-1.5832,-1.5927,-1.6763,-1.8133,-1.9579,-2.0486,-2.1765,-2.3135,-2.3135,-2.3135,-2.3135,-2.3135,-2.3135,-2.3135,-2.3135,-2.3135,-2.3135,-2.3135,-2.3135,-2.3135,-2.3135,-2.3135,-2.3135,-2.3135,-2.3387,-2.4221,-2.6141,-2.6801,-2.7626,-2.9456,-2.9792,-2.9792,-2.9792,-2.9792,-2.9792,-2.9792,-2.9792,-2.9792,-2.9792,-2.9792,-2.9792,-2.9792,-3.1549,-3.2593,-3.2593,-3.4409,-3.5504,-3.5504,-3.5504,-3.5504,-3.5504,-3.5504,-3.5504,-3.5504,-3.5504,-3.5619,-3.5894,-3.7175,-3.7921,-1.5832,-1.5832,-1.5832,-1.5832,-1.5832,-1.5832,-1.5832,-1.5832,-1.5919,-1.6213,-1.6273,-1.6179,-1.5885,-1.5832,0.0,0.0,0.0,0.0,0.0,0.0,0.0,0.0,0.0,0.0,0.0,0.0,0.0,0.0,0.0,0.0,0.0,0.0,0.0,0.0,0.0,0.0,0.0,-1.5391,-1.5251,-1.497,-1.5257,-1.5545,-1.5825,-1.5832,-1.5832,-1.5832,-1.5832,-1.5832,-1.5832,-1.5825,-1.5825,-1.5825,-1.5825,-1.5825,-1.5832,-1.5832,-1.739,-1.9497,-1.9497,-2.1042,-2.3135,-2.3135,-2.3135,-2.3135,-2.3135,-2.3135,-2.3135,-2.3135,-2.3135,-2.3135,-2.3135,-2.3135,-2.3135,-2.3135,-2.3135,-2.3135,-2.3135,-2.3963,-2.5126,-2.6307,-2.7371,-2.8438,-2.9624,-2.9792,-2.9792,-2.9792,-2.9792,-2.9792,-2.9792,-2.9792,-2.9792,-2.9792,-2.9792,-2.9792,-2.9792,-3.1549,-3.2593,-3.2593,-3.4409,-3.5504,-3.5504,-3.5504,-3.5504,-3.5504,-3.5504,-3.5504,-3.5504,-3.5504,-3.5894,-3.6615,-3.7456,-3.8206,-1.5832,-1.5832,-1.5832,-1.5832,-1.5832,-1.5832,-1.5832,-1.5992,-1.6166,-1.6253,-1.6106,-1.5932,-1.5845,-1.5832,0.0,0.0,0.0,0.0,0.0,0.0,0.0,0.0,0.0,0.0,0.0,0.0,0.0,0.0,0.0,0.0,0.0,0.0,0.0,0.0,0.0,0.0,0.0,0.0,-1.505,-1.4963,-1.505,-1.5244,-1.5531,-1.5732,-1.5832,-1.5832,-1.5832,-1.5832,-1.5812,-1.5611,-1.5524,-1.5524,-1.5524,-1.5651,-1.5832,-1.5832,-1.739,-1.9497,-1.9497,-2.1042,-2.3135,-2.3135,-2.3135,-2.3135,-2.3135,-2.3135,-2.3135,-2.3135,-2.3135,-2.3135,-2.3135,-2.3135,-2.3135,-2.3135,-2.3135,-2.3135,-2.3135,-2.3963,-2.5126,-2.6307,-2.7371,-2.8438,-2.9624,-2.9792,-2.9792,-2.9792,-2.9792,-2.9792,-2.9792,-2.9792,-2.9792,-2.9792,-2.9792,-2.9792,-2.9792,-3.1549,-3.2593,-3.2593,-3.4409,-3.5504,-3.5504,-3.5504,-3.5504,-3.5504,-3.5504,-3.5504,-3.5504,-3.5504,-3.5619,-3.5831,-3.7175,-3.7921,-1.592,-1.5832,-1.5832,-1.5832,-1.5832,-1.5832,-1.5832,-1.6059,-1.6239,-1.6119,-1.6046,-1.5972,-1.5852,-1.5832,0.0,0.0,0.0,0.0,0.0,0.0,0.0,0.0,0.0,0.0,0.0,0.0,0.0,0.0,0.0,0.0,0.0,0.0,0.0,0.0,0.0,0.0,0.0,0.0,0.0,-1.4616,-1.473,-1.4883,-1.5057,-1.5351,-1.5484,-1.5484,-1.5484,-1.5484,-1.5471,-1.5297,-1.5291,-1.5384,-1.5271,-1.5398,-1.5645,-1.5524,-1.7095,-1.9372,-1.9372,-2.1007,-2.3135,-2.3135,-2.3135,-2.3135,-2.3135,-2.3135,-2.3135,-2.3135,-2.3135,-2.3135,-2.3135,-2.3135,-2.3135,-2.3135,-2.3135,-2.3135,-2.3135,-2.3963,-2.5126,-2.6307,-2.7371,-2.8438,-2.9624,-2.9792,-2.9792,-2.9792,-2.9792,-2.9792,-2.9792,-2.9792,-2.9792,-2.9792,-2.9792,-2.9934,-3.0355,-3.1756,-3.2749,-3.3101,-3.4624,-3.5504,-3.5504,-3.5504,-3.5504,-3.5504,-3.5504,-3.5504,-3.5504,-3.5504,-3.5668,-3.5943,-3.6874,-3.7674,-1.6292,-1.6015,-1.6015,-1.6015,-1.6015,-1.6103,-1.6103,-1.632,-1.6346,-1.5885,0.0,-1.6152,-1.5879,0.0,0.0,0.0,0.0,0.0,0.0,0.0,0.0,0.0,0.0,0.0,0.0,0.0,0.0,0.0,0.0,0.0,0.0,0.0,0.0,0.0,0.0,0.0,0.0,0.0,0.0,0.0,-1.4355,-1.4482,-1.4489,-1.4816,-1.4963,-1.4963,-1.4963,-1.495,-1.4923,-1.4923,-1.5077,-1.5291,-1.503,-1.5097,-1.5324,-1.5064,-1.6625,-1.8919,-1.904,-2.0783,-2.2902,-2.3038,-2.3135,-2.3135,-2.3135,-2.3135,-2.3135,-2.3135,-2.3135,-2.3135,-2.3135,-2.3135,-2.3135,-2.3135,-2.3135,-2.3135,-2.3135,-2.4049,-2.5294,-2.6307,-2.7452,-2.8597,-2.9624,-2.9792,-2.9792,-2.9792,-2.9792,-2.9792,-2.9792,-2.9741,-2.9716,-2.9716,-2.9716,-3.0139,-3.1027,-3.2006,-3.3031,-3.3945,-3.492,-3.5504,-3.5504,-3.5504,-3.5504,-3.5504,-3.5504,-3.5504,-3.5504,-3.5504,-3.5831,-3.6492,-3.6676,-3.7483,-1.7591,-1.7318,-1.7318,-1.7318,-1.8041,-1.8672,-1.8672,-1.8009,-1.7124,-1.6028,-1.5879,-1.5905,0.0,0.0,0.0,0.0,0.0,0.0,0.0,0.0,0.0,0.0,0.0,0.0,0.0,0.0,0.0,0.0,0.0,0.0,0.0,0.0,0.0,0.0,0.0,0.0,-1.4182,-1.4182,-1.4148,0.0,-1.4155,-1.4182,-1.4202,-1.4723,-1.4963,-1.4963,-1.4963,-1.483,-1.4616,-1.4616,-1.4649,-1.4703,-1.4643,-1.4796,-1.505,-1.4983,-1.5953,-1.7435,-1.8684,-2.007,-2.1516,-2.2756,-2.3135,-2.3135,-2.3135,-2.3135,-2.3135,-2.3135,-2.3135,-2.3135,-2.3135,-2.3135,-2.3135,-2.3135,-2.3135,-2.3135,-2.3135,-2.4723,-2.6224,-2.6472,-2.8119,-2.9534,-2.9792,-2.9792,-2.9792,-2.9792,-2.9792,-2.9792,-2.9792,-2.9402,-2.9114,-2.9114,-2.9114,-2.9465,-3.0461,-3.1847,-3.3031,-3.3945,-3.492,-3.5504,-3.5504,-3.5504,-3.5504,-3.5504,-3.5504,-3.5504,-3.5504,-3.5504,-3.5554,-3.5782,-3.6995,-3.7748,-1.8864,-1.8596,-1.8596,-1.8596,-1.9497,-2.0215,-1.967,-1.9497,-1.9039,-1.7848,-1.6655,-1.5832,0.0,0.0,0.0,0.0,0.0,0.0,0.0,0.0,0.0,0.0,0.0,0.0,0.0,0.0,0.0,0.0,0.0,0.0,0.0,0.0,0.0,0.0,0.0,0.0,-1.4088,-1.4088,-1.4088,-1.4088,-1.4088,-1.4088,-1.4095,-1.4402,-1.4543,-1.4543,-1.4543,-1.4456,-1.4315,-1.4315,-1.4396,-1.4502,-1.4369,-1.4496,-1.4736,-1.4596,-1.5388,-1.6741,-1.8311,-1.9774,-2.1135,-2.263,-2.3135,-2.3135,-2.3135,-2.3135,-2.3135,-2.3135,-2.3135,-2.3135,-2.3135,-2.3135,-2.3135,-2.3135,-2.3135,-2.3212,-2.38,-2.4882,-2.5964,-2.7035,-2.8199,-2.9184,-2.9702,-2.9792,-2.9792,-2.9792,-2.9553,-2.9377,-2.9377,-2.8888,-2.8536,-2.8536,-2.8775,-2.9497,-3.0966,-3.1979,-3.3185,-3.4624,-3.5213,-3.5504,-3.5504,-3.5504,-3.5504,-3.5504,-3.5504,-3.5504,-3.5504,-3.5504,-3.5504,-3.5504,-3.6707,-3.7456,-2.0124,-1.9852,-1.9852,-1.9852,-2.0755,-2.1391,-2.0305,-2.0755,-2.1025,-2.0034,-1.8025,0.0,0.0,0.0,0.0,0.0,0.0,0.0,0.0,0.0,0.0,0.0,0.0,0.0,0.0,0.0,0.0,0.0,0.0,0.0,0.0,0.0,0.0,0.0,0.0,-1.4088,-1.4088,-1.4088,-1.4088,-1.4088,-1.4088,-1.4088,-1.4088,-1.4088,-1.4088,-1.4088,-1.4088,-1.4088,-1.4088,-1.4088,-1.4229,-1.4422,-1.4182,-1.4235,-1.4416,-1.4175,-1.4895,-1.6144,-1.7937,-1.9419,-2.0757,-2.2351,-2.2969,-2.3027,-2.3027,-2.3027,-2.3047,-2.3115,-2.3135,-2.3135,-2.3135,-2.3135,-2.3135,-2.3135,-2.3135,-2.3387,-2.4296,-2.4798,-2.5619,-2.7429,-2.8096,-2.8688,-2.9624,-2.9792,-2.9754,-2.9654,-2.9239,-2.89,-2.88,-2.8298,-2.7959,-2.7959,-2.8461,-2.9551,-3.1475,-3.2263,-3.3394,-3.5359,-3.5504,-3.5504,-3.5504,-3.5504,-3.5504,-3.5504,-3.5504,-3.5504,-3.5504,-3.5504,-3.5504,-3.5504,-3.6399,-3.7144,-2.1391,-2.1025,-2.1025,-2.1025,-2.1943,-2.2862,-2.2687,0.0,-2.1293,0.0,0.0,0.0,0.0,0.0,0.0,0.0,0.0,0.0,0.0,0.0,0.0,0.0,0.0,0.0,0.0,0.0,0.0,0.0,0.0,0.0,0.0,0.0,-1.4128,-1.4088,-1.4088,0.0,-1.4088,-1.4088,-1.4088,-1.4088,-1.4088,-1.4088,-1.4088,-1.4088,-1.4088,-1.4088,-1.4088,-1.4088,-1.4088,-1.4088,-1.4108,-1.4142,-1.4102,-1.4115,-1.4142,-1.4102,-1.4193,-1.4761,-1.7243,-1.8439,-1.9273,-2.1333,-2.2305,-2.2598,-2.2598,-2.2598,-2.2676,-2.3037,-2.3135,-2.3135,-2.3135,-2.3135,-2.3135,-2.3135,-2.3135,-2.3135,-2.3299,-2.4893,-2.6389,-2.6637,-2.8291,-2.9624,-2.9792,-2.9792,-2.9616,-2.9114,-2.8976,-2.875,-2.8285,-2.7733,-2.7394,-2.7394,-2.7883,-2.8957,-3.0922,-3.2014,-3.3394,-3.5359,-3.5504,-3.5504,-3.5504,-3.5504,-3.5504,-3.5504,-3.5504,-3.5504,-3.5504,-3.5504,-3.5504,-3.5504,-3.6951,-3.7706,-2.2492,-2.2145,-2.2023,-2.2249,-2.2677,-2.3135,-2.3135,-2.2677,-2.2306,0.0,0.0,0.0,0.0,0.0,0.0,0.0,0.0,0.0,0.0,0.0,0.0,0.0,0.0,0.0,0.0,0.0,0.0,0.0,0.0,0.0,0.0,-1.4088,-1.4088,-1.4088,-1.4088,0.0,-1.4088,-1.4088,-1.4088,-1.4088,-1.4088,-1.4088,-1.4088,-1.4088,-1.4088,-1.4088,-1.4088,-1.4088,-1.4088,-1.4088,-1.4088,-1.4088,-1.4088,-1.4088,-1.4088,-1.4088,-1.4489,-1.5264,-1.7338,-1.8489,-1.9534,-2.1558,-2.2207,-2.2246,-2.2725,-2.2705,-2.2598,-2.3018,-2.3135,-2.3135,-2.3135,-2.3135,-2.3135,-2.3135,-2.3135,-2.3135,-2.3135,-2.4893,-2.6894,-2.8131,-2.9118,-2.9691,-2.9365,-2.9315,-2.9114,-2.8549,-2.821,-2.7921,-2.767,-2.7155,-2.6816,-2.6816,-2.7761,-2.8881,-3.0301,-3.1573,-3.291,-3.4304,-3.4726,-3.4936,-3.4936,-3.5295,-3.5504,-3.5504,-3.5504,-3.5504,-3.5504,-3.5504,-3.5504,-3.5504,-3.6646,-3.7397,-2.2978,-2.2676,-2.2451,-2.2881,-2.29,-2.2881,0.0,0.0,0.0,0.0,0.0,0.0,0.0,0.0,0.0,0.0,0.0,0.0,0.0,0.0,0.0,0.0,0.0,0.0,0.0,0.0,0.0,0.0,0.0,0.0,-1.4088,-1.4088,-1.4088,-1.4088,-1.4088,-1.4088,-1.4088,-1.4088,-1.4088,-1.4088,-1.4088,-1.4088,-1.4088,-1.4088,-1.4088,-1.4088,-1.4088,-1.4088,-1.4088,-1.4088,-1.4088,-1.4088,-1.4088,-1.4088,-1.4088,-1.4088,-1.4573,-1.5582,-1.7234,-1.8385,-1.9542,-2.1412,-2.1953,-2.2002,-2.2627,-2.2676,-2.2598,-2.3018,-2.3135,-2.3135,-2.3135,-2.3057,-2.3008,-2.3115,-2.3057,-2.3172,-2.378,-2.5305,-2.7139,-2.9378,-2.9792,-2.9616,-2.9026,-2.8925,-2.8687,-2.7996,-2.7544,-2.7231,-2.7092,-2.6716,-2.6533,-2.6533,-2.7708,-2.8892,-2.99,-3.1318,-3.2489,-3.3423,-3.4113,-3.4472,-3.4472,-3.513,-3.5429,-3.525,-3.5415,-3.5504,-3.5504,-3.5504,-3.5504,-3.5504,-3.6461,-3.7219,-2.2549,-2.2236,-2.2021,-2.2441,-2.2246,-2.2158,0.0,0.0,0.0,0.0,0.0,0.0,0.0,0.0,0.0,0.0,0.0,0.0,0.0,0.0,0.0,0.0,0.0,0.0,0.0,0.0,0.0,0.0,0.0,0.0,-1.4088,-1.4088,-1.4088,-1.4088,-1.4088,-1.4088,-1.4088,-1.4088,-1.4088,-1.4088,-1.4088,-1.4088,-1.4088,-1.4088,-1.4088,-1.4088,-1.4088,-1.4088,-1.4088,-1.4088,-1.4088,-1.4088,-1.4088,-1.4088,-1.4088,-1.4088,-1.4173,-1.4496,-1.6624,-1.768,-1.8328,-2.0131,-2.1221,-2.1894,-2.1934,-2.2217,-2.2598,-2.3018,-2.3135,-2.3135,-2.3135,-2.2842,-2.2646,-2.3047,-2.2832,-2.3233,-2.5793,-2.64,-2.7139,-2.9378,-2.9792,-2.9616,-2.9026,-2.8925,-2.8561,-2.7494,-2.7306,-2.7092,-2.6634,-2.6546,-2.6533,-2.6533,-2.7708,-2.8892,-2.99,-3.1318,-3.2489,-3.3423,-3.4113,-3.4472,-3.4472,-3.513,-3.519,-3.4547,-3.5175,-3.5504,-3.5504,-3.5504,-3.5504,-3.5569,-3.7071,-3.7748,-2.2031,-2.1797,-2.1572,-2.2002,-2.2002,-2.1963,-2.2266,-2.2217,0.0,0.0,0.0,0.0,0.0,0.0,0.0,0.0,0.0,0.0,0.0,0.0,0.0,0.0,0.0,0.0,0.0,0.0,0.0,0.0,0.0,0.0,-1.5137,-1.5137,-1.481,-1.4088,-1.4088,-1.4088,-1.4088,-1.4088,-1.4088,-1.4088,-1.4088,-1.4088,-1.4088,-1.4088,-1.4088,-1.4088,-1.4088,-1.4088,-1.4088,-1.4088,-1.4088,-1.4088,-1.4088,-1.4088,-1.4088,-1.4088,-1.4573,-1.5296,-1.6764,-1.7912,-1.886,-2.0461,-2.1016,-2.1143,-2.1709,-2.1797,-2.1836,-2.2539,-2.2734,-2.2793,-2.3066,-2.2822,-2.2709,-2.3591,-2.3883,-2.4598,-2.6989,-2.7522,-2.7947,-2.9534,-2.949,-2.9063,-2.8499,-2.8109,-2.762,-2.6866,-2.6753,-2.6747,-2.6546,-2.6533,-2.6533,-2.6533,-2.7398,-2.8345,-2.9256,-3.0353,-3.1329,-3.2169,-3.3245,-3.3844,-3.3844,-3.4921,-3.5385,-3.5145,-3.5385,-3.5295,-3.4846,-3.5295,-3.5504,-3.5504,-3.6523,-3.7338,-2.1807,-2.1455,-2.1113,-2.1553,-2.1553,-2.1523,-2.1816,0.0,0.0,0.0,0.0,0.0,0.0,0.0,0.0,0.0,0.0,0.0,0.0,0.0,0.0,0.0,0.0,0.0,0.0,0.0,0.0,0.0,0.0,0.0,-1.6273,-1.5861,-1.522,-1.4166,-1.4412,-1.4496,-1.4088,-1.4088,-1.4088,-1.4088,-1.4088,-1.4088,-1.4088,-1.4088,-1.4088,-1.4088,-1.4088,-1.4088,-1.4088,-1.4088,-1.4088,-1.4088,-1.4088,-1.4088,-1.4088,-1.4088,-1.4573,-1.5387,-1.6772,-1.7827,-1.8674,-2.0423,-2.0908,-2.0898,-2.1484,-2.1562,-2.1572,-2.2148,-2.2305,-2.2402,-2.2822,-2.2725,-2.2715,-2.3762,-2.4551,-2.5672,-2.7648,-2.8096,-2.8378,-2.9285,-2.9189,-2.8699,-2.7959,-2.7519,-2.7092,-2.6609,-2.6533,-2.6533,-2.6533,-2.6533,-2.6589,-2.6837,-2.767,-2.8492,-2.938,-3.0208,-3.0896,-3.1467,-3.2766,-3.3499,-3.3499,-3.4786,-3.5385,-3.516,-3.5385,-3.516,-3.4472,-3.5175,-3.5504,-3.5504,-3.6275,-3.7128,0.0,0.0,0.0,-2.1103,0.0,0.0,-2.165,0.0,0.0,0.0,0.0,0.0,0.0,0.0,0.0,0.0,0.0,0.0,0.0,0.0,0.0,0.0,0.0,0.0,0.0,0.0,0.0,0.0,0.0,-1.7342,-1.7342,-1.6355,-1.5304,-1.425,-1.5137,-1.522,-1.4166,-1.4088,-1.4088,-1.4088,-1.4088,-1.4088,-1.4088,-1.4088,-1.4088,-1.4088,-1.4088,-1.4088,-1.4088,-1.4088,-1.4088,-1.4088,-1.4088,-1.4088,-1.4088,-1.4173,-1.4173,-1.4412,-1.6609,-1.7342,-1.7738,-1.9913,-2.0859,-2.1211,-2.1211,-2.1514,-2.1846,-2.1865,-2.1865,-2.1963,-2.2383,-2.25,-2.272,-2.3387,-2.4749,-2.628,-2.7817,-2.8164,-2.8246,-2.8799,-2.89,-2.8536,-2.7469,-2.7268,-2.708,-2.6609,-2.6533,-2.6533,-2.6533,-2.6521,-2.685,-2.7604,-2.8492,-2.938,-3.0208,-3.1029,-3.1467,-3.1482,-3.2766,-3.3499,-3.3499,-3.4786,-3.519,-3.4517,-3.516,-3.5175,-3.4502,-3.5175,-3.5504,-3.5504,-3.6275,-3.7467,-2.1416,0.0,0.0,0.0,0.0,0.0,0.0,0.0,0.0,0.0,0.0,0.0,0.0,0.0,0.0,0.0,0.0,0.0,0.0,0.0,0.0,0.0,0.0,0.0,0.0,0.0,0.0,0.0,0.0,-1.855,-1.855,-1.7496,-1.6683,-1.6445,-1.5951,-1.5538,-1.5296,-1.4496,-1.4088,-1.4088,-1.4088,-1.4088,-1.4088,-1.4088,-1.4088,-1.4088,-1.4088,-1.4088,-1.4088,-1.4088,-1.4088,-1.4088,-1.4088,-1.4088,-1.4166,-1.4977,-1.5296,-1.5545,-1.7738,-1.855,-1.8798,-2.0157,-2.0654,-2.0752,-2.0752,-2.083,-2.0996,-2.1318,-2.1416,-2.1514,-2.1943,-2.2925,-2.4012,-2.4923,-2.6371,-2.785,-2.9081,-2.8954,-2.8709,-2.8875,-2.8285,-2.7645,-2.7331,-2.6954,-2.6697,-2.6546,-2.6533,-2.6533,-2.6533,-2.704,-2.7484,-2.767,-2.8492,-2.938,-3.0208,-3.0524,-3.0896,-3.1467,-3.2766,-3.3499,-3.3499,-3.4786,-3.5415,-3.522,-3.5415,-3.5415,-3.522,-3.5415,-3.5504,-3.5504,-3.6829,-3.8302,-2.123,-2.1045,-2.0801,-2.0605,0.0,0.0,-2.0605,-2.0566,0.0,0.0,0.0,0.0,0.0,0.0,0.0,0.0,0.0,0.0,0.0,0.0,0.0,0.0,0.0,0.0,0.0,0.0,0.0,0.0,-2.0001,-1.9441,-1.9036,-1.8789,-1.8221,-1.7342,-1.7172,-1.6593,-1.5703,-1.5054,-1.4573,-1.4088,-1.4088,-1.4088,-1.4088,-1.4088,-1.4088,-1.4088,-1.4088,-1.4088,-1.4088,-1.4088,-1.4088,-1.4088,-1.4088,-1.4412,-1.481,-1.5462,-1.5944,-1.6601,-1.839,-1.9036,-1.9195,-2.0245,-2.0566,-2.0566,-2.0566,-2.0566,-2.0625,-2.0879,-2.1094,-2.132,-2.177,-2.2948,-2.4255,-2.5462,-2.6663,-2.7765,-2.8849,-2.8649,-2.831,-2.8536,-2.7883,-2.7205,-2.6979,-2.6747,-2.6533,-2.6533,-2.6533,-2.6533,-2.6533,-2.6905,-2.7484,-2.8182,-2.8684,-2.9504,-3.0703,-3.0777,-3.1029,-3.1467,-3.2512,-3.308,-3.308,-3.4367,-3.507,-3.507,-3.5355,-3.5668,-3.5943,-3.5943,-3.6133,-3.6492,-3.769,-3.8761,-2.144,-2.1311,-2.1074,-2.0723,0.0,0.0,-2.0723,-2.0596,-2.0566,0.0,0.0,0.0,0.0,0.0,0.0,0.0,0.0,0.0,0.0,0.0,0.0,0.0,0.0,0.0,0.0,0.0,0.0,-2.0566,-2.0566,-2.0167,-1.9204,-2.0079,-1.9678,-1.7738,-1.855,-1.806,-1.6108,-1.5861,-1.522,-1.425,-1.4166,-1.4088,-1.4088,-1.4088,-1.4088,-1.4088,-1.4088,-1.4088,-1.4088,-1.4088,-1.4088,-1.4088,-1.4088,-1.4734,-1.5696,-1.5861,-1.6601,-1.7658,-1.8798,-1.9195,-1.9353,-2.0323,-2.0566,-2.0566,-2.0566,-2.0566,-2.0566,-2.0566,-2.0859,-2.1303,-2.1911,-2.2797,-2.3946,-2.555,-2.6342,-2.6989,-2.795,-2.767,-2.7431,-2.7921,-2.757,-2.703,-2.6609,-2.6533,-2.6533,-2.6533,-2.6533,-2.6521,-2.6589,-2.6714,-2.7417,-2.9002,-2.9192,-2.9889,-3.1351,-3.1482,-3.1482,-3.1482,-3.2213,-3.2587,-3.2512,-3.3784,-3.4472,-3.4472,-3.516,-3.5831,-3.6615,-3.6615,-3.6993,-3.7809,-3.8466,-3.8797,-2.2953,-2.1908,-2.0762,0.0,0.0,0.0,-2.1045,-2.082,-2.0566,0.0,0.0,0.0,0.0,0.0,0.0,0.0,0.0,0.0,0.0,0.0,0.0,0.0,0.0,0.0,0.0,0.0,-2.0566,-2.0566,-2.0566,-2.0489,-2.0323,-2.0489,-2.0401,-2.0001,-1.9353,-1.8789,-1.839,-1.6593,-1.5621,-1.5379,-1.4489,-1.4088,-1.4088,-1.4088,-1.4088,-1.4088,-1.4088,-1.4088,-1.4088,-1.4088,-1.4088,-1.4088,-1.4088,-1.4734,-1.5779,-1.6683,-1.7658,-1.8798,-1.9923,-2.0323,-2.0323,-2.0557,-2.0566,-2.0566,-2.0566,-2.0566,-2.0566,-2.0566,-2.0625,-2.0977,-2.2221,-2.3339,-2.4554,-2.6024,-2.7101,-2.7865,-2.8036,-2.767,-2.7318,-2.7419,-2.6992,-2.6647,-2.6546,-2.6533,-2.6533,-2.6533,-2.6533,-2.6714,-2.7351,-2.8051,-2.8939,-2.995,-3.0644,-3.1161,-3.1467,-3.1482,-3.1482,-3.1482,-3.2647,-3.3066,-3.2542,-3.3784,-3.4472,-3.4472,-3.516,-3.5831,-3.6615,-3.6615,-3.7022,-3.7785,-3.7962,-3.8032,0.0,0.0,0.0,-2.144,0.0,0.0,0.0,-2.0723,-2.0566,0.0,0.0,0.0,0.0,0.0,0.0,0.0,0.0,0.0,0.0,0.0,0.0,0.0,0.0,0.0,0.0,0.0,-2.0566,-2.0566,-2.0566,-2.0566,-2.0566,-2.0566,-2.0566,-2.0566,-2.0079,-1.952,-1.9045,-1.79,-1.6756,-1.5696,-1.5137,-1.4657,-1.4088,-1.4088,-1.4088,-1.4088,-1.4088,-1.4088,-1.4088,-1.4088,-1.4412,-1.4894,-1.4894,-1.5545,-1.6601,-1.7738,-1.8868,-1.9844,-2.0401,-2.0566,-2.0566,-2.0566,-2.0566,-2.0566,-2.0566,-2.0566,-2.0566,-2.0566,-2.0934,-2.1578,-2.2778,-2.4063,-2.53,-2.6239,-2.7123,-2.762,-2.7344,-2.7067,-2.6866,-2.6866,-2.6653,-2.6533,-2.6533,-2.6533,-2.6533,-2.6533,-2.685,-2.7229,-2.767,-2.8427,-2.9317,-3.0208,-3.0644,-3.1087,-3.1467,-3.1482,-3.1482,-3.1482,-3.2153,-3.2362,-3.2033,-3.2976,-3.3818,-3.4471,-3.5201,-3.6059,-3.7189,-3.7189,-3.7406,-3.7801,-3.8199,-3.8204,0.0,0.0,0.0,0.0,0.0,-2.2231,0.0,0.0,0.0,0.0,0.0,0.0,0.0,0.0,0.0,0.0,0.0,0.0,0.0,0.0,0.0,0.0,0.0,0.0,0.0,0.0,-2.0352,-2.0439,-2.0439,-2.0478,-2.0634,-2.0566,-2.0566,-2.0566,-2.0566,-2.0167,-1.9362,-1.9116,-1.806,-1.6347,-1.6108,-1.5545,-1.4741,-1.4741,-1.4741,-1.4741,-1.4741,-1.4573,-1.4412,-1.4657,-1.5144,-1.5696,-1.5696,-1.6519,-1.7738,-1.8638,-1.9678,-2.0566,-2.0566,-2.0566,-2.0566,-2.0566,-2.0566,-2.0566,-2.0566,-2.0566,-2.0644,-2.0779,-2.1451,-2.2253,-2.3452,-2.4699,-2.5793,-2.6332,-2.6804,-2.7005,-2.6553,-2.6533,-2.6533,-2.6533,-2.6533,-2.6533,-2.6533,-2.6658,-2.6714,-2.6714,-2.7417,-2.7986,-2.8182,-2.8812,-2.9566,-3.045,-3.0524,-3.0777,-3.1409,-3.1482,-3.1482,-3.1482,-3.1764,-3.1735,-3.1482,-3.2168,-3.3019,-3.4079,-3.4932,-3.5959,-3.7199,-3.7482,-3.7656,-3.7812,-3.8354,-3.8159,0.0,0.0,0.0,0.0,-2.4316,0.0,0.0,0.0,0.0,0.0,0.0,0.0,0.0,0.0,0.0,0.0,0.0,0.0,0.0,0.0,0.0,0.0,0.0,0.0,0.0,0.0,0.0,-1.9961,-1.999,-2.0156,-2.0547,-2.0566,-2.0566,-2.0566,-2.0566,-2.0566,-2.0401,-1.9441,-1.8877,-1.863,-1.7577,-1.7009,-1.6935,-1.6935,-1.6935,-1.6935,-1.6935,-1.6363,-1.5621,-1.6519,-1.6437,-1.5696,-1.5696,-1.7001,-1.8798,-1.8957,-1.9678,-2.0566,-2.0566,-2.0566,-2.0566,-2.0566,-2.0566,-2.0566,-2.0566,-2.0566,-2.0789,-2.1593,-2.1886,-2.2403,-2.4337,-2.4981,-2.5301,-2.6258,-2.6584,-2.6596,-2.6546,-2.6533,-2.6533,-2.6533,-2.6533,-2.6533,-2.6533,-2.7095,-2.7537,-2.7537,-2.8298,-2.9129,-2.9889,-3.0072,-3.045,-3.1278,-3.1351,-3.1409,-3.1482,-3.1482,-3.1482,-3.1482,-3.2632,-3.2751,-3.1526,-3.2168,-3.2542,-3.2721,-3.3962,-3.4736,-3.4893,-3.6168,-3.7169,-3.7862,-3.7283,-3.662,0.0,0.0,0.0,0.0,0.0,0.0,-2.5307,0.0,-2.4178,0.0,0.0,0.0,0.0,0.0,0.0,0.0,0.0,0.0,0.0,0.0,0.0,0.0,0.0,0.0,0.0,0.0,0.0,0.0,0.0,-1.9736,-2.0166,-2.0185,-2.0303,-2.0557,-2.0566,-2.0566,-2.0566,-2.0157,-1.9599,-1.8957,-1.8559,-1.7908,-1.7342,-1.7342,-1.7342,-1.7342,-1.7342,-1.7009,-1.6683,-1.709,-1.7415,-1.7568,-1.7568,-1.8141,-1.9116,-1.9678,-2.0235,-2.0566,-2.0566,-2.0566,-2.0566,-2.0566,-2.0566,-2.0712,-2.1231,-2.1451,-2.1593,-2.2627,-2.3294,-2.3963,-2.4791,-2.5441,-2.5955,-2.6383,-2.6533,-2.6533,-2.6533,-2.6533,-2.6533,-2.6533,-2.6533,-2.6658,-2.7095,-2.7484,-2.7552,-2.7196,-2.8628,-2.9761,-2.9705,-3.0484,-3.1146,-3.1467,-3.1482,-3.1482,-3.1482,-3.1482,-3.1482,-3.1482,-3.2048,-3.2108,-3.1497,-3.1735,-3.2103,-3.2532,-3.392,-3.48,-3.5214,-3.6257,-3.6911,-3.7246,-3.6924,-3.6366,-2.619,0.0,0.0,0.0,0.0,0.0,0.0,0.0,0.0,0.0,0.0,0.0,0.0,0.0,-2.2071,-2.0994,0.0,0.0,0.0,0.0,0.0,0.0,0.0,0.0,0.0,0.0,0.0,0.0,-1.918,0.0,-1.9717,-1.9853,-2.0059,-2.0381,-2.0498,-2.0566,-2.0566,-2.0566,-2.0245,-1.9441,-1.9441,-1.9036,-1.8221,-1.8221,-1.8221,-1.8221,-1.8221,-1.806,-1.7827,-1.806,-1.855,-1.9045,-1.9362,-1.9441,-1.952,-2.0323,-2.0566,-2.0566,-2.0566,-2.0566,-2.0566,-2.0566,-2.0789,-2.1078,-2.1811,-2.2178,-2.2627,-2.3661,-2.442,-2.5075,-2.537,-2.5943,-2.6533,-2.6533,-2.6533,-2.6533,-2.6533,-2.6533,-2.6533,-2.6533,-2.6658,-2.704,-2.7604,-2.792,-2.7956,-2.7692,-2.9393,-3.0469,-2.9959,-3.0865,-3.1482,-3.1482,-3.1482,-3.1482,-3.1482,-3.1482,-3.1556,-3.1735,-3.1571,-3.1657,-3.2038,-3.1887,-3.216,-3.2841,-3.4058,-3.4917,-3.5383,-3.6139,-3.6468,-3.6468,-3.6468,-3.6163,0.0,0.0,0.0,-2.7761,0.0,0.0,0.0,0.0,-2.7532,0.0,0.0,0.0,0.0,-2.3441,-2.3003,-2.1597,-2.1659,0.0,0.0,0.0,0.0,0.0,0.0,0.0,0.0,0.0,0.0,0.0,-1.8896,0.0,-1.9287,-1.9697,-1.9922,-1.9932,-2.0342,-2.0566,-2.0566,-2.0566,-2.0566,-2.0566,-2.0566,-2.0557,-2.0479,-2.0479,-2.0479,-2.0479,-2.0479,-1.9923,-1.9045,-2.0079,-1.9923,-1.9116,-2.0157,-2.0566,-2.0557,-2.0566,-2.0566,-2.0566,-2.0566,-2.0566,-2.0566,-2.0566,-2.1221,-2.1952,-2.1952,-2.2702,-2.3661,-2.4636,-2.5016,-2.5229,-2.6164,-2.6465,-2.6533,-2.6533,-2.6533,-2.6533,-2.6533,-2.6533,-2.6533,-2.6533,-2.7095,-2.767,-2.767,-2.8427,-2.9254,-3.0043,-3.0881,-3.1467,-3.1452,-3.1467,-3.1482,-3.1482,-3.1482,-3.1482,-3.1482,-3.1482,-3.1809,-3.2437,-3.1884,-3.2068,-3.3373,-3.2872,-3.2895,-3.3531,-3.4252,-3.4609,-3.4625,-3.5304,-3.5656,-3.5656,-3.5656,-3.5639,0.0,0.0,-2.664,-2.7369,0.0,0.0,0.0,0.0,0.0,0.0,0.0,0.0,0.0,-2.4492,-2.4135,-2.301,-2.2889,-2.2796,0.0,0.0,0.0,0.0,0.0,0.0,0.0,0.0,0.0,-1.8447,-1.8301,-1.8408,0.0,-1.9268,-1.9629,-1.9902,-2.0342,-2.0566,-2.0566,-2.0566,-2.0566,-2.0566,-2.0566,-2.0566,-2.0566,-2.0566,-2.0566,-2.0566,-2.0566,-2.0401,-2.0089,-2.0479,-2.0401,-2.0079,-2.0479,-2.0566,-2.0566,-2.0566,-2.0566,-2.0566,-2.0566,-2.0566,-2.0712,-2.1298,-2.1735,-2.2253,-2.3599,-2.4192,-2.4707,-2.5721,-2.6025,-2.6094,-2.6383,-2.6533,-2.6533,-2.6533,-2.6533,-2.6533,-2.6533,-2.6533,-2.6658,-2.7162,-2.7484,-2.8051,-2.9192,-2.969,-2.9807,-2.9648,-3.069,-3.1317,-3.0911,-3.1255,-3.1482,-3.1482,-3.1482,-3.1482,-3.1482,-3.1482,-3.1787,-3.2497,-3.2354,-3.2624,-3.3498,-3.3361,-3.3391,-3.3598,-3.4284,-3.4576,-3.4576,-3.5253,-3.5622,-3.5622,-3.5622,-3.5622,-2.7417,-2.7417,0.0,0.0,-2.7932,0.0,-2.7864,0.0,0.0,0.0,0.0,0.0,0.0,0.0,-2.5217,-2.4192,-2.4036,-2.3765,0.0,-2.2525,0.0,0.0,0.0,0.0,0.0,0.0,-1.9363,-1.8262,-1.8359,-1.8456,0.0,0.0,-1.9414,-1.9678,-2.0264,-2.0566,-2.0566,-2.0566,-2.0566,-2.0566,-2.0566,-2.0566,-2.0566,-2.0566,-2.0566,-2.0566,-2.0566,-2.0566,-2.0566,-2.0566,-2.0566,-2.0566,-2.0566,-2.0566,-2.0566,-2.0566,-2.0566,-2.0566,-2.0566,-2.0779,-2.1231,-2.1811,-2.2478,-2.3294,-2.4636,-2.5229,-2.5664,-2.6314,-2.6533,-2.6533,-2.6533,-2.6533,-2.6533,-2.6533,-2.6533,-2.6533,-2.6533,-2.6533,-2.6714,-2.7537,-2.792,-2.862,-3.0072,-3.0524,-3.0572,-3.0163,-3.088,-3.1317,-3.0926,-3.1255,-3.1482,-3.1482,-3.1482,-3.1482,-3.1482,-3.1482,-3.1682,-3.216,-3.2437,-3.2895,-3.3582,-3.3836,-3.4217,-3.4742,-3.4885,-3.5074,-3.5388,-3.5542,-3.5622,-3.5622,-3.5622,-3.5622]}]]